[[{"header":{"parameterUnit":"m.s-1","parameterCategory":1,"la1":31.0,"la2":29.5877,"lo1":-88.7671,"lo2":-86.6584,"dy":0.0162,"dx":0.0185,"nx":115,"ny":88,"refTime":"2024-09-14T06:00:00:Z","depth":0,"parameterNumber":2,"parameterNumberName":"U-component_of_WINDS"},"data":[0.0,0.0,0.0,0.0,0.0,0.0,0.0,0.0,0.0,0.0,0.0,0.0,0.0,0.0,0.0,0.0,0.0,0.0,0.0,0.0,0.0,0.0,0.0,0.0,0.0,0.0,0.0,0.0,0.0,0.0,0.0,0.0,0.0,0.0,0.0,0.0,0.0,0.0,0.0,0.0,0.0,0.0,0.0,0.0,0.0,0.0,0.0,0.0,0.0,0.0,0.0,0.0,0.0,0.0,0.0,0.0,0.0,0.0,0.0,0.0,0.0,0.0,0.0,0.0,0.0,0.0,0.0,0.0,0.0,0.0,0.0,0.0,0.0,0.0,0.0,0.0,0.0,0.0,0.0,0.0,0.0,0.0,0.0,0.0,0.0,0.0,0.0,0.0,0.0,0.0,0.0,0.0,0.0,0.0,0.0,0.0,0.0,0.0,0.0,0.0,0.0,0.0,0.0,0.0,0.0,0.0,0.0,0.0,0.0,0.0,0.0,0.0,0.0,0.0,0.0,0.0,0.0,0.0,0.0,0.0,0.0,0.0,0.0,0.0,0.0,0.0,0.0,0.0,0.0,0.0,0.0,0.0,0.0,0.0,0.0,0.0,0.0,0.0,0.0,0.0,0.0,0.0,0.0,0.0,0.0,0.0,0.0,0.0,0.0,0.0,0.0,0.0,0.0,0.0,0.0,0.0,0.0,0.0,0.0,0.0,0.0,0.0,0.0,0.0,0.0,0.0,0.0,0.0,0.0,0.0,0.0,0.0,0.0,0.0,0.0,0.0,0.0,0.0,0.0,0.0,0.0,0.0,0.0,0.0,0.0,0.0,0.0,0.0,0.0,0.0,0.0,0.0,0.0,0.0,0.0,0.0,0.0,0.0,0.0,0.0,0.0,0.0,0.0,0.0,0.0,0.0,0.0,0.0,0.0,0.0,0.0,0.0,0.0,0.0,0.0,0.0,0.0,0.0,0.0,0.0,0.0,0.0,0.0,0.0,0.0,0.0,0.0,0.0,0.0,0.0,0.0,0.0,0.0,0.0,0.0,0.0,0.0,0.0,0.0,0.0,0.0,0.0,0.0,0.0,0.0,0.0,0.0,0.0,0.0,0.0,0.0,0.0,0.0,0.0,0.0,0.0,0.0,0.0,0.0,0.0,0.0,0.0,0.0,0.0,0.0,0.0,0.0,0.0,0.0,0.0,0.0,0.0,0.0,0.0,0.0,0.0,0.0,0.0,0.0,0.0,0.0,0.0,0.0,0.0,0.0,0.0,0.0,0.0,0.0,0.0,0.0,0.0,0.0,0.0,0.0,0.0,0.0,0.0,0.0,0.0,0.0,0.0,0.0,0.0,0.0,0.0,0.0,0.0,0.0,0.0,0.0,0.0,0.0,0.0,0.0,0.0,0.0,0.0,0.0,0.0,0.0,0.0,0.0,0.0,0.0,0.0,0.0,0.0,0.0,0.0,0.0,0.0,0.0,0.0,0.0,0.0,0.0,0.0,0.0,0.0,0.0,0.0,0.0,0.0,0.0,0.0,0.0,0.0,0.0,0.0,0.0,0.0,0.0,0.0,0.0,0.0,0.0,0.0,0.0,0.0,0.0,0.0,0.0,0.0,0.0,0.0,0.0,0.0,0.0,0.0,0.0,0.0,0.0,0.0,0.0,0.0,0.0,0.0,0.0,0.0,0.0,0.0,0.0,0.0,0.0,0.0,0.0,0.0,0.0,0.0,0.0,0.0,0.0,0.0,0.0,0.0,0.0,0.0,0.0,0.0,0.0,0.0,0.0,0.0,0.0,0.0,0.0,0.0,0.0,0.0,0.0,0.0,0.0,0.0,0.0,0.0,0.0,0.0,0.0,0.0,0.0,0.0,0.0,0.0,0.0,0.0,0.0,0.0,0.0,0.0,0.0,0.0,0.0,0.0,0.0,0.0,0.0,0.0,0.0,0.0,0.0,0.0,0.0,0.0,0.0,0.0,0.0,0.0,0.0,0.0,0.0,0.0,0.0,0.0,0.0,0.0,0.0,0.0,0.0,0.0,0.0,0.0,0.0,0.0,0.0,0.0,0.0,0.0,0.0,0.0,0.0,0.0,0.0,0.0,0.0,0.0,0.0,0.0,0.0,0.0,0.0,0.0,0.0,0.0,0.0,0.0,0.0,0.0,0.0,0.0,0.0,0.0,0.0,0.0,0.0,0.0,0.0,0.0,0.0,0.0,0.0,0.0,0.0,0.0,0.0,0.0,0.0,0.0,0.0,0.0,0.0,0.0,0.0,0.0,0.0,0.0,0.0,0.0,0.0,0.0,0.0,0.0,0.0,0.0,0.0,0.0,0.0,0.0,0.0,0.0,0.0,0.0,0.0,0.0,0.0,0.0,0.0,0.0,0.0,0.0,0.0,0.0,0.0,0.0,0.0,0.0,0.0,0.0,0.0,0.0,0.0,0.0,0.0,0.0,0.0,0.0,0.0,0.0,0.0,0.0,0.0,0.0,0.0,0.0,0.0,0.0,0.0,0.0,0.0,0.0,0.0,0.0,0.0,0.0,0.0,0.0,0.0,0.0,0.0,0.0,0.0,0.0,0.0,0.0,0.0,0.0,0.0,0.0,0.0,0.0,0.0,0.0,0.0,0.0,0.0,0.0,0.0,0.0,0.0,0.0,0.0,0.0,0.0,0.0,0.0,0.0,0.0,0.0,0.0,0.0,0.0,0.0,0.0,0.0,0.0,0.0,0.0,0.0,0.0,0.0,0.0,0.0,0.0,0.0,0.0,0.0,0.0,0.0,0.0,0.0,0.0,0.0,0.0,0.0,0.0,0.0,0.0,0.0,0.0,0.0,0.0,0.0,0.0,0.0,0.0,0.0,0.0,0.0,0.0,0.0,0.0,0.0,0.0,0.0,0.0,0.0,0.0,0.0,0.0,0.0,0.0,0.0,0.0,0.0,0.0,0.0,0.0,0.0,0.0,0.0,0.0,0.0,0.0,0.0,0.0,0.0,0.0,0.0,0.0,0.0,0.0,0.0,0.0,0.0,0.0,0.0,0.0,0.0,0.0,0.0,0.0,0.0,0.0,0.0,0.0,0.0,0.0,0.0,0.0,0.0,0.0,0.0,0.0,0.0,0.0,0.0,0.0,0.0,0.0,0.0,0.0,0.0,0.0,0.0,0.0,0.0,0.0,0.0,0.0,0.0,0.0,0.0,0.0,0.0,0.0,0.0,0.0,0.0,0.0,0.0,0.0,0.0,0.0,0.0,0.0,0.0,0.0,0.0,0.0,0.0,0.0,0.0,0.0,0.0,0.0,0.0,0.0,0.0,0.0,0.0,0.0,0.0,0.0,0.0,0.0,0.0,0.0,0.0,0.0,0.0,0.0,0.0,0.0,0.0,0.0,0.0,0.0,0.0,0.0,0.0,0.0,0.0,0.0,0.0,0.0,0.0,0.0,0.0,0.0,0.0,0.0,0.0,0.0,0.0,0.0,0.0,0.0,0.0,0.0,0.0,0.0,0.0,0.0,0.0,0.0,0.0,0.0,0.0,0.0,0.0,0.0,0.0,0.0,0.0,0.0,0.0,0.0,0.0,0.0,0.0,0.0,0.0,0.0,0.0,0.0,0.0,0.0,0.0,0.0,0.0,0.0,0.0,0.0,0.0,0.0,0.0,0.0,0.0,0.0,0.0,0.0,0.0,0.0,0.0,0.0,0.0,0.0,0.0,0.0,0.0,0.0,0.0,0.0,0.0,0.0,0.0,0.0,0.0,0.0,0.0,0.0,0.0,0.0,0.0,0.0,0.0,0.0,0.0,0.0,0.0,0.0,0.0,0.0,0.0,0.0,0.0,0.0,0.0,0.0,0.0,0.0,0.0,0.0,0.0,0.0,0.0,0.0,0.0,0.0,0.0,0.0,0.0,0.0,0.0,0.0,0.0,0.0,0.0,0.0,0.0,0.0,0.0,0.0,0.0,0.0,0.0,0.0,0.0,0.0,0.0,0.0,0.0,0.0,0.0,0.0,0.0,0.0,0.0,0.0,0.0,0.0,0.0,0.0,0.0,0.0,0.0,0.0,0.0,0.0,0.0,0.0,0.0,0.0,0.0,0.0,0.0,0.0,0.0,0.0,0.0,0.0,0.0,0.0,0.0,0.0,0.0,0.0,0.0,0.0,0.0,0.0,0.0,0.0,0.0,0.0,0.0,0.0,0.0,0.0,0.0,0.0,0.0,0.0,0.0,0.0,0.0,0.0,0.0,0.0,0.0,0.0,0.0,0.0,0.0,0.0,0.0,1.3294,0.0,0.0,0.0,0.0,0.0,0.0,0.0,0.0,0.0,0.0,0.0,0.0,0.0,0.0,0.0,0.0,0.0,0.0,0.0,0.0,0.0,0.0,0.0,0.0,0.0,0.0,0.0,0.0,0.0,0.0,0.0,0.0,0.0,0.0,0.0,0.0,0.0,0.0,0.0,0.0,0.0,0.0,0.0,0.0,0.0,0.0,0.0,0.0,0.0,0.0,0.0,0.0,0.0,0.0,0.0,0.0,0.0,0.0,0.0,0.0,0.0,0.0,0.0,0.0,0.0,0.0,0.0,0.0,0.0,0.0,0.0,0.0,0.0,0.0,0.0,0.0,0.0,0.0,0.0,0.0,0.0,0.0,0.0,0.0,0.0,0.0,0.0,0.0,0.0,0.0,0.0,0.0,0.0,0.0,0.0,0.0,0.0,0.0,0.0,0.0,0.0,0.0,0.0,0.0,0.0,0.0,0.0,0.0,0.0,0.0,1.4601,1.5174,1.4595,1.4227,1.4038,0.0,0.0,0.0,0.0,0.0,0.0,0.0,0.0,0.0,0.0,0.0,0.0,0.0,0.0,0.0,0.0,0.0,0.0,0.0,0.0,0.0,0.0,0.0,0.0,0.0,0.0,0.0,0.0,0.0,0.0,0.0,0.0,0.0,0.0,0.0,0.0,0.0,0.0,0.0,0.0,0.0,0.0,0.0,0.0,0.0,0.0,0.0,0.0,0.0,0.0,0.0,0.0,0.0,0.0,0.0,0.0,0.0,0.0,0.0,0.0,0.0,0.0,0.0,0.0,0.0,0.0,0.0,0.0,0.0,0.0,0.0,0.0,0.0,0.0,0.0,0.0,0.0,0.0,0.0,0.0,0.0,0.0,0.0,0.0,0.0,0.0,0.0,0.0,0.0,0.0,0.0,0.0,0.0,0.0,0.0,0.0,0.0,0.0,0.0,0.0,0.0,0.0,0.0,0.0,0.0,0.0,0.0,0.0,0.0,0.0,0.0,0.0,1.4993,1.4719,1.4854,0.0,0.0,0.0,0.0,0.0,0.0,0.0,0.0,0.0,0.0,0.0,0.0,0.0,0.0,0.0,0.0,0.0,0.0,0.0,0.0,0.0,0.0,0.0,0.0,0.0,0.0,0.0,0.0,0.0,0.0,0.0,0.0,0.0,0.0,0.0,0.0,0.0,0.0,0.0,0.0,0.0,0.0,0.0,0.0,0.0,0.0,0.0,0.0,0.0,0.0,0.0,0.0,0.0,0.0,0.0,0.0,0.0,0.0,0.0,0.0,0.0,0.0,0.0,0.0,0.0,0.0,0.0,0.0,0.0,0.0,0.0,0.0,0.0,0.0,0.0,0.0,0.0,0.0,0.0,0.0,0.0,0.0,0.0,0.0,0.0,0.0,0.0,0.0,0.0,0.0,0.0,0.0,0.0,0.0,0.0,0.0,0.0,0.0,0.0,0.0,0.0,0.0,0.0,0.0,0.0,0.0,0.0,0.0,0.0,0.0,1.3421,1.5409,1.4914,0.0,1.4784,0.0,0.0,0.0,0.0,0.0,0.0,0.0,0.0,0.0,0.0,0.0,0.0,0.0,0.0,0.0,0.0,0.0,0.0,0.0,0.0,0.0,0.0,0.0,0.0,0.0,0.0,0.0,0.0,0.0,0.0,0.0,0.0,0.0,0.0,0.0,0.0,0.0,0.0,0.0,0.0,0.0,0.0,0.0,0.0,0.0,0.0,0.0,0.0,0.0,0.0,0.0,0.0,0.0,0.0,0.0,0.0,0.0,0.0,0.0,0.0,0.0,0.0,0.0,0.0,0.0,0.0,0.0,0.0,0.0,0.0,0.0,0.0,0.0,0.0,0.0,0.0,0.0,0.0,0.0,0.0,0.0,0.0,0.0,0.0,0.0,0.0,0.0,0.0,0.0,0.0,0.0,0.0,0.0,0.0,0.0,0.0,0.0,0.0,0.0,0.0,0.0,0.0,0.0,0.0,0.0,0.0,0.0,0.0,0.0,0.0,1.3292,1.446,1.4305,1.4328,0.0,0.0,0.0,0.0,0.0,0.0,0.0,0.0,0.0,0.0,0.0,0.0,0.0,0.0,0.0,0.0,0.0,0.0,0.0,0.0,0.0,0.0,0.0,0.0,0.0,0.0,0.0,0.0,0.0,0.0,0.0,0.0,0.0,0.0,0.0,0.0,0.0,0.0,0.0,0.0,0.0,0.0,0.0,0.0,0.0,0.0,0.0,0.0,0.0,0.0,0.0,0.0,0.0,0.0,0.0,0.0,0.0,0.0,0.0,0.0,0.0,0.0,0.0,0.0,0.0,0.0,0.0,0.0,0.0,0.0,0.0,0.0,0.0,0.0,0.0,0.0,0.0,0.0,0.0,0.0,0.0,0.0,0.0,0.0,0.0,0.0,0.0,0.0,0.0,0.0,0.0,0.0,0.0,0.0,0.0,0.0,0.0,0.0,0.0,0.0,0.0,0.0,0.0,0.0,0.0,0.0,0.0,0.0,0.0,0.0,1.2857,1.3196,1.401,1.4376,1.4494,1.4258,0.0,0.0,0.0,0.0,0.0,0.0,0.0,0.0,0.0,0.0,0.0,0.0,0.0,0.0,0.0,0.0,0.0,0.0,0.0,0.0,0.0,0.0,0.0,0.0,0.0,0.0,0.0,0.0,0.0,0.0,0.0,0.0,0.0,0.0,0.0,0.0,0.0,0.0,0.0,0.0,0.0,0.0,0.0,0.0,0.0,0.0,0.0,0.0,0.0,0.0,0.0,0.0,0.0,0.0,0.0,0.0,0.0,0.0,0.0,0.0,0.0,0.0,0.0,0.0,0.0,0.0,0.0,0.0,0.0,0.0,0.0,0.0,0.0,0.0,0.0,0.0,0.0,0.0,0.0,0.0,0.0,0.0,0.0,0.0,0.0,0.0,0.0,0.0,0.0,0.0,0.0,0.0,0.0,0.0,0.0,0.0,0.0,0.0,0.0,0.0,0.0,0.0,0.0,0.0,0.0,0.0,0.0,0.0,1.4406,1.3011,1.2987,1.4507,1.5643,1.536,0.0,0.0,0.0,0.0,0.0,0.0,0.0,0.0,0.0,0.0,0.0,0.0,0.0,0.0,0.0,0.0,0.0,0.0,0.0,0.0,0.0,0.0,0.0,0.0,0.0,0.0,0.0,0.0,0.0,0.0,0.0,0.0,0.0,0.0,0.0,0.0,0.0,0.0,0.0,0.0,0.0,0.0,0.0,0.0,0.0,0.0,0.0,0.0,0.0,0.0,0.0,0.0,0.0,0.0,0.0,0.0,0.0,0.0,0.0,0.0,0.0,0.0,0.0,0.0,0.0,0.0,0.0,0.0,0.0,0.0,0.0,0.0,0.0,0.0,0.0,0.0,0.0,0.0,0.0,0.0,0.0,0.0,0.0,0.0,0.0,0.0,0.0,0.0,0.0,0.0,0.0,0.0,0.0,0.0,0.0,0.0,0.0,0.0,0.0,0.0,0.0,0.0,0.0,0.0,0.0,0.0,0.0,0.0,0.0,1.2281,1.1826,1.2569,1.4573,1.3661,1.3078,0.0,0.0,0.0,0.0,0.0,0.0,0.0,0.0,0.0,0.0,0.0,0.0,0.0,0.0,0.0,0.0,0.0,0.0,0.0,0.0,0.0,0.0,0.0,0.0,0.0,0.0,0.0,0.0,0.0,0.0,0.0,0.0,0.0,0.0,0.0,0.0,0.0,0.0,0.0,0.0,0.0,0.0,0.0,0.0,0.0,0.0,0.0,0.0,0.0,0.0,0.0,0.0,0.0,0.0,0.0,0.0,0.0,0.0,0.0,0.0,0.0,0.0,0.0,0.0,0.0,0.0,0.0,0.0,0.0,0.0,0.0,0.0,0.0,0.0,0.0,0.0,0.0,0.0,0.0,0.0,0.0,0.0,0.0,0.0,0.0,0.0,0.0,0.0,0.0,0.0,0.0,0.0,0.0,0.0,0.0,0.0,0.0,0.0,0.0,0.0,0.0,0.0,0.0,0.0,0.0,0.0,0.0,0.0,0.0,1.0816,0.0,1.1991,1.2734,1.1634,1.1018,0.0,0.0,0.0,0.0,0.0,0.0,0.0,0.0,0.0,0.0,0.0,0.0,0.0,0.0,0.0,0.0,0.0,0.0,0.0,0.0,0.0,0.0,0.0,0.0,0.0,0.0,0.0,0.0,0.0,0.0,0.0,0.0,0.0,0.0,0.0,0.0,0.0,0.0,0.0,0.0,0.0,0.0,0.0,0.0,0.0,0.0,0.0,0.0,0.0,0.0,0.0,0.0,0.0,0.0,0.0,0.0,0.0,0.0,0.0,0.0,0.0,0.0,0.0,0.0,0.0,0.0,0.0,0.0,0.0,0.0,0.0,0.0,0.0,0.0,0.0,0.0,0.0,0.0,0.0,0.0,0.0,0.0,0.0,0.0,0.0,0.0,0.0,0.0,0.0,0.0,0.0,0.0,0.0,0.0,0.0,0.0,0.0,0.0,0.0,0.0,0.0,0.0,0.0,0.0,0.0,0.0,0.0,0.0,1.0723,1.0356,1.1477,1.0963,0.8842,0.9754,0.9345,0.0,0.0,0.0,0.0,0.0,0.0,0.0,0.0,0.0,0.0,0.0,0.0,0.0,0.0,0.0,0.0,0.0,0.0,0.0,0.0,0.0,0.0,0.0,0.0,0.0,0.0,0.0,0.0,0.0,0.0,0.0,0.0,0.0,0.0,0.0,0.0,0.0,0.0,0.0,0.0,0.0,0.0,0.0,0.0,0.0,0.0,0.0,0.0,0.0,0.0,0.0,0.0,0.0,0.0,0.0,0.0,0.0,0.0,0.0,0.0,0.0,0.0,0.0,0.0,0.0,0.0,0.0,0.0,0.0,0.0,0.0,0.0,0.0,0.0,0.0,0.0,0.0,0.0,0.0,0.0,0.0,0.0,0.0,0.0,0.0,0.0,0.0,0.0,0.0,0.0,0.0,0.0,0.0,0.0,0.0,0.0,0.0,0.0,0.0,0.0,0.0,0.0,0.0,0.0,0.0,0.0,0.0,0.0,0.0,0.9289,0.8362,0.8058,0.8425,0.7224,0.6822,0.0,0.0,0.0,0.0,0.0,0.0,0.0,0.0,0.0,0.0,0.0,0.0,0.0,0.0,0.0,0.0,0.0,0.0,0.0,0.0,0.0,0.0,0.0,0.0,0.0,0.0,0.0,0.0,0.0,0.0,0.0,0.0,0.0,0.0,0.0,0.0,0.0,0.0,0.0,0.0,0.0,0.0,0.0,0.0,0.0,0.0,0.0,0.0,0.0,0.0,0.0,0.0,0.0,0.0,0.0,0.0,0.0,0.0,0.0,0.0,0.0,0.0,0.0,0.0,0.0,0.0,0.0,0.0,0.0,0.0,0.0,0.0,0.0,0.0,0.0,0.0,0.0,0.0,0.0,0.0,0.0,0.0,0.0,0.0,0.0,0.0,0.0,0.0,0.0,0.0,0.0,0.0,0.0,0.0,0.0,0.0,0.0,0.0,0.0,0.0,0.0,0.0,0.0,0.0,0.0,0.0,0.0,0.0,0.0,0.4466,0.458,0.4555,0.4336,0.2905,0.2998,0.4593,0.0,0.0,0.0,0.0,0.0,0.0,0.0,0.0,0.0,0.0,0.0,0.0,0.0,0.0,0.0,0.0,0.0,0.0,0.0,0.0,0.0,0.0,0.0,0.0,0.0,0.0,0.0,0.0,0.0,0.0,0.0,0.0,0.0,0.0,0.0,0.0,0.0,0.0,0.0,0.0,0.0,0.0,0.0,0.0,0.0,0.0,0.0,0.0,0.0,0.0,0.0,0.0,0.0,0.0,0.0,0.0,0.0,0.0,0.0,0.0,0.0,0.0,0.0,0.0,0.0,0.0,0.0,0.0,0.0,0.0,0.0,0.0,0.0,0.0,0.0,0.0,0.0,0.0,0.0,0.0,0.0,0.0,0.0,0.0,0.0,0.0,0.0,0.0,0.0,0.0,0.0,0.0,0.0,0.0,0.0,0.0,0.0,0.0,0.0,0.0,0.0,0.0,0.0,0.0,0.0,0.0,0.0,0.0,-0.3346,0.0,0.0177,-0.2681,-0.2597,-0.1783,0.0,0.0,0.0,0.0,0.0,0.0,0.0,0.0,0.0,0.0,0.0,0.0,0.0,0.0,0.0,0.0,0.0,0.0,0.0,0.0,0.0,0.0,0.0,0.0,0.0,0.0,0.0,0.0,0.0,0.0,0.0,0.0,0.0,0.0,0.0,0.0,0.0,0.0,0.0,0.0,0.0,0.0,0.0,0.0,0.0,0.0,0.0,0.0,0.0,0.0,0.0,0.0,0.0,0.0,0.0,0.0,0.0,0.0,0.0,0.0,0.0,0.0,0.0,0.0,0.0,0.0,0.0,0.0,0.0,0.0,0.0,0.0,0.0,0.0,0.0,0.0,0.0,0.0,0.0,0.0,0.0,0.0,0.0,0.0,0.0,0.0,0.0,0.0,0.0,0.0,0.0,0.0,0.0,0.0,0.0,0.0,0.0,0.0,0.0,0.0,0.0,0.0,0.0,0.0,0.0,0.0,0.0,0.0,0.0,-0.7336,-0.8443,-0.8105,-0.6233,-0.5921,-0.5306,0.0,0.0,0.0,0.0,0.0,0.0,0.0,0.0,0.0,0.0,0.0,0.0,0.0,0.0,0.0,0.0,0.0,0.0,0.0,0.0,0.0,0.0,0.0,0.0,0.0,0.0,0.0,0.0,0.0,0.0,0.0,0.0,0.0,0.0,0.0,0.0,0.0,0.0,0.0,0.0,0.0,0.0,0.0,0.0,0.0,0.0,0.0,0.0,0.0,0.0,0.0,0.0,0.0,0.0,0.0,0.0,0.0,0.0,0.0,0.0,0.0,0.0,0.0,0.0,0.0,0.0,0.0,0.0,0.0,0.0,0.0,0.0,0.0,0.0,0.0,0.0,0.0,0.0,0.0,0.0,0.0,0.0,0.0,0.0,0.0,0.0,0.0,0.0,0.0,0.0,0.0,0.0,0.0,0.0,0.0,0.0,0.0,0.0,0.0,0.0,0.0,0.0,0.0,0.0,0.0,0.0,0.0,0.0,-0.9573,-1.2397,-1.4463,-1.471,-1.303,-1.1628,-1.0006,0.0,0.0,0.0,0.0,0.0,0.0,0.0,0.0,0.0,0.0,0.0,0.0,0.0,0.0,0.0,0.0,0.0,0.0,0.0,0.0,0.0,0.0,0.0,0.0,0.0,0.0,0.0,0.0,0.0,0.0,0.0,0.0,0.0,0.0,0.0,0.0,0.0,0.0,0.0,0.0,0.0,0.0,0.0,0.0,0.0,0.0,0.0,0.0,0.0,0.0,0.0,0.0,0.0,0.0,0.0,0.0,0.0,0.0,0.0,0.0,0.0,0.0,0.0,0.0,0.0,0.0,0.0,0.0,0.0,0.0,0.0,0.0,0.0,0.0,0.0,0.0,0.0,0.0,0.0,0.0,0.0,0.0,0.0,0.0,0.0,0.0,0.0,0.0,0.0,0.0,0.0,0.0,0.0,0.0,0.0,0.0,0.0,0.0,0.0,0.0,0.0,0.0,0.0,0.0,0.0,0.0,0.0,0.0,-1.4646,-1.745,-1.8739,-1.9891,-2.0831,-1.7949,-1.5069,0.0,0.0,0.0,0.0,0.0,0.0,0.0,0.0,0.0,0.0,0.0,0.0,0.0,0.0,0.0,0.0,0.0,0.0,0.0,0.0,0.0,0.0,0.0,0.0,0.0,0.0,0.0,0.0,0.0,0.0,0.0,0.0,0.0,0.0,0.0,0.0,0.0,0.0,0.0,0.0,0.0,0.0,0.0,0.0,0.0,0.0,0.0,0.0,0.0,0.0,0.0,0.0,0.0,0.0,0.0,0.0,0.0,0.0,0.0,0.0,0.0,0.0,0.0,0.0,0.0,0.0,0.0,0.0,0.0,0.0,0.0,0.0,0.0,0.0,0.0,0.0,0.0,0.0,0.0,0.0,0.0,0.0,0.0,0.0,0.0,0.0,0.0,0.0,0.0,0.0,0.0,0.0,0.0,0.0,0.0,0.0,0.0,0.0,0.0,0.0,0.0,0.0,0.0,0.0,0.0,0.0,0.0,0.0,-1.8003,-1.9548,-2.136,-2.2407,-2.2653,-1.9861,-1.793,0.0,0.0,0.0,0.0,0.0,0.0,0.0,0.0,0.0,0.0,0.0,0.0,0.0,0.0,0.0,0.0,0.0,0.0,0.0,0.0,0.0,0.0,0.0,0.0,0.0,0.0,0.0,0.0,0.0,0.0,0.0,0.0,0.0,0.0,0.0,0.0,0.0,0.0,0.0,0.0,0.0,0.0,0.0,0.0,0.0,0.0,0.0,0.0,-2.303,0.0,0.0,0.0,0.0,0.0,0.0,0.0,0.0,0.0,0.0,0.0,0.0,0.0,0.0,0.0,0.0,0.0,0.0,0.0,0.0,0.0,0.0,0.0,0.0,0.0,0.0,0.0,0.0,0.0,0.0,0.0,0.0,0.0,0.0,0.0,0.0,0.0,0.0,0.0,0.0,0.0,0.0,0.0,0.0,0.0,0.0,0.0,0.0,0.0,0.0,0.0,0.0,0.0,0.0,0.0,0.0,0.0,0.0,0.0,-2.0607,-2.195,-2.3033,-2.3704,-2.3886,-2.2491,-2.104,0.0,0.0,0.0,0.0,0.0,0.0,0.0,0.0,0.0,0.0,0.0,0.0,0.0,0.0,0.0,0.0,0.0,0.0,0.0,0.0,0.0,0.0,0.0,0.0,0.0,0.0,0.0,0.0,0.0,0.0,0.0,0.0,0.0,0.0,0.0,0.0,0.0,0.0,0.0,0.0,0.0,0.0,0.0,0.0,0.0,0.0,0.0,0.0,0.0,0.0,0.0,0.0,0.0,0.0,0.0,0.0,0.0,0.0,0.0,0.0,0.0,0.0,0.0,0.0,0.0,0.0,0.0,0.0,0.0,0.0,0.0,0.0,0.0,0.0,0.0,0.0,0.0,0.0,0.0,0.0,0.0,0.0,0.0,0.0,0.0,0.0,0.0,0.0,0.0,0.0,0.0,0.0,0.0,0.0,0.0,0.0,0.0,0.0,0.0,0.0,0.0,0.0,0.0,0.0,0.0,0.0,0.0,-2.0906,-2.272,-2.4138,-2.4212,-2.4424,-2.4861,-2.4884,-2.3744,-2.1322,0.0,0.0,0.0,0.0,0.0,0.0,0.0,0.0,0.0,0.0,0.0,0.0,0.0,0.0,0.0,0.0,0.0,0.0,0.0,0.0,0.0,0.0,0.0,0.0,0.0,0.0,0.0,0.0,0.0,0.0,0.0,0.0,0.0,0.0,0.0,0.0,0.0,0.0,-1.8114,-2.0777,0.0,0.0,0.0,0.0,0.0,0.0,0.0,0.0,-2.6092,0.0,0.0,0.0,0.0,0.0,0.0,0.0,0.0,0.0,0.0,0.0,0.0,0.0,0.0,0.0,0.0,0.0,0.0,0.0,0.0,0.0,0.0,0.0,0.0,0.0,0.0,0.0,0.0,0.0,0.0,0.0,0.0,0.0,0.0,0.0,0.0,0.0,0.0,0.0,0.0,0.0,0.0,0.0,0.0,0.0,0.0,0.0,0.0,0.0,0.0,0.0,0.0,0.0,0.0,0.0,0.0,-2.1673,-2.3028,-2.4166,-2.5137,-2.5119,-2.5139,-2.5224,-2.5273,-2.4447,-2.2678,0.0,0.0,0.0,0.0,0.0,0.0,0.0,0.0,0.0,0.0,0.0,0.0,0.0,0.0,0.0,0.0,0.0,0.0,0.0,0.0,0.0,0.0,0.0,0.0,0.0,0.0,0.0,0.0,0.0,0.0,0.0,0.0,0.0,0.0,0.0,0.0,0.0,0.0,0.0,-2.4557,-2.5923,0.0,0.0,0.0,0.0,0.0,0.0,0.0,0.0,-2.6705,0.0,0.0,0.0,0.0,0.0,0.0,0.0,0.0,0.0,0.0,0.0,0.0,0.0,0.0,0.0,0.0,0.0,0.0,0.0,0.0,0.0,0.0,0.0,0.0,0.0,0.0,0.0,0.0,0.0,0.0,0.0,0.0,0.0,0.0,0.0,0.0,0.0,0.0,0.0,0.0,0.0,0.0,0.0,0.0,0.0,0.0,0.0,0.0,0.0,0.0,0.0,0.0,0.0,0.0,0.0,-2.1211,-2.2731,-2.3709,-2.4138,-2.4129,-2.4102,-2.4122,-2.4069,-2.3508,0.0,0.0,0.0,0.0,0.0,0.0,0.0,0.0,0.0,0.0,0.0,0.0,0.0,0.0,0.0,0.0,0.0,0.0,0.0,0.0,0.0,0.0,0.0,0.0,0.0,0.0,0.0,0.0,0.0,0.0,0.0,0.0,0.0,0.0,0.0,0.0,0.0,0.0,0.0,0.0,-2.5618,-2.6816,-2.8295,0.0,0.0,0.0,0.0,0.0,0.0,-2.7923,-2.7821,0.0,0.0,0.0,0.0,0.0,0.0,0.0,0.0,0.0,0.0,0.0,0.0,0.0,0.0,0.0,0.0,0.0,0.0,0.0,0.0,0.0,0.0,0.0,0.0,0.0,0.0,0.0,0.0,0.0,0.0,0.0,0.0,0.0,0.0,0.0,0.0,0.0,0.0,0.0,0.0,0.0,0.0,0.0,0.0,0.0,0.0,0.0,0.0,0.0,0.0,0.0,0.0,0.0,0.0,0.0,-1.999,-2.1893,-2.2909,-2.2959,-2.2965,-2.2955,-2.2975,-2.2868,-2.2363,0.0,0.0,0.0,0.0,0.0,0.0,0.0,0.0,0.0,0.0,0.0,0.0,0.0,0.0,0.0,0.0,0.0,0.0,0.0,0.0,0.0,0.0,0.0,0.0,0.0,0.0,0.0,0.0,0.0,0.0,0.0,0.0,0.0,0.0,0.0,0.0,0.0,0.0,0.0,0.0,0.0,-2.7751,-2.9516,-2.9306,0.0,0.0,0.0,0.0,-2.9021,-2.9057,0.0,0.0,0.0,0.0,0.0,0.0,0.0,0.0,0.0,0.0,0.0,0.0,0.0,0.0,0.0,0.0,0.0,0.0,0.0,0.0,0.0,0.0,0.0,0.0,0.0,0.0,0.0,0.0,0.0,0.0,0.0,0.0,0.0,0.0,0.0,0.0,0.0,0.0,0.0,0.0,0.0,0.0,0.0,0.0,0.0,0.0,0.0,0.0,0.0,0.0,0.0,0.0,0.0,0.0,0.0,0.0,-1.9212,-2.1569,-2.2858,-2.292,-2.2852,-2.2835,-2.2816,-2.2808,-2.2076,0.0,0.0,0.0,0.0,0.0,0.0,0.0,0.0,0.0,0.0,0.0,0.0,0.0,0.0,0.0,0.0,0.0,0.0,0.0,0.0,0.0,0.0,0.0,0.0,0.0,0.0,0.0,0.0,0.0,0.0,0.0,0.0,0.0,0.0,0.0,0.0,0.0,0.0,0.0,0.0,0.0,-3.0342,-2.9861,-2.9915,-2.9764,0.0,0.0,-2.906,-2.9329,-2.9255,0.0,0.0,0.0,0.0,0.0,0.0,0.0,0.0,0.0,0.0,0.0,0.0,0.0,0.0,0.0,0.0,0.0,0.0,0.0,0.0,0.0,0.0,0.0,0.0,0.0,0.0,0.0,0.0,0.0,0.0,0.0,0.0,0.0,0.0,0.0,0.0,0.0,0.0,0.0,0.0,0.0,0.0,0.0,0.0,0.0,0.0,0.0,0.0,0.0,0.0,0.0,0.0,0.0,0.0,0.0,-1.8516,-1.9098,-2.0599,-2.1397,-2.1427,-2.1394,-2.1325,-2.1206,-2.1139,-2.0575,0.0,0.0,0.0,0.0,0.0,0.0,0.0,0.0,0.0,0.0,0.0,0.0,0.0,0.0,0.0,0.0,0.0,0.0,0.0,0.0,0.0,0.0,0.0,0.0,0.0,0.0,0.0,0.0,0.0,0.0,0.0,0.0,0.0,0.0,0.0,0.0,0.0,0.0,0.0,0.0,0.0,0.0,-3.0037,-3.0662,0.0,0.0,0.0,-2.9874,-2.9961,0.0,0.0,0.0,0.0,0.0,0.0,0.0,0.0,0.0,0.0,0.0,0.0,0.0,0.0,0.0,0.0,0.0,0.0,0.0,0.0,0.0,0.0,0.0,0.0,0.0,0.0,0.0,0.0,0.0,0.0,0.0,0.0,0.0,0.0,0.0,0.0,0.0,0.0,0.0,0.0,0.0,0.0,0.0,0.0,0.0,0.0,0.0,0.0,0.0,0.0,0.0,0.0,0.0,0.0,0.0,0.0,0.0,-1.8744,-2.0106,-2.0584,-2.019,-2.019,-2.0088,-1.9963,-1.9858,0.0,0.0,0.0,0.0,0.0,0.0,0.0,0.0,0.0,0.0,0.0,0.0,0.0,0.0,0.0,0.0,0.0,0.0,0.0,0.0,0.0,0.0,0.0,0.0,0.0,0.0,0.0,-2.0049,0.0,0.0,0.0,0.0,0.0,0.0,0.0,0.0,0.0,0.0,0.0,0.0,0.0,0.0,-3.0211,-3.019,-3.1336,-3.1805,0.0,0.0,-3.0449,-3.0437,-3.0497,-2.9966,0.0,0.0,0.0,0.0,0.0,0.0,0.0,0.0,0.0,0.0,0.0,0.0,0.0,0.0,0.0,0.0,0.0,0.0,0.0,0.0,0.0,0.0,0.0,0.0,0.0,0.0,0.0,0.0,0.0,0.0,0.0,0.0,0.0,0.0,0.0,0.0,0.0,0.0,0.0,0.0,0.0,0.0,0.0,0.0,0.0,0.0,0.0,0.0,0.0,0.0,0.0,0.0,0.0,0.0,-1.9128,-1.7862,-2.0636,-2.1393,-1.99,-1.9843,-1.9813,-1.9802,-1.9821,-1.9109,0.0,0.0,0.0,0.0,0.0,0.0,0.0,0.0,0.0,0.0,0.0,0.0,0.0,0.0,0.0,0.0,0.0,0.0,0.0,0.0,0.0,0.0,0.0,0.0,0.0,0.0,0.0,0.0,0.0,0.0,0.0,0.0,0.0,0.0,0.0,0.0,0.0,0.0,0.0,0.0,0.0,-3.1735,-3.0386,-3.1809,-3.244,0.0,-3.0481,-3.0425,-3.049,-3.0443,-2.986,-2.8263,0.0,0.0,0.0,0.0,0.0,0.0,0.0,0.0,0.0,0.0,0.0,0.0,0.0,0.0,0.0,0.0,0.0,0.0,0.0,0.0,0.0,0.0,0.0,0.0,0.0,0.0,0.0,0.0,0.0,0.0,0.0,0.0,0.0,0.0,0.0,0.0,0.0,0.0,0.0,0.0,0.0,0.0,0.0,0.0,0.0,0.0,0.0,0.0,0.0,0.0,0.0,0.0,0.0,-1.8708,-1.7641,-2.0167,-2.1193,-2.0552,-2.0054,-2.0007,-2.0418,-1.995,-1.9151,0.0,0.0,0.0,0.0,0.0,0.0,0.0,0.0,0.0,0.0,0.0,0.0,0.0,0.0,0.0,0.0,0.0,0.0,0.0,0.0,0.0,0.0,0.0,0.0,0.0,0.0,0.0,0.0,-2.4617,-2.4707,-2.4549,0.0,0.0,0.0,0.0,0.0,0.0,0.0,0.0,0.0,0.0,-3.2768,-3.1122,-3.216,0.0,0.0,-3.0436,-3.0399,-3.0433,-3.0462,-3.0066,-2.8859,-2.8723,0.0,0.0,0.0,0.0,0.0,0.0,0.0,0.0,0.0,0.0,0.0,0.0,0.0,0.0,0.0,0.0,0.0,0.0,0.0,0.0,0.0,0.0,0.0,0.0,0.0,0.0,0.0,0.0,0.0,0.0,0.0,0.0,0.0,0.0,0.0,0.0,0.0,0.0,0.0,0.0,0.0,0.0,0.0,0.0,0.0,0.0,0.0,0.0,0.0,0.0,0.0,0.0,-1.895,-1.7892,-2.0094,-2.0998,-2.0506,-1.9944,-1.9991,-2.0663,-2.0148,-1.9606,0.0,0.0,0.0,0.0,0.0,0.0,0.0,0.0,0.0,0.0,0.0,0.0,0.0,0.0,0.0,0.0,0.0,0.0,0.0,0.0,0.0,0.0,0.0,0.0,0.0,0.0,0.0,0.0,-2.5809,-2.5704,-2.5505,0.0,0.0,0.0,0.0,0.0,0.0,0.0,0.0,0.0,0.0,-3.3311,-3.1668,-3.2355,-3.2435,-3.0693,-3.043,-3.042,-3.0422,-3.0462,-3.0153,-2.9164,0.0,0.0,0.0,0.0,0.0,0.0,0.0,0.0,0.0,0.0,0.0,0.0,0.0,0.0,0.0,0.0,0.0,0.0,0.0,0.0,0.0,0.0,0.0,0.0,0.0,0.0,0.0,-2.1699,0.0,0.0,-2.0334,0.0,0.0,0.0,0.0,0.0,0.0,0.0,0.0,0.0,0.0,0.0,0.0,0.0,0.0,0.0,0.0,0.0,0.0,0.0,0.0,0.0,0.0,-2.0183,-1.8542,-2.0663,-2.1011,-1.9467,-1.9323,-1.969,-2.0501,-2.0501,-2.051,-2.0589,0.0,0.0,0.0,0.0,0.0,0.0,0.0,0.0,0.0,0.0,0.0,0.0,0.0,0.0,0.0,0.0,0.0,0.0,0.0,0.0,0.0,0.0,0.0,0.0,0.0,0.0,-2.676,-2.662,-2.6592,0.0,0.0,0.0,0.0,0.0,0.0,0.0,0.0,0.0,0.0,-3.3314,-3.3291,-3.1896,-3.2452,-3.2367,-3.0722,-3.0498,-3.0479,-3.049,-3.0441,-3.0054,0.0,0.0,0.0,0.0,0.0,0.0,0.0,0.0,0.0,0.0,0.0,0.0,0.0,0.0,0.0,0.0,0.0,0.0,0.0,0.0,0.0,0.0,0.0,0.0,0.0,0.0,0.0,-2.5515,-2.4342,0.0,0.0,0.0,0.0,0.0,0.0,0.0,0.0,0.0,0.0,0.0,-2.7256,-2.7923,0.0,0.0,0.0,0.0,0.0,0.0,0.0,0.0,0.0,0.0,0.0,0.0,-2.0604,-1.9442,-2.104,-2.1636,-2.0958,-1.9858,-1.995,-2.1308,-2.0813,-2.0565,-2.0682,0.0,0.0,0.0,0.0,0.0,0.0,0.0,0.0,0.0,0.0,0.0,0.0,0.0,0.0,0.0,0.0,0.0,0.0,0.0,0.0,0.0,0.0,0.0,0.0,0.0,-2.8683,0.0,0.0,0.0,0.0,0.0,0.0,0.0,0.0,0.0,0.0,0.0,-3.2556,-3.2814,-3.3557,-3.3487,-3.1903,-3.1946,-3.173,0.0,0.0,0.0,0.0,0.0,0.0,0.0,0.0,0.0,0.0,0.0,0.0,0.0,0.0,-2.7925,-2.6468,-2.6371,-2.6897,-2.811,0.0,0.0,0.0,0.0,0.0,0.0,0.0,0.0,0.0,0.0,0.0,0.0,0.0,0.0,-2.7102,0.0,-2.6061,0.0,0.0,0.0,0.0,0.0,0.0,0.0,0.0,-2.8022,-2.8476,-2.8968,-2.9231,-2.9196,0.0,-2.8287,-2.7292,0.0,0.0,0.0,0.0,0.0,0.0,0.0,0.0,-2.1531,-2.0306,-2.1386,-2.1659,-2.0921,-2.0134,-2.0372,-2.1748,-2.1804,-2.1691,-2.1512,-2.1493,-2.1439,0.0,0.0,0.0,0.0,0.0,0.0,0.0,0.0,0.0,0.0,0.0,0.0,0.0,0.0,0.0,0.0,0.0,0.0,0.0,0.0,0.0,0.0,0.0,-2.9157,0.0,0.0,0.0,0.0,0.0,0.0,0.0,0.0,0.0,-3.1902,-3.3104,-3.3926,-3.3856,-3.4318,-3.4141,-3.2756,0.0,0.0,0.0,0.0,0.0,0.0,0.0,-3.0098,-3.0321,-3.0553,-3.0652,-3.0415,-2.9749,-2.9064,-2.8524,0.0,0.0,-2.6935,-2.7169,-2.7966,-2.9185,-2.9101,-2.9115,-3.0002,-2.9823,-2.9354,0.0,0.0,0.0,0.0,0.0,0.0,0.0,0.0,-2.8398,-2.793,0.0,-2.7044,0.0,0.0,0.0,0.0,0.0,-2.7254,0.0,0.0,-2.9959,-3.0377,-3.0375,-3.0352,-3.039,-3.0398,-3.0352,-2.9927,-2.905,-2.5898,0.0,0.0,0.0,0.0,0.0,0.0,-2.3014,-2.1292,-2.177,-2.1228,-1.9596,-2.017,-2.0978,-2.1858,-2.3327,-2.3786,-2.307,-2.3015,-2.2755,-2.2176,-2.2234,0.0,0.0,0.0,0.0,0.0,0.0,0.0,0.0,0.0,0.0,0.0,0.0,0.0,0.0,0.0,0.0,0.0,0.0,0.0,0.0,-2.9541,0.0,0.0,0.0,0.0,0.0,0.0,0.0,0.0,0.0,0.0,-3.3198,-3.3789,-3.4548,-3.535,0.0,0.0,0.0,0.0,-3.252,-3.146,-3.0686,-3.0075,-2.9823,-2.9734,-2.9626,-2.947,0.0,0.0,-2.9409,-2.9197,-2.8938,-2.8787,-2.8567,-2.8298,-2.7956,-2.9132,-3.0187,-3.0018,-3.0674,-3.1154,-3.0281,-2.9989,-2.9692,-2.9434,0.0,0.0,0.0,0.0,-2.9238,-2.959,-3.0156,-3.0156,-2.9668,-2.8848,-2.8785,0.0,0.0,0.0,0.0,0.0,0.0,-2.9371,-3.016,-3.0373,-3.0462,-3.0463,-3.0417,-3.0398,-3.0398,-3.0398,-3.0287,-2.9993,-2.845,-2.6795,-2.513,0.0,0.0,0.0,0.0,-2.3716,-2.3084,-2.3056,-2.2764,-2.216,-2.1684,-2.1822,-2.2648,-2.3657,-2.4098,-2.3878,-2.3859,-2.4118,-2.461,-2.3542,0.0,0.0,0.0,0.0,0.0,0.0,0.0,0.0,0.0,0.0,0.0,0.0,0.0,0.0,0.0,0.0,0.0,0.0,0.0,-3.0413,-3.0146,-2.9972,0.0,0.0,0.0,0.0,0.0,0.0,0.0,0.0,0.0,-3.3912,-3.4611,-3.4789,0.0,0.0,-3.314,-3.1748,-3.1153,-3.0764,-3.0442,-2.9959,0.0,-2.9532,-2.9495,-2.958,-2.9913,-2.9959,-2.9871,-2.9582,-2.9234,-2.8815,-2.828,-2.854,-2.8725,-2.836,-2.8452,-2.8925,-2.95,-2.9375,-2.9232,-2.9598,-2.9315,-2.8855,-3.0293,-2.9316,-2.9316,-2.9629,-3.0098,-3.0117,-3.041,-3.0918,-3.0918,-3.0586,-3.0098,-3.0005,-2.9523,-2.8717,-2.8622,0.0,0.0,0.0,-3.0037,-3.0524,-3.0488,-3.0455,-3.0452,-3.0425,-3.0398,-3.0398,-3.0398,-3.0398,-3.0398,-2.9871,-2.8704,-2.6935,0.0,0.0,-2.4389,-2.4516,-2.4322,-2.382,-2.3688,-2.3391,-2.2914,-2.2569,-2.2787,-2.3564,-2.3989,-2.419,-2.419,-2.419,-2.4487,-2.506,-2.4539,-2.4176,0.0,0.0,0.0,0.0,0.0,0.0,0.0,0.0,0.0,0.0,0.0,-2.6458,-2.5855,0.0,0.0,0.0,-2.8832,-3.0194,-3.1001,-3.1277,0.0,0.0,0.0,0.0,0.0,0.0,0.0,-3.396,-3.4672,-3.5068,-3.4768,-3.5167,-3.513,-3.4118,-3.3564,-3.2916,-3.1927,0.0,-3.0354,-3.0253,-2.9758,-2.9372,-2.9286,-2.9225,-2.9348,-2.9664,-2.9751,-2.9643,-2.9398,-2.9156,-2.8852,-2.8507,-2.87,-2.8929,-2.8682,-2.8482,-2.8639,-2.9606,-2.9556,-2.9467,-2.9795,-2.9457,-2.9039,-3.0918,-3.0918,-3.0898,-3.0898,-3.0918,-3.0918,-3.0918,-3.0918,-3.0918,-3.0918,-3.0898,-3.0747,-3.0281,-2.9588,-2.9449,0.0,-2.933,-3.0132,-3.0447,-3.0398,-3.0398,-3.0398,-3.0398,-3.0398,-3.0398,-3.0398,-3.0398,-3.0398,-3.0398,-3.0379,-2.9987,-2.9179,-2.7525,-2.6678,-2.6563,-2.5707,-2.484,-2.3949,-2.3919,-2.3438,-2.2527,-2.309,-2.3766,-2.4476,-2.4303,-2.419,-2.419,-2.419,-2.4226,-2.43,-2.5116,-2.4909,-2.3516,0.0,0.0,0.0,0.0,0.0,0.0,0.0,0.0,0.0,0.0,0.0,0.0,0.0,0.0,0.0,-2.9852,0.0,-3.1834,-3.2702,0.0,0.0,0.0,-3.4151,-3.4536,-3.5138,-3.5512,-3.5579,0.0,0.0,-3.5584,-3.5507,-3.5507,-3.5507,-3.4481,-3.3684,-3.3624,-3.1946,-3.0772,-3.0465,-2.9859,-2.9289,-2.9067,-2.904,-2.904,-2.9072,-2.8975,-2.903,-2.903,-2.9012,-2.8994,-2.8952,-2.8975,-2.8975,-2.8975,-2.8952,-2.9255,-2.991,-3.0571,-3.087,-3.0167,-2.9984,-2.9703,-3.0918,-3.0918,-3.0918,-3.0918,-3.0918,-3.0918,-3.0918,-3.0918,-3.0918,-3.0918,-3.0898,-3.0767,-3.0535,-3.0261,-3.0238,-3.0181,-3.0128,-3.0314,-3.0409,-3.041,-3.0398,-3.0398,-3.0398,-3.0398,-3.0398,-3.0398,-3.0398,-3.0398,-3.0398,-3.0398,-3.0314,-3.0025,-2.8409,-2.7255,-2.6601,-2.5726,-2.5178,-2.4946,-2.4801,-2.4556,-2.4233,-2.4214,-2.4325,-2.4476,-2.4284,-2.419,-2.419,-2.419,-2.4483,-2.5072,-2.4762,-2.4653,-2.4855,-2.4038,0.0,0.0,0.0,0.0,0.0,0.0,0.0,0.0,0.0,-2.7301,-2.614,0.0,-2.8893,0.0,-3.0943,-3.2358,-3.2889,-3.359,0.0,0.0,-3.5232,-3.5287,-3.6054,-3.5811,-3.5551,-3.5515,-3.5674,-3.5718,-3.5545,-3.5507,-3.5507,-3.5455,-3.4002,-3.2664,-3.2064,-3.0741,-2.9754,-2.9673,-2.9354,-2.9067,-2.9017,-2.8975,-2.8975,-2.8975,-2.8975,-2.8975,-2.8975,-2.8975,-2.8975,-2.8975,-2.8975,-2.8975,-2.8975,-2.8975,-2.9072,-2.9232,-2.9434,-2.9549,-2.9305,-2.9292,-2.9255,-3.0918,-3.0918,-3.0918,-3.0918,-3.0918,-3.0918,-3.0918,-3.0918,-3.0918,-3.0918,-3.0879,-3.0767,-3.0633,-3.0552,-3.0552,-3.0516,-3.0471,-3.0452,-3.0417,-3.0398,-3.0398,-3.0398,-3.0398,-3.0398,-3.0398,-3.0398,-3.0398,-3.0398,-3.0398,-3.0398,-3.0398,-3.0359,-2.8717,-2.7659,-2.7159,-2.5947,-2.5313,-2.5303,-2.5203,-2.5279,-2.5565,-2.5322,-2.5214,-2.5288,-2.5282,-2.4964,-2.4358,-2.4578,-2.4817,-2.4968,-2.4912,-2.5079,-2.5504,-2.5096,-2.4872,0.0,0.0,0.0,0.0,0.0,0.0,0.0,0.0,0.0,0.0,0.0,-2.9833,-3.0996,-3.2667,-3.3991,-3.4726,-3.5341,-3.5965,-3.6573,-3.6325,-3.6278,-3.6647,-3.6338,-3.6074,-3.6026,-3.6031,-3.5892,-3.5565,-3.5507,-3.5334,-3.4968,-3.3486,-3.2257,-3.1695,-3.0321,-2.9225,-2.9203,-2.9089,-2.8975,-2.8975,-2.8975,-2.8975,-2.8975,-2.8975,-2.8975,-2.8975,-2.8975,-2.8975,-2.8975,-2.8975,-2.8975,-2.8975,-2.8975,-2.8975,-2.8975,-2.8975,-2.8975,-2.8975,-2.8975,-2.8975,-3.0918,-3.0918,-3.0918,-3.0918,-3.0918,-3.0918,-3.0918,-3.0918,-3.0918,-3.0918,-3.0879,-3.079,-3.0696,-3.0617,-3.0617,-3.0575,-3.0516,-3.0516,-3.0467,-3.0414,-3.039,-3.0398,-3.0398,-3.0398,-3.0398,-3.0398,-3.0398,-3.0398,-3.0398,-3.0398,-3.034,-3.0179,-2.8679,-2.7832,-2.7678,-2.6217,-2.5399,-2.5303,-2.5399,-2.5832,-2.6572,-2.6317,-2.6227,-2.6401,-2.6451,-2.5869,-2.4685,-2.5133,-2.517,-2.4685,-2.5392,-2.582,-2.5838,-2.647,-2.6486,0.0,-2.567,0.0,0.0,0.0,0.0,0.0,0.0,0.0,0.0,-2.9828,-3.1362,-3.3398,-3.4636,-3.569,-3.6644,-3.7302,-3.7544,-3.7276,-3.7175,-3.6992,-3.6738,-3.6622,-3.6546,-3.6546,-3.6546,-3.6262,-3.5622,-3.543,-3.5026,-3.4282,-3.2934,-3.1993,-3.1845,-3.0269,-2.8998,-2.8975,-2.8975,-2.8975,-2.8975,-2.8975,-2.8975,-2.8975,-2.8975,-2.8975,-2.8975,-2.8975,-2.8975,-2.8975,-2.8975,-2.8975,-2.8975,-2.8975,-2.8975,-2.8975,-2.8975,-2.8975,-2.8975,-2.8975,-2.8975,-3.0918,-3.0918,-3.0918,-3.0918,-3.0918,-3.0918,-3.0918,-3.0918,-3.0918,-3.0918,-3.0898,-3.0878,-3.0792,-3.0684,-3.0684,-3.0633,-3.0575,-3.053,-3.0497,-3.0482,-3.0428,-3.0398,-3.0398,-3.0398,-3.0398,-3.0398,-3.0398,-3.0398,-3.0398,-3.0398,-3.0025,-2.9333,-2.8371,-2.7544,-2.6871,0.0,0.0,0.0,-2.5986,-2.6428,-2.661,-2.683,-2.6994,-2.7006,-2.6117,0.0,-2.5241,-2.5331,-2.5368,-2.5278,-2.6015,0.0,0.0,0.0,0.0,0.0,0.0,0.0,0.0,0.0,0.0,0.0,-3.0351,-3.0002,-2.9557,-3.167,-3.3615,-3.489,-3.6224,-3.7103,-3.7327,-3.8003,-3.8376,-3.8089,-3.7498,-3.6992,-3.6703,-3.6142,-3.5718,-3.5724,-3.5738,-3.5699,-3.5507,-3.4891,-3.4391,-3.4109,-3.2476,-3.1315,-3.1221,-2.9948,-2.9017,-2.8975,-2.8975,-2.8975,-2.8975,-2.8975,-2.8975,-2.8975,-2.8975,-2.8975,-2.8975,-2.8975,-2.8975,-2.8975,-2.8975,-2.8975,-2.8975,-2.8975,-2.8975,-2.8975,-2.8975,-2.8975,-2.8975,-2.8975,-2.8975,-3.0918,0.0,-3.0918,-3.0918,0.0,-3.0918,-3.0918,-3.0918,-3.0918,-3.0918,-3.0918,-3.0918,-3.0858,-3.0813,-3.0793,-3.074,-3.0657,-3.0598,-3.0581,-3.0552,-3.049,-3.0463,-3.0451,-3.0425,-3.0398,-3.0398,-3.0398,-3.0398,-3.0398,-3.0398,-3.0179,-2.9737,-2.8909,-2.8275,-2.7832,-2.7448,-2.7024,-2.6582,-2.7024,-2.7366,-2.7668,-2.7774,-2.7792,-2.7775,-2.7397,0.0,0.0,0.0,0.0,0.0,0.0,0.0,0.0,0.0,0.0,-2.7885,-2.7834,-2.8364,-2.9599,-2.946,-2.9904,-3.1335,-3.181,-3.1703,-3.0912,-3.3408,-3.5261,-3.5818,-3.6849,-3.7496,-3.7496,-3.7514,-3.7415,-3.713,-3.6726,-3.6406,-3.6132,-3.5776,-3.5507,-3.5507,-3.5507,-3.5507,-3.5507,-3.4737,-3.4045,-3.357,-3.2191,-3.0947,-3.0411,-2.9574,-2.9017,-2.8975,-2.8975,-2.8975,-2.8975,-2.8975,-2.8975,-2.8975,-2.8975,-2.8975,-2.8975,-2.8975,-2.8975,-2.8975,-2.8975,-2.8975,-2.8975,-2.8975,-2.8975,-2.8975,-2.8975,-2.8975,-2.8975,-2.8975,-2.8975,-3.0918,-3.0918,-3.0918,-3.0918,-3.0918,-3.0918,-3.0918,-3.0918,0.0,0.0,0.0,-3.0918,-3.0918,-3.0918,-3.0918,-3.0837,-3.0726,-3.0701,-3.0671,-3.0623,-3.0543,-3.052,-3.0498,-3.0441,-3.0414,-3.0398,-3.0398,-3.0398,-3.0398,-3.0398,-3.0302,-3.0121,-2.9448,-2.9113,-2.9063,-2.8448,-2.8179,-2.8332,-2.8179,-2.8353,-2.8834,-2.8742,-2.8671,-2.8671,-2.8834,-2.8355,-2.7252,-2.7594,-2.7608,-2.7139,-2.7213,-2.7565,-2.8214,-2.827,-2.8482,-2.8943,-2.8975,-2.9347,-3.0136,-3.0017,-3.0604,-3.2206,-3.2924,-3.3127,-3.2643,-3.4732,-3.6138,-3.6285,-3.689,-3.7276,-3.7305,-3.6688,-3.6167,-3.5863,-3.5878,-3.578,-3.5488,-3.5479,-3.5507,-3.5507,-3.5507,-3.543,-3.5238,-3.4468,-3.366,-3.2782,-3.1694,-3.0776,-2.9883,-2.933,-2.8975,-2.8975,-2.8975,-2.8975,-2.8975,-2.8975,-2.8975,-2.8975,-2.8975,-2.8975,-2.8975,-2.8975,-2.8975,-2.8975,-2.8975,-2.8975,-2.8975,-2.8975,-2.8975,-2.8975,-2.8975,-2.8975,-2.8975,-2.8975,-2.8975,-3.0918,-3.0918,-3.0918,-3.0918,-3.0918,-3.0918,-3.0918,-3.0918,-3.0918,-3.0918,-3.0918,-3.0918,-3.0918,-3.0918,-3.0918,-3.0879,-3.0859,-3.0762,-3.0698,-3.0668,-3.0609,-3.0544,-3.0488,-3.0481,-3.0452,-3.039,-3.041,-3.0398,-3.0398,-3.041,-3.0025,-2.9371,-2.9159,-2.9132,-2.9094,-2.8986,-2.9294,-3.0006,-2.9313,-2.8956,-2.906,-2.9535,-2.9764,-2.9745,-2.899,-2.8476,-2.8284,-2.8129,-2.8033,-2.7941,-2.8421,-2.8768,-2.886,-2.886,-2.8911,-2.8998,-2.8975,-2.9365,-3.0173,-3.0784,-3.1847,-3.3359,-3.3662,-3.3954,-3.4549,-3.4954,-3.5496,-3.6174,-3.6395,-3.6468,-3.645,-3.6321,-3.5993,-3.5621,-3.575,-3.5683,-3.5253,-3.5369,-3.5507,-3.5507,-3.5507,-3.5199,-3.4507,-3.368,-3.2872,-3.1962,-3.1024,-3.0091,-2.9769,-2.9293,-2.9021,-2.8975,-2.8975,-2.8975,-2.8975,-2.8975,-2.8975,-2.8975,-2.8975,-2.8975,-2.8975,-2.8975,-2.8975,-2.8975,-2.8975,-2.8975,-2.8975,-2.8975,-2.8975,-2.8975,-2.8975,-2.8975,-2.8975,-2.8975,-2.8975,-3.0746,-3.0746,-3.0726,-3.0746,-3.0729,-3.0767,-3.0818,-3.0898,-3.0918,-3.0918,-3.0918,-3.0918,-3.0918,-3.0918,-3.0918,-3.0918,-3.0879,-3.084,-3.082,-3.0796,-3.0702,-3.063,-3.0603,-3.0587,-3.0525,-3.0507,-3.0507,-3.05,-3.0452,-3.0452,-3.0237,-2.9833,-2.9794,-2.9813,-2.9813,-2.9813,-3.0006,-3.0379,-3.0006,-2.9728,-2.9583,-2.9851,-2.9954,-2.9845,-2.9368,-2.9164,-2.9129,-2.9042,-2.897,-2.897,-2.9148,-2.9222,-2.9222,-2.9067,-2.8975,-2.8975,-2.8975,-2.9342,-3.0155,-3.1347,-3.254,-3.3697,-3.3807,-3.3954,-3.4321,-3.4751,-3.5183,-3.555,-3.5605,-3.5605,-3.5587,-3.522,-3.4897,-3.4809,-3.5071,-3.521,-3.5147,-3.5339,-3.5474,-3.5507,-3.5507,-3.5161,-3.4314,-3.3449,-3.2622,-3.1782,-3.0718,-2.9969,-2.9877,-2.9607,-2.9334,-2.9225,-2.9089,-2.8998,-2.9017,-2.8975,-2.8975,-2.8975,-2.8975,-2.8975,-2.8975,-2.8975,-2.8975,-2.8975,-2.8975,-2.8975,-2.8975,-2.8975,-2.8975,-2.8975,-2.8975,-2.8975,-2.8975,-2.8975,-2.8975,-3.0606,-3.0606,-3.0606,-3.0606,-3.0611,-3.0642,-3.0738,-3.0834,-3.084,-3.0834,-3.0835,-3.0859,-3.0918,-3.0918,-3.0918,-3.0918,-3.0918,-3.0918,-3.0918,-3.0898,-3.0801,-3.0719,-3.0693,-3.0652,-3.0603,-3.0606,-3.0606,-3.0568,-3.054,-3.0516,-3.0472,-3.0421,-3.0398,-3.0398,-3.0398,-3.0398,-3.0398,-3.0398,-3.0398,-3.0299,-3.0089,-3.0089,-3.0018,-2.988,-2.9864,-2.9848,-2.9848,-2.9815,-2.9763,-2.9746,-2.9532,-2.9373,-2.9373,-2.9156,-2.8975,-2.8975,-2.8975,-2.9439,-3.043,-3.1604,-3.2761,-3.3733,-3.3807,-3.3807,-3.3844,-3.4357,-3.4751,-3.4743,-3.4743,-3.4743,-3.4688,-3.4291,-3.3968,-3.4195,-3.4572,-3.4908,-3.5088,-3.5335,-3.5507,-3.5507,-3.5507,-3.5122,-3.4083,-3.3314,-3.2487,-3.1482,-3.0611,-3.0128,-3.0075,-2.9893,-2.9713,-2.9551,-2.9332,-2.9181,-2.9112,-2.9108,-2.9067,-2.9021,-2.8975,-2.8975,-2.8975,-2.8975,-2.8975,-2.8975,-2.8975,-2.8975,-2.8975,-2.8975,-2.8975,-2.8975,-2.8975,-2.8975,-2.8975,-2.8975,-2.8975,-3.06,-3.0606,-3.06,-3.0606,-3.06,-3.0611,-3.0623,-3.0628,-3.0623,-3.0623,-3.0643,-3.0811,-3.0898,-3.0918,-3.0918,-3.0918,-3.0918,-3.0918,-3.0918,-3.0918,-3.0879,-3.0817,-3.0718,-3.069,-3.0646,-3.0617,-3.0611,-3.0586,-3.0581,-3.0521,-3.0453,-3.0402,-3.0398,-3.0398,-3.0398,-3.0398,-3.0398,-3.0398,-3.0398,-3.0398,-3.0367,-3.0367,-3.0355,-3.0343,-3.033,-3.0343,-3.0299,-3.0109,-2.9984,-2.9954,-2.9626,-2.9394,-2.9353,-2.9156,-2.8975,-2.8998,-2.9017,-2.9677,-3.1091,-3.1421,-3.2192,-3.3605,-3.3825,-3.3807,-3.3834,-3.3889,-3.3925,-3.3954,-3.3935,-3.399,-3.3925,-3.4049,-3.4171,-3.4246,-3.4696,-3.5088,-3.5122,-3.5335,-3.5507,-3.5507,-3.5507,-3.4911,-3.3468,-3.2872,-3.2179,-3.0852,-3.0489,-3.0311,-3.0299,-3.0136,-2.9969,-2.9908,-2.9763,-2.957,-2.9414,-2.9351,-2.9246,-2.9067,-2.9017,-2.9021,-2.9044,-2.9044,-2.8998,-2.9138,-2.9048,-2.9071,-2.9067,-2.8998,-2.904,-2.9112,-2.9089,-2.9017,-2.8998,-2.904,-2.904,-3.0482,-3.0482,-3.0482,-3.0507,-3.0545,-3.0545,-3.0574,-3.0606,-3.0606,-3.0606,-3.0611,-3.0704,-3.0755,-3.0792,-3.0858,-3.0918,-3.0918,-3.0918,-3.0918,-3.0918,-3.0918,-3.0859,-3.0817,-3.0816,-3.0811,-3.078,-3.07,-3.0648,-3.0587,-3.05,-3.0428,-3.039,-3.0398,-3.0398,-3.0398,-3.0398,-3.0398,-3.0398,-3.0398,-3.0398,-3.0398,-3.0398,-3.0398,-3.0398,-3.0398,-3.0398,-3.0379,-3.0279,-3.0241,-3.0209,-2.9889,-2.9658,-2.9589,-2.9223,-2.9055,-2.9206,-2.9243,-2.988,-3.1299,-3.1403,-3.2164,-3.3926,-3.4031,-3.4042,-3.4037,-3.4031,-3.3981,-3.3825,-3.3807,-3.3868,-3.3993,-3.4147,-3.4288,-3.4489,-3.487,-3.5105,-3.5105,-3.5354,-3.5507,-3.5507,-3.5488,-3.4834,-3.3199,-3.2025,-3.1218,-3.0494,-3.0398,-3.0398,-3.0398,-3.0311,-3.0254,-3.0222,-3.0155,-2.9962,-2.9662,-2.9455,-2.9353,-2.9267,-2.9243,-2.9243,-2.9246,-2.9355,-2.9416,-2.9397,-2.9377,-2.9377,-2.9436,-2.9416,-2.9416,-2.9395,-2.931,-2.9243,-2.9243,-2.9243,-2.9243,-3.026,-3.0279,-3.0386,-3.0428,-3.0463,-3.0463,-3.0498,-3.0517,-3.0463,-3.0447,-3.0435,-3.0479,-3.051,-3.058,-3.0755,-3.0831,-3.0832,-3.08,-3.0819,-3.0832,-3.0811,-3.0831,-3.0811,-3.0836,-3.0857,-3.0839,-3.0796,-3.071,-3.0628,-3.0496,-3.0451,-3.0428,-3.0421,-3.0398,-3.0398,-3.0398,-3.0398,-3.0398,-3.0398,-3.0398,-3.0398,-3.0398,-3.0398,-3.0398,-3.0398,-3.0398,-3.0398,-3.0398,-3.0398,-3.0379,-3.0075,-2.9826,-2.9695,-2.9267,-2.9082,-2.927,-2.9289,-2.9924,-3.1299,-3.1403,-3.2189,-3.3827,-3.4074,-3.4099,-3.4099,-3.4076,-3.3999,-3.3844,-3.3807,-3.3902,-3.4147,-3.4338,-3.4553,-3.4793,-3.5034,-3.5207,-3.5242,-3.5383,-3.5507,-3.5507,-3.5507,-3.4853,-3.3141,-3.1564,-3.0424,-3.0318,-3.0355,-3.0311,-3.0254,-3.0286,-3.0355,-3.0241,-3.0286,-3.0228,-2.9864,-2.9696,-2.957,-2.9474,-2.9474,-2.9493,-2.9474,-2.9626,-2.9696,-2.957,-2.9661,-2.9678,-2.9607,-2.9643,-2.9678,-2.9661,-2.957,-2.9434,-2.9372,-2.9392,-2.9392,-2.9864,-3.0047,-3.0279,-3.0379,-3.039,-3.0371,-3.041,-3.0344,-3.0138,-3.0037,-3.006,-3.017,-3.0232,-3.0227,-3.0474,-3.0598,-3.0638,-3.0632,-3.0628,-3.0633,-3.0642,-3.0617,-3.0623,-3.0657,-3.0718,-3.0738,-3.0799,-3.0776,-3.0668,-3.0628,-3.0547,-3.0518,-3.0441,-3.0402,-3.0414,-3.0414,-3.039,-3.0414,-3.0402,-3.039,-3.039,-3.039,-3.0398,-3.0398,-3.0398,-3.0398,-3.0398,-3.0398,-3.0398,-3.0398,-3.0106,-2.9863,-2.968,-2.9272,-2.9026,-2.9021,-2.904,-2.9738,-3.1152,-3.1403,-3.2132,-3.3526,-3.3878,-3.3848,-3.3917,-3.3897,-3.3862,-3.3807,-3.3834,-3.3935,-3.4242,-3.4576,-3.4925,-3.5053,-3.5289,-3.5432,-3.546,-3.546,-3.5493,-3.5488,-3.5353,-3.4584,-3.3064,-3.1436,-3.0439,-3.015,-3.0222,-3.0241,-2.9962,-3.0128,-3.0182,-2.9988,-3.008,-3.0299,-3.0028,-2.9845,-2.9815,-2.9748,-2.9661,-2.9678,-2.9696,-2.9696,-2.9695,-2.9695,-2.9695,-2.9695,-2.9695,-2.9696,-2.9696,-2.9678,-2.9643,-2.9551,-2.9433,-2.9412,-2.9373,-2.9748,-2.9813,-2.9912,-2.9969,-2.9952,-2.9954,-2.995,-2.9932,-2.9839,-2.9832,-2.9813,-2.9855,-2.9886,-2.9882,-3.0113,-3.0356,-3.06,-3.0608,-3.0603,-3.0619,-3.0607,-3.0626,-3.0664,-3.0633,-3.0662,-3.0691,-3.0677,-3.0625,-3.0599,-3.058,-3.0587,-3.0561,-3.0545,-3.0521,-3.0521,-3.0521,-3.0521,-3.0513,-3.0491,-3.0472,-3.0462,-3.0417,-3.0398,-3.0398,-3.0398,-3.0398,-3.0398,-3.0398,-3.0311,-3.015,-3.0179,-3.0007,-2.9551,-2.9353,-2.9178,-2.904,-2.9178,-2.9902,-3.1134,-3.1403,-3.2164,-3.3821,-3.4049,-3.4043,-3.408,-3.4057,-3.3981,-3.387,-3.3961,-3.4189,-3.4442,-3.4532,-3.4676,-3.5034,-3.5171,-3.532,-3.5446,-3.5507,-3.5507,-3.5334,-3.4641,-3.3526,-3.2846,-3.1302,-3.0161,-3.0028,-3.0089,-3.0003,-2.9864,-3.008,-3.0228,-2.9915,-3.0085,-3.0273,-2.9845,-2.9815,-2.9799,-2.9829,-2.981,-2.9829,-2.9829,-2.9893,-2.9908,-2.9893,-2.9845,-2.9746,-2.9763,-2.9729,-2.9729,-2.9696,-2.9661,-2.9607,-2.9433,-2.9412,-2.9373,-2.9226,-2.9246,-2.9401,-2.951,-2.95,-2.9636,-2.9693,-2.967,-2.9624,-2.9588,-2.9607,-2.9607,-2.9607,-2.9644,-2.9794,-3.0041,-3.0318,-3.0462,-3.0546,-3.0548,-3.0537,-3.0565,-3.0595,-3.0586,-3.0581,-3.0594,-3.0565,-3.053,-3.0564,-3.0593,-3.0603,-3.0643,-3.0617,-3.0606,-3.0606,-3.0606,-3.0606,-3.0594,-3.0547,-3.0529,-3.0521,-3.0491,-3.0462,-3.043,-3.0439,-3.0436,-3.039,-3.0398,-3.0323,-3.0169,-3.0157,-2.9905,-2.9359,-2.9514,-2.957,-2.9448,-2.9824,-3.0531,-3.1581,-3.177,-3.2458,-3.3895,-3.4083,-3.4068,-3.408,-3.4076,-3.3989,-3.3905,-3.4043,-3.4311,-3.4464,-3.4442,-3.4595,-3.5105,-3.5223,-3.5304,-3.546,-3.5507,-3.5507,-3.5276,-3.4045,-3.3103,-3.2667,-3.1139,-3.0219,-2.9999,-2.9999,-2.9924,-2.9796,-3.0066,-3.0228,-2.9848,-3.0114,-3.0169,-2.9954,-2.9877,-2.9877,-2.9908,-3.0018,-2.9999,-2.9999,-3.0075,-3.0075,-3.0075,-2.9999,-2.9893,-2.9829,-2.9796,-2.9746,-2.9713,-2.9731,-2.9731,-2.9551,-2.9394,-2.9351,-2.8247,-2.8329,-2.8846,-2.906,-2.9082,-2.9383,-2.9626,-2.955,-2.9431,-2.9312,-2.9293,-2.9353,-2.9291,-2.9375,-2.9495,-2.9676,-2.9758,-3.0131,-3.0359,-3.0371,-3.0383,-3.0394,-3.0436,-3.0472,-3.046,-3.0449,-3.0542,-3.0624,-3.0654,-3.0621,-3.0623,-3.066,-3.0642,-3.0628,-3.0617,-3.0633,-3.0617,-3.0617,-3.0617,-3.0586,-3.0606,-3.0587,-3.0559,-3.0498,-3.049,-3.0443,-3.039,-3.0398,-3.0386,-3.0323,-2.9989,-2.9531,-2.9395,-2.9787,-3.0173,-3.0325,-3.0913,-3.1721,-3.2412,-3.2548,-3.2868,-3.3695,-3.3807,-3.3852,-3.386,-3.3887,-3.3868,-3.3876,-3.4093,-3.4246,-3.4357,-3.4532,-3.487,-3.5369,-3.5398,-3.5412,-3.5474,-3.5507,-3.5507,-3.5276,-3.3987,-3.2987,-3.2506,-3.1216,-3.009,-2.9999,-2.9999,-2.9939,-2.9799,-3.0099,-3.0142,-2.9912,-3.0052,-3.0228,-3.0109,-2.9999,-2.9999,-3.0013,-3.015,-3.0209,-3.0209,-3.0235,-3.0163,-3.0136,-3.0052,-2.9943,-2.9829,-2.9796,-2.9799,-2.9765,-2.9815,-2.9746,-2.9551,-2.9372,-2.9246,-2.7976,-2.8004,-2.82,-2.8282,-2.8287,-2.8397,-2.8591,-2.8795,-2.8639,-2.863,-2.8664,-2.8605,-2.851,-2.8485,-2.8842,-2.9079,-2.9142,-2.9639,-2.9977,-3.008,-3.0113,-3.0232,-3.0371,-3.0417,-3.0439,-3.0402,-3.0479,-3.0525,-3.0575,-3.058,-3.0618,-3.0635,-3.066,-3.0683,-3.0664,-3.0757,-3.0808,-3.0806,-3.0707,-3.0673,-3.065,-3.0633,-3.0568,-3.0496,-3.0479,-3.0463,-3.0402,-3.0398,-3.0311,-3.015,-3.0157,-3.0303,-3.0519,-3.0378,-3.0491,-3.0987,-3.1422,-3.194,-3.25,-3.2816,-3.3155,-3.3666,-3.3807,-3.3807,-3.3842,-3.3963,-3.4086,-3.4099,-3.4357,-3.4614,-3.4794,-3.4907,-3.5051,-3.5207,-3.5223,-3.532,-3.546,-3.5507,-3.5507,-3.5282,-3.3968,-3.3006,-3.2577,-3.1216,-3.0071,-3.0013,-3.0013,-2.9924,-2.9848,-3.0128,-3.0202,-2.9848,-3.0128,-3.0286,-3.0109,-3.008,-3.015,-3.0103,-3.0196,-3.0311,-3.0336,-3.0323,-3.0235,-3.015,-3.008,-2.9973,-2.9861,-2.9813,-2.9815,-2.9782,-2.9746,-2.9625,-2.9435,-2.933,-2.9246,-2.6899,-2.6948,-2.723,-2.7379,-2.7415,-2.772,-2.8,-2.8183,-2.8209,-2.811,-2.7946,-2.7929,-2.7813,-2.7741,-2.8226,-2.8431,-2.853,-2.8892,-2.9139,-2.9399,-2.9844,-3.0109,-3.0333,-3.0199,-3.0142,-3.0169,-3.0263,-3.0344,-3.0405,-3.051,-3.0575,-3.0592,-3.0652,-3.065,-3.0673,-3.0767,-3.0814,-3.0792,-3.0781,-3.0754,-3.0717,-3.0699,-3.0667,-3.0587,-3.0575,-3.0525,-3.0472,-3.0442,-3.0344,-3.0196,-3.0228,-3.0604,-3.1239,-3.089,-3.0869,-3.1558,-3.2121,-3.2557,-3.262,-3.3253,-3.3599,-3.3762,-3.3968,-3.4136,-3.4165,-3.4323,-3.4367,-3.4427,-3.4674,-3.4926,-3.507,-3.5207,-3.5239,-3.5258,-3.5273,-3.532,-3.546,-3.5507,-3.5507,-3.5161,-3.3968,-3.3122,-3.2539,-3.1268,-3.0133,-3.0122,-3.0061,-3.0047,-2.9988,-3.0215,-3.0114,-3.0071,-3.0215,-3.0228,-3.0085,-3.0142,-3.0299,-3.0254,-3.0209,-3.0311,-3.0367,-3.0323,-3.0267,-3.0209,-3.0122,-3.0018,-2.9889,-2.9893,-2.9861,-2.9796,-2.9782,-2.9661,-2.9551,-2.9414,-2.927,-2.5221,-2.5319,-2.6077,-2.6421,-2.6536,-2.7274,-2.7577,-2.7773,-2.7967,-2.7632,-2.7172,-2.6974,-2.7043,-2.7068,-2.7455,-2.7666,-2.7784,-2.7814,-2.7916,-2.8297,-2.8955,-2.9605,-2.9981,-2.9789,-2.9674,-2.9691,-2.9889,-3.006,-3.0206,-3.0346,-3.0494,-3.0561,-3.0581,-3.06,-3.0611,-3.0646,-3.0673,-3.0652,-3.0786,-3.0795,-3.0704,-3.0798,-3.0816,-3.069,-3.0684,-3.0661,-3.0581,-3.0513,-3.0462,-3.0371,-3.0155,-3.0513,-3.1261,-3.1273,-3.1481,-3.2256,-3.3166,-3.3241,-3.3151,-3.3876,-3.4373,-3.3914,-3.4297,-3.4694,-3.4632,-3.4674,-3.4715,-3.4715,-3.4963,-3.5122,-3.5171,-3.532,-3.5465,-3.5493,-3.5446,-3.546,-3.5493,-3.5507,-3.543,-3.5103,-3.3987,-3.2852,-3.2718,-3.1096,-3.0387,-3.0254,-3.0177,-3.0182,-3.0273,-3.0355,-3.0379,-3.0367,-3.0355,-3.0311,-3.0202,-3.0215,-3.0355,-3.0343,-3.0267,-3.0311,-3.0367,-3.0355,-3.0323,-3.0267,-3.0196,-3.0075,-3.0013,-3.0032,-3.0003,-2.9958,-2.988,-2.9782,-2.957,-2.9301,-2.9129,-2.5221,-2.5221,-2.5438,-2.5563,-2.558,-2.5859,-2.6112,-2.6397,-2.6882,-2.6645,-2.6044,-2.5056,-2.5167,-2.574,-2.6183,-2.6354,-2.6451,-2.6644,-2.6738,-2.6841,-2.7161,-2.8045,-2.8905,-2.9152,-2.9193,-2.9269,-2.9549,-2.9893,-3.0032,-3.0054,-3.0189,-3.0442,-3.0414,-3.0485,-3.0537,-3.0568,-3.0623,-3.0606,-3.0653,-3.0696,-3.069,-3.0699,-3.0741,-3.0721,-3.0699,-3.0657,-3.0606,-3.0537,-3.0482,-3.039,-3.0136,-3.0803,-3.2155,-3.2051,-3.234,-3.3585,-3.4264,-3.4496,-3.4259,-3.4617,-3.4755,-3.4492,-3.4532,-3.4694,-3.4694,-3.4889,-3.4963,-3.5053,-3.5223,-3.535,-3.5383,-3.5446,-3.5474,-3.5507,-3.5474,-3.5488,-3.5507,-3.5488,-3.5295,-3.4564,-3.3583,-3.2795,-3.1994,-3.1142,-3.033,-3.0355,-3.0311,-3.0299,-3.0367,-3.0311,-3.0286,-3.0367,-3.0386,-3.0398,-3.0367,-3.0367,-3.0398,-3.0398,-3.0355,-3.0343,-3.0367,-3.0379,-3.0367,-3.0367,-3.0311,-3.0209,-3.0254,-3.0299,-3.0215,-3.0114,-2.9889,-2.9687,-2.9211,-2.8901,-2.8819,-2.4138,-2.4194,-2.4657,-2.4869,-2.4906,-2.5109,-2.5195,-2.515,-2.5246,-2.514,-2.4681,-2.3973,-2.4011,-2.4863,-2.533,-2.5538,-2.5582,-2.5746,-2.5832,-2.5849,-2.5989,-2.6672,-2.7528,-2.7955,-2.8231,-2.8612,-2.8901,-2.9111,-2.9213,-2.9345,-2.9507,-2.959,-2.9677,-2.9841,-3.0061,-3.0151,-3.0306,-3.0458,-3.0506,-3.049,-3.0477,-3.04,-3.0462,-3.0518,-3.0565,-3.0584,-3.0626,-3.0611,-3.0529,-3.0378,-3.0226,-3.0779,-3.2278,-3.2045,-3.2467,-3.3961,-3.4323,-3.4263,-3.403,-3.4433,-3.4696,-3.4408,-3.447,-3.4674,-3.4714,-3.4851,-3.4926,-3.4963,-3.5088,-3.5138,-3.5187,-3.5277,-3.5273,-3.5168,-3.5292,-3.5397,-3.5488,-3.5507,-3.5084,-3.4295,-3.343,-3.2583,-3.1795,-3.0917,-3.0513,-3.0367,-3.0267,-3.0299,-3.0355,-3.0241,-3.0202,-3.0273,-3.0215,-3.0142,-3.0142,-3.0142,-3.0061,-3.0075,-3.0089,-3.0136,-3.0222,-3.0248,-3.0355,-3.0355,-3.0367,-3.0367,-3.0343,-3.0343,-3.0355,-3.0177,-2.9893,-2.9597,-2.9193,-2.8552,-2.8458,-2.2603,-2.2694,-2.3691,-2.4128,-2.4122,-2.4508,-2.4152,-2.3763,-2.3214,-2.2981,-2.2908,-2.2878,-2.2892,-2.4039,-2.403,-2.4563,-2.4578,-2.4321,-2.448,-2.4549,-2.4833,-2.5417,-2.5816,-2.6424,-2.6947,-2.7536,-2.7861,-2.8072,-2.8221,-2.8419,-2.8553,-2.8753,-2.8732,-2.892,-2.9359,-2.9535,-2.978,-3.0023,-3.0071,-3.0006,-2.992,-2.9793,-2.9841,-3.0052,-3.0267,-3.0484,-3.064,-3.0707,-3.0623,-3.0449,-3.0247,-3.0953,-3.1933,-3.1566,-3.2095,-3.3166,-3.3663,-3.3396,-3.2961,-3.3883,-3.4285,-3.3833,-3.4199,-3.4555,-3.4457,-3.4496,-3.4597,-3.4597,-3.4634,-3.4659,-3.4756,-3.4945,-3.4909,-3.4774,-3.4923,-3.504,-3.5235,-3.5278,-3.4952,-3.4087,-3.3204,-3.2397,-3.1591,-3.0868,-3.0299,-3.0128,-3.0066,-3.0085,-3.0099,-3.0007,-3.0037,-3.0155,-3.0022,-2.9832,-2.9848,-2.9864,-2.9744,-2.9691,-2.9653,-2.9704,-2.9832,-2.9946,-3.0182,-3.026,-3.0161,-3.0142,-3.0188,-3.0247,-3.0241,-3.0042,-2.9616,-2.953,-2.9383,-2.8536,-2.8129,-2.1899,-2.1946,-2.2197,-2.2292,-2.2207,-2.1825,-2.1541,-2.1329,-2.0693,-2.0518,-2.0257,-1.9716,-2.0268,-2.1498,-2.169,-2.1611,-2.1695,-2.1695,-2.1572,-2.1801,-2.3342,-2.3568,-2.3718,-2.4319,-2.5544,-2.6101,-2.6533,-2.6948,-2.7335,-2.7412,-2.7936,-2.8359,-2.8221,-2.864,-2.8713,-2.8886,-2.91,-2.908,-2.9214,-2.9246,-2.9098,-2.8988,-2.9032,-2.9254,-2.967,-3.0263,-3.0722,-3.0747,-3.0724,-3.08,-3.1039,-3.1563,-3.2321,-3.2366,-3.284,-3.3605,-3.3561,-3.3259,-3.3232,-3.3419,-3.3573,-3.3515,-3.3673,-3.3598,-3.3642,-3.4023,-3.4147,-3.4166,-3.4166,-3.437,-3.4564,-3.4374,-3.4472,-3.4508,-3.4167,-3.3843,-3.3764,-3.3819,-3.3523,-3.276,-3.1946,-3.1094,-3.03,-3.0094,-2.9829,-2.9832,-2.9796,-2.9799,-2.9729,-2.9658,-2.9674,-2.9704,-2.9531,-2.9304,-2.9363,-2.9344,-2.9206,-2.9105,-2.9087,-2.9089,-2.925,-2.9419,-2.9583,-2.9725,-2.9851,-2.9848,-2.9772,-2.981,-2.9739,-2.953,-2.925,-2.8873,-2.8498,-2.7987,-2.7297,-2.0241,-2.0228,-2.015,-2.0122,-1.9971,-1.9283,-1.904,-1.9048,-1.8749,-1.8762,-1.8958,-1.8542,-1.9041,-2.0014,-1.9699,-1.9573,-1.9434,-1.9083,-1.8945,-1.9544,-2.1261,-2.1435,-1.9291,-1.9659,-2.0557,-2.3486,-2.5301,-2.5431,-2.4958,-2.563,-2.615,-2.6138,-2.6653,-2.7058,-2.7394,-2.7584,-2.7897,-2.8197,-2.8257,-2.8328,-2.8425,-2.8112,-2.8286,-2.868,-2.9236,-2.9881,-3.08,-3.0857,-3.0849,-3.107,-3.1413,-3.2364,-3.3173,-3.2977,-3.3191,-3.3773,-3.3379,-3.3195,-3.3319,-3.3487,-3.3512,-3.3494,-3.3811,-3.3494,-3.3481,-3.378,-3.4158,-3.407,-3.4199,-3.4504,-3.468,-3.4817,-3.474,-3.4538,-3.4091,-3.3658,-3.3388,-3.3072,-3.2499,-3.1713,-3.0941,-3.0149,-2.9546,-2.9113,-2.9037,-2.8922,-2.8809,-2.8805,-2.8987,-2.8926,-2.8944,-2.8947,-2.885,-2.8778,-2.885,-2.8782,-2.8609,-2.8512,-2.8463,-2.842,-2.8433,-2.8649,-2.8872,-2.8944,-2.8996,-2.9172,-2.9134,-2.919,-2.9016,-2.8915,-2.8558,-2.8023,-2.7391,-2.6722,-2.5967,-1.8058,-1.8058,-1.7919,-1.7855,-1.7676,-1.7014,-1.6761,-1.6895,-1.6757,-1.6873,-1.7628,-1.7747,-1.756,-1.8283,-1.7638,-1.7379,-1.6966,-1.6351,-1.5773,-1.6383,-1.7913,-1.7612,-1.5673,-1.484,-1.5528,-2.0321,-2.2106,-2.199,-2.1799,-2.2829,-2.3417,-2.3023,-2.3896,-2.4639,-2.5163,-2.5426,-2.5564,-2.6069,-2.538,-2.5232,-2.5306,-2.4779,-2.4479,-2.5076,-2.5362,-2.5944,-2.6266,-2.623,-2.7387,-3.0424,-2.8961,-2.8492,-2.9632,-3.3064,-3.3079,-3.3829,-3.3269,-3.3175,-3.3515,-3.3631,-3.3654,-3.3713,-3.4206,-3.4034,-3.3389,-3.3843,-3.4226,-3.43,-3.4355,-3.4817,-3.4924,-3.4899,-3.4913,-3.4615,-3.4196,-3.3721,-3.316,-3.241,-3.1541,-3.1097,-2.9945,-2.8854,-2.8341,-2.7894,-2.7942,-2.7698,-2.7352,-2.7139,-2.6943,-2.7406,-2.6951,-2.728,-2.7063,-2.6965,-2.7028,-2.7098,-2.7063,-2.707,-2.717,-2.7095,-2.6999,-2.6699,-2.6757,-2.7815,-2.8026,-2.8026,-2.7767,-2.7335,-2.738,-2.7853,-2.7181,-2.5939,-2.5447,-2.5306,-2.4403,-1.5756,-1.5746,-1.5725,-1.5725,-1.5565,-1.4888,-1.4489,-1.4523,-1.3963,-1.3793,-1.4013,-1.3963,-1.4489,-1.4657,-1.4108,-1.3353,-1.2689,-1.2022,-1.1937,-1.2238,-1.3075,-1.2488,-1.2305,-1.1012,-1.1574,-1.2854,-1.5318,-1.6923,-1.8162,-1.9523,-1.9772,-2.0348,-2.1028,-2.1582,-2.1643,-2.216,-2.1852,-2.1721,-2.0664,-1.9894,-1.9402,-1.7722,-1.6464,-1.7228,-1.7581,-1.79,-1.6833,-1.4197,-1.6602,-2.7405,-1.361,-0.7051,-0.9191,-2.1801,-3.0467,-3.1087,-3.0095,-2.8732,-2.9495,-3.1611,-3.2934,-3.3636,-3.1596,-3.2012,-3.2006,-3.2409,-2.9973,-3.1272,-3.1895,-3.3518,-3.4737,-3.127,-3.3063,-3.2916,-3.0797,-3.0079,-2.962,-2.8479,-2.7591,-2.6327,-2.6432,-2.5435,-2.2457,-2.0631,-1.9988,-1.9275,-1.9359,-1.9648,-1.9971,-2.1745,-2.3446,-2.411,-2.4944,-2.4925,-2.4909,-2.5023,-2.5025,-2.5008,-2.5045,-2.4923,-2.4697,-2.416,-2.4474,-2.5837,-2.6333,-2.6141,-2.5814,-2.5531,-2.5363,-2.5514,-2.46,-2.3608,-2.3323,-2.3046,-2.1961,-1.2682,-1.2674,-1.2253,-1.2071,-1.1958,-1.1269,-1.116,-1.1461,-1.1188,-1.1265,-1.1574,-1.1697,-1.1798,-1.1745,-1.0773,-0.9556,-0.8458,-0.7996,-0.8001,-0.8276,-0.8857,-0.8242,-0.7596,-0.6292,-0.5771,-0.6,-0.7598,-1.0113,-1.2567,-1.4478,-1.4963,-1.4867,-1.5728,-1.626,-1.6289,-1.6305,-1.657,-1.6203,-1.5455,-1.4903,-1.4641,-1.1922,-1.0089,-0.9019,-1.0127,-1.0703,-0.9105,-0.8327,-0.8168,-1.0579,-0.4114,0.6719,0.7832,-0.1452,-1.6483,-1.6253,-1.62,-1.5707,-1.5739,-1.5586,-1.4865,-1.5186,-1.6426,-1.5714,-1.5511,-1.4918,0.0,0.0,0.0,-1.6842,-1.5845,0.0,-1.6644,-1.6694,-1.6719,-1.6582,-1.5879,-1.5371,-1.5898,-1.7129,-1.7199,-1.4714,-1.0249,-0.9404,-1.0185,-1.0695,-1.1173,-1.1726,-1.2422,-1.4946,-1.7382,-1.7687,-1.8492,-2.1241,-2.1327,-2.1643,-2.0316,-2.0351,-2.0615,-2.0533,-2.1195,-2.0089,-2.2002,-2.4336,-2.4442,-2.1682,-2.4288,-2.4155,-2.3681,-2.3243,-2.2969,-2.2484,-2.1524,-2.0631,-1.9683,-0.9649,-0.9586,-0.877,-0.8393,-0.8334,-0.7792,-0.7847,-0.8334,-0.8388,-0.8758,-0.9316,-0.9316,-0.931,-0.892,-0.7501,-0.5895,-0.435,-0.4262,-0.4265,-0.4611,-0.5752,-0.4951,-0.2439,-0.0195,0.0322,-0.0708,-0.0256,-0.2124,-0.6414,-0.8705,-0.9007,-0.8829,-0.9405,-0.9784,-0.9652,-0.9563,-0.9957,-0.9615,-0.9207,-0.9219,-0.8128,-0.6001,-0.3202,-0.0666,-0.3087,-0.2693,-0.0233,0.1614,0.3644,0.5139,0.9242,1.5859,2.7812,1.6682,0.6984,0.6407,0.4167,0.179,0.0413,-0.0651,-0.2907,-0.3301,-0.0859,0.0137,-0.0134,0.0,0.0,0.0,0.0,0.0,0.0,0.0,0.0,-0.2207,-0.2344,-0.0879,-0.291,-0.3105,-0.1797,-0.3301,-0.5566,-0.4961,-0.1387,-0.1231,-0.2632,-0.2611,-0.3064,-0.2611,-0.3655,-0.7099,-0.9221,-0.9483,-1.1285,-1.5771,-1.7236,-1.7647,-1.5278,-1.2501,-1.2501,-1.2316,-1.4042,-1.5337,-1.6386,-1.5174,-1.5308,-1.3496,-1.7991,-2.2246,-2.2097,-2.1776,-2.1808,-2.0953,-1.9254,-1.8483,-1.7867,-0.7053,-0.6983,-0.612,-0.5791,-0.5726,-0.5535,-0.56,-0.5661,-0.5658,-0.5788,-0.5837,-0.5845,-0.5837,-0.5308,-0.3934,-0.2241,-0.1057,-0.0596,-0.0596,-0.0859,-0.1993,-0.1795,0.0198,0.3128,0.395,0.3749,0.4734,0.2481,-0.0566,-0.2537,-0.3085,-0.2579,-0.2851,-0.3184,-0.2722,-0.2593,-0.1746,-0.0455,0.1438,0.3406,0.5092,0.5734,0.6694,0.8142,0.8636,0.9589,1.1302,1.3902,1.7326,1.8771,2.4444,2.8281,3.0428,3.0133,2.729,2.1512,1.2045,0.0422,0.2527,0.4102,0.4629,0.5195,0.3496,0.0918,0.3839,0.4512,0.0,0.0,0.0,0.0,0.0,0.0,0.0762,0.2305,0.4805,0.3711,0.252,0.834,0.9785,1.1309,0.9277,0.6016,0.6055,0.5391,0.4754,0.4975,0.5352,0.6172,0.5765,0.3033,0.2861,0.3589,0.121,-0.335,-0.7537,-0.8754,-0.7746,-0.4227,-0.2481,-0.2141,-0.1909,-0.1928,-0.1474,-0.073,-0.1462,-0.4665,-0.8954,-1.3249,-1.791,-1.8248,-1.5595,-1.5679,-1.6325,-1.577,-1.4073,-0.2441,-0.2836,-0.2441,-0.2309,-0.2309,-0.2309,-0.2309,-0.2309,-0.2309,-0.2309,-0.2309,-0.2308,-0.1778,-0.0853,0.059,0.177,0.2772,0.293,0.2992,0.2633,0.1709,0.1839,0.4077,0.6561,0.7782,0.7792,0.8623,0.9285,0.6494,0.4516,0.3525,0.3633,0.3492,0.3413,0.3845,0.4275,0.473,0.5743,0.729,0.9654,1.1931,1.3105,1.4643,1.7835,1.685,1.8317,2.1329,2.2614,2.4272,2.5277,3.0023,3.2517,3.2144,3.2316,3.2452,3.1103,2.4711,1.9759,1.9219,1.8066,1.7812,1.959,1.9629,2.0898,1.9282,1.8711,1.875,0.0,0.0,1.9629,1.9199,2.0371,1.9727,1.8887,1.5469,1.5625,1.5547,1.7441,2.0918,2.2695,2.3437,1.8867,1.5703,1.666,1.7051,1.748,1.8144,1.9023,1.8164,1.5911,1.6863,1.9174,1.5525,1.095,0.6612,0.3645,0.3476,0.6617,1.1772,1.2343,1.3603,1.4054,1.2243,1.2814,1.3349,0.8693,0.1684,-0.2843,-0.6249,-0.7439,-0.8193,-0.7565,-0.6894,-0.6643,-0.5561,0.2187,0.1915,0.1061,0.0664,0.0664,0.0664,0.0665,0.0664,0.0862,0.0994,0.106,0.1256,0.2178,0.3364,0.42,0.4984,0.6185,0.6276,0.6441,0.5906,0.525,0.5503,0.7423,0.9724,1.0906,1.102,1.2122,1.2797,1.289,1.1727,0.9959,0.9629,0.9321,0.9608,0.9932,1.0387,1.0953,1.2503,1.3464,1.5405,1.749,1.8216,2.0732,2.264,2.3386,2.3703,2.7606,2.7457,2.6683,2.8465,3.0561,3.2336,3.2034,3.2261,3.2232,3.1536,2.8533,2.9178,2.9289,3.0019,3.3711,3.4835,3.5567,3.1445,3.1516,3.4689,3.4863,3.043,3.1562,3.3223,3.5332,3.4238,3.1797,3.0293,3.0527,3.1465,3.0937,2.7793,2.6172,2.6934,2.7734,2.8809,2.707,2.8789,2.9648,3.0098,3.0879,3.0918,2.8359,2.4766,2.482,2.5717,2.3979,1.978,1.6818,1.4417,1.4841,1.5648,2.0729,2.2712,2.1336,2.1553,2.0543,2.249,2.3983,2.0705,1.2949,0.9276,0.6008,0.5187,0.434,0.3624,0.3661,0.3467,0.3379,0.5975,0.7154,0.386,0.2606,0.2606,0.2542,0.2539,0.28,0.3458,0.3718,0.3845,0.462,0.5462,0.6258,0.6767,0.7604,0.892,0.8905,0.9233,0.9137,0.8651,0.8736,1.0383,1.1859,1.2978,1.3263,1.4676,1.5847,1.6352,1.6252,1.5345,1.485,1.416,1.4945,1.529,1.5405,1.6994,1.8625,1.99,2.112,2.2509,2.3169,2.4007,2.5203,2.6635,2.8149,2.9625,2.9443,2.9814,3.1153,3.1636,3.1741,3.1716,3.184,3.1568,3.0867,3.0516,3.1153,3.1977,3.2794,3.3488,3.3949,3.4364,3.453,3.3291,3.4195,3.4295,3.358,3.4074,3.4557,3.4844,3.4805,3.4687,3.4043,3.3437,3.2578,3.1699,3.0859,2.9629,3.0547,3.0898,3.0879,3.0859,3.0859,3.0918,3.0918,3.0918,3.0918,3.0762,2.8196,2.8018,2.8357,2.8569,2.6449,2.4265,2.2672,2.0996,2.0676,2.3568,2.4722,2.4405,2.502,2.4851,2.4914,2.4826,2.4735,2.4032,1.7865,1.4408,1.6542,1.6282,1.2809,1.1461,1.1138,1.1772,0.7367,0.7827,0.6502,0.5975,0.5978,0.5975,0.5975,0.5978,0.6302,0.6433,0.6555,0.7822,0.8654,0.9174,1.0184,1.0816,1.1472,1.1524,1.1819,1.176,1.1511,1.1788,1.3135,1.4501,1.5848,1.5961,1.717,1.8167,1.8584,1.8886,1.9344,1.8792,1.8024,1.7822,1.8311,1.9534,2.1276,2.2501,2.3775,2.4626,2.4891,2.585,2.6606,2.8079,2.8427,2.993,3.1205,3.1603,3.2115,3.2505,3.2577,3.2366,3.217,3.2312,3.2001,3.1352,3.1234,3.1771,3.2144,3.2759,3.2959,3.4319,3.4622,3.4222,3.3001,3.3888,3.3703,3.3454,3.3826,3.4581,3.5078,3.5371,3.5273,3.4394,3.3535,3.2715,3.1953,3.125,3.082,3.0762,3.0801,3.082,3.0801,3.0781,3.0859,3.0918,3.0918,3.0879,3.0762,3.0605,2.9981,2.9453,2.9479,2.9228,2.7012,2.6499,2.6205,2.6154,2.6168,2.6102,2.5988,2.564,2.5502,2.5575,2.5489,2.5093,2.4133,2.2491,2.1116,2.0079,1.9667,1.8725,1.8228,1.7689,1.7473,0.9035,0.9476,0.9482,0.8913,0.8086,0.827,0.8329,0.8458,0.889,0.9285,0.9603,1.0968,1.1581,1.2012,1.2849,1.3775,1.3897,1.4012,1.4216,1.4137,1.4026,1.4343,1.5543,1.6831,1.7891,1.8124,1.8578,1.927,1.9864,2.0575,2.1276,2.1559,2.1559,2.1414,2.1407,2.2731,2.4126,2.5092,2.5908,2.6831,2.7193,2.8136,2.8898,3.0239,3.051,3.1265,3.2335,3.2805,3.3024,3.336,3.36,3.3759,3.3784,3.3809,3.39,3.3814,3.371,3.3691,3.3433,3.2948,3.277,3.3818,3.4331,3.3544,3.3018,3.3575,3.3581,3.2858,3.3882,3.4889,3.5077,3.5117,3.498,3.4101,3.3457,3.2676,3.1894,3.1191,3.084,3.0605,3.0664,3.0723,3.0781,3.0781,3.0859,3.0918,3.0918,3.0898,3.0801,3.0664,3.0436,2.9954,2.9671,2.9289,2.8743,2.8022,2.7353,2.7029,2.7024,2.6952,2.6811,2.6487,2.6421,2.6686,2.6337,2.5455,2.4856,2.4269,2.2907,2.1403,2.0885,2.0241,1.9558,1.8661,1.8855,1.1363,1.281,1.2757,1.0927,0.8527,0.8942,0.9313,0.9623,1.0822,1.1774,1.2419,1.3417,1.3809,1.4028,1.4723,1.5426,1.5901,1.6108,1.6364,1.6455,1.578,1.625,1.7335,1.8568,1.9107,1.8874,1.9325,2.0016,2.0729,2.1966,2.2946,2.4165,2.4786,2.5242,2.4699,2.5568,2.6857,2.8029,2.8605,2.9389,3.0071,3.0633,3.1151,3.1394,3.1794,3.2441,3.2913,3.335,3.3542,3.3813,3.4054,3.4167,3.4167,3.4167,3.43,3.4494,3.4534,3.4595,3.4572,3.3505,3.3288,3.3465,3.4114,3.3691,3.3238,3.3488,3.3884,3.3299,3.3637,3.3976,3.4147,3.4491,3.4446,3.4212,3.3595,3.2843,3.2091,3.1131,3.0761,3.054,3.0591,3.0644,3.0742,3.0801,3.0879,3.0918,3.0918,3.0879,3.082,3.0742,3.0605,3.0458,3.0059,2.9751,2.9402,2.904,2.8543,2.8164,2.7959,2.7977,2.7897,2.7733,2.7731,2.7837,2.7467,2.6805,2.6725,2.6621,2.4691,2.2745,2.1299,2.0492,1.99,1.9949,2.0514,1.2504,1.3009,1.3009,1.2373,1.1425,1.1603,1.1727,1.1851,1.2358,1.274,1.3226,1.425,1.4887,1.5225,1.6198,1.6948,1.7146,1.719,1.7479,1.7501,1.7053,1.7531,1.8466,1.9352,1.9955,2.0093,2.0484,2.112,2.2024,2.324,2.4326,2.5553,2.7473,2.8184,2.7514,2.7659,2.8233,2.899,2.9567,3.0185,3.0666,3.1342,3.1825,3.1861,3.2298,3.2709,3.3057,3.3442,3.3755,3.3951,3.4162,3.4445,3.4467,3.4486,3.4551,3.4694,3.4714,3.4812,3.4813,3.4373,3.413,3.4148,3.4126,3.4192,3.4147,3.4241,3.4279,3.4261,3.4203,3.4521,3.4889,3.5176,3.5172,3.4939,3.4336,3.3404,3.2521,3.135,3.0641,3.0557,3.0559,3.0692,3.0801,3.084,3.0898,3.0918,3.0918,3.0918,3.0879,3.0859,3.0775,3.0775,3.0551,3.0286,2.9969,2.9611,2.9324,2.896,2.8978,2.9128,2.9024,2.8737,2.8782,2.8764,2.8523,2.825,2.7735,2.7005,2.5653,2.4051,2.2918,2.2453,2.2571,2.2659,2.295,1.3606,1.3846,1.4136,1.4246,1.4136,1.3657,1.3657,1.4136,1.4246,1.4355,1.4866,1.5991,1.649,1.6892,1.7698,1.8394,1.8328,1.834,1.8638,1.8619,1.844,1.9044,1.9724,2.0258,2.1123,2.1502,2.1931,2.2471,2.3789,2.4455,2.6062,2.8136,2.9497,2.9639,2.9388,2.9513,2.9636,3.0126,3.0502,3.0642,3.0925,3.1359,3.188,3.2127,3.25,3.2916,3.3183,3.3488,3.3806,3.3932,3.4186,3.4529,3.4529,3.4529,3.4634,3.4735,3.4851,3.4908,3.4832,3.4907,3.4716,3.4773,3.4772,3.4757,3.4774,3.4702,3.4811,3.4916,3.511,3.5185,3.5288,3.558,3.5411,3.5154,3.4564,3.3632,3.2723,3.1565,3.0848,3.0753,3.0575,3.0723,3.084,3.0879,3.0918,3.0918,3.0918,3.0918,3.0918,3.0898,3.0859,3.0827,3.0767,3.0474,3.0298,3.0196,2.9937,2.9731,2.9748,2.9815,2.9624,2.9265,2.9476,2.9623,2.9248,2.8784,2.8117,2.7214,2.6202,2.5622,2.5153,2.4994,2.5259,2.4863,2.4443,1.4746,1.5517,1.6265,1.6425,1.6255,1.5021,1.5196,1.6425,1.6415,1.68,1.7512,1.8047,1.8359,1.8691,1.9411,1.9773,1.9836,1.9836,2.0042,2.0289,1.9939,2.0636,2.1295,2.1904,2.2512,2.3231,2.3735,2.42,2.5693,2.6977,2.8876,3.0179,3.0336,3.0542,3.068,3.0754,3.0821,3.0965,3.1201,3.1317,3.1507,3.1752,3.2196,3.2565,3.2934,3.3393,3.3723,3.3988,3.4056,3.4104,3.4171,3.4195,3.4195,3.4176,3.4555,3.4832,3.4925,3.4851,3.4832,3.4908,3.5069,3.507,3.4908,3.4945,3.4975,3.4994,3.5066,3.5185,3.5293,3.5339,3.5451,3.5358,3.5245,3.4857,3.4442,3.363,3.281,3.1993,3.1342,3.0981,3.0736,3.0726,3.0798,3.084,3.0918,3.0918,3.0918,3.0918,3.0918,3.0918,3.0859,3.0759,3.0685,3.0568,3.0471,3.0407,3.0278,2.9992,2.9988,3.0003,2.9845,2.9763,2.9845,2.9861,2.9763,2.9288,2.8521,2.778,2.704,2.664,2.63,2.5835,2.5598,2.4973,2.4489,1.6778,1.7024,1.7191,1.7302,1.7246,1.6778,1.6901,1.7246,1.7302,1.7468,1.7633,1.8382,1.8967,1.9465,2.0181,2.067,2.0964,2.1109,2.1,2.1008,2.102,2.1597,2.2522,2.3574,2.4009,2.4232,2.4722,2.5787,2.7056,2.8838,2.9779,3.0344,3.0925,3.1117,3.1213,3.123,3.1411,3.1603,3.186,3.1932,3.2127,3.24,3.2713,3.3014,3.3302,3.3698,3.3858,3.3935,3.3954,3.3954,3.3928,3.3928,3.3928,3.3928,3.4068,3.4141,3.4311,3.447,3.4694,3.4944,3.5138,3.5289,3.5258,3.5304,3.5326,3.5297,3.5301,3.5369,3.5398,3.5446,3.546,3.5383,3.532,3.5074,3.4584,3.391,3.3101,3.2372,3.1698,3.0967,3.0708,3.0781,3.082,3.0859,3.0918,3.0918,3.0918,3.0898,3.0898,3.0879,3.084,3.0723,3.0629,3.0541,3.0515,3.0451,3.0369,3.0273,3.0196,3.0182,3.0109,3.008,3.0155,3.0018,2.9777,2.9363,2.8805,2.812,2.7507,2.7265,2.6933,2.637,2.5803,2.515,2.4465,1.7578,1.7633,1.7907,1.8167,1.8447,1.8501,1.8447,1.8447,1.8178,1.8178,1.8501,1.898,1.9359,1.9761,2.0434,2.0944,2.1237,2.1475,2.1615,2.1764,2.1712,2.2849,2.3983,2.5377,2.591,2.5955,2.626,2.7313,2.8434,2.9597,3.0583,3.1016,3.1452,3.164,3.1768,3.1823,3.1878,3.2004,3.2161,3.235,3.2583,3.2809,3.2952,3.3243,3.3522,3.3652,3.3788,3.3834,3.3834,3.3807,3.3807,3.3807,3.3842,3.3876,3.3876,3.3961,3.4099,3.4292,3.4467,3.4754,3.5053,3.5289,3.5446,3.5474,3.546,3.5435,3.5449,3.5474,3.5474,3.5507,3.5507,3.5474,3.5474,3.5455,3.4839,3.4224,3.348,3.2731,3.1899,3.102,3.0801,3.0879,3.0918,3.0918,3.0918,3.0918,3.0898,3.0859,3.082,3.0781,3.0762,3.0664,3.0606,3.0552,3.0506,3.0467,3.0405,3.0299,3.0182,3.0163,3.0241,3.0142,2.9992,2.9826,2.9672,2.9228,2.8792,2.8456,2.7994,2.7666,2.7186,2.6522,2.5822,2.5128,2.4393,1.7797,1.7907,1.8543,1.9279,1.9836,1.9901,1.994,1.9888,1.9322,1.9294,1.9786,1.994,2.008,2.0521,2.1028,2.1321,2.169,2.201,2.2352,2.2476,2.2265,2.3402,2.5629,2.7211,2.7696,2.8227,2.8576,2.8785,2.9556,3.0435,3.1155,3.1789,3.2074,3.2213,3.2248,3.2282,3.235,3.25,3.24,3.2384,3.2583,3.2681,3.2759,3.3196,3.3361,3.3465,3.3743,3.3842,3.386,3.3868,3.3895,3.3947,3.4012,3.4117,3.4087,3.4087,3.4218,3.4338,3.4492,3.4735,3.4925,3.519,3.5335,3.546,3.5507,3.5507,3.5507,3.5507,3.5507,3.5507,3.5507,3.5507,3.5507,3.5507,3.5199,3.4507,3.3763,3.2949,3.2096,3.1323,3.0937,3.0976,3.0918,3.0918,3.0918,3.0918,3.0859,3.0801,3.0768,3.0714,3.0665,3.0618,3.0569,3.0525,3.0467,3.0417,3.0417,3.0311,3.0182,3.0089,3.0122,2.9943,2.9713,2.9624,2.9514,2.9122,2.8717,2.8442,2.8094,2.7625,2.7092,2.6522,2.5862,2.5173,2.4561,1.9254,1.9307,2.0029,2.0411,2.0579,2.1046,2.1218,2.1232,2.1059,2.0779,2.0683,2.1051,2.1424,2.1738,2.1927,2.2253,2.2741,2.2799,2.3157,2.3287,2.3131,2.4671,2.7158,2.9004,2.9355,2.9032,2.9274,3.0029,3.0558,3.1004,3.1321,3.1752,3.2092,3.2298,3.255,3.2583,3.2681,3.2903,3.284,3.2745,3.2921,3.3284,3.356,3.3634,3.368,3.3778,3.3968,3.4093,3.426,3.442,3.4464,3.4486,3.4486,3.4551,3.4529,3.4508,3.4486,3.4614,3.4774,3.4889,3.5069,3.527,3.5446,3.5474,3.5507,3.5507,3.5507,3.5507,3.5507,3.5507,3.5507,3.5507,3.5507,3.5526,3.5526,3.4776,3.402,3.3169,3.2289,3.1806,3.1284,3.1113,3.1074,3.0976,3.0918,3.0859,3.0781,3.0723,3.0675,3.0629,3.0582,3.0539,3.0537,3.0487,3.0417,3.0379,3.0367,3.0267,3.0109,3.0047,2.9969,2.9746,2.9533,2.9474,2.9316,2.8938,2.864,2.846,2.8094,2.7584,2.7172,2.6622,2.6023,2.5347,2.4839,1.9952,2.0295,2.0646,2.0809,2.0908,2.1424,2.1685,2.178,2.2006,2.196,2.1595,2.1724,2.196,2.2346,2.2543,2.3039,2.3551,2.3831,2.4326,2.4518,2.4498,2.6224,2.832,3.0435,3.0328,3.0046,3.0327,3.0902,3.1213,3.1449,3.1623,3.188,3.2092,3.25,3.2809,3.284,3.2903,3.3166,3.3214,3.3214,3.3273,3.355,3.3788,3.3807,3.3842,3.3961,3.4099,3.4242,3.4401,3.4572,3.4653,3.4653,3.4653,3.4653,3.4674,3.4674,3.4694,3.4832,3.4999,3.5138,3.5223,3.5398,3.5507,3.5507,3.5507,3.5507,3.5507,3.5507,3.5507,3.5507,3.5507,3.5507,3.5507,3.5507,3.5457,3.504,3.426,3.3449,3.2967,3.2713,3.2324,3.209,3.1953,3.166,3.1484,3.082,3.0723,3.0779,3.0729,3.0756,3.0641,3.0506,3.0525,3.0487,3.0398,3.0367,3.0323,3.0196,3.0032,2.9763,2.957,2.9456,2.9334,2.927,2.9082,2.8772,2.8504,2.8298,2.8002,2.7482,2.7141,2.6754,2.6129,2.5496,2.4941,2.0346,2.0894,2.1042,2.1054,2.1138,2.1694,2.1988,2.2076,2.2569,2.283,2.2694,2.2225,2.1979,2.2132,2.2529,2.3084,2.3621,2.4063,2.4942,2.5589,2.4889,2.7203,2.9378,3.1086,3.0935,3.0988,3.1179,3.1235,3.1351,3.1677,3.2004,3.2109,3.2631,3.3214,3.3273,3.3273,3.3332,3.3361,3.3361,3.3332,3.3437,3.3625,3.3753,3.3807,3.3834,3.3961,3.4147,3.4334,3.4464,3.4695,3.4889,3.4908,3.4908,3.4926,3.4908,3.4908,3.4851,3.4963,3.5105,3.5157,3.5289,3.5432,3.546,3.5507,3.5507,3.5507,3.5507,3.5507,3.5507,3.5507,3.5507,3.5507,3.5507,3.5507,3.5412,3.54,3.4662,3.392,3.3711,3.3553,3.3281,3.3027,3.2715,3.2402,3.1934,3.123,3.0941,3.0891,3.0917,3.1025,3.1025,3.0775,3.0621,3.0544,3.0374,3.0311,3.0254,3.0052,2.9829,2.9456,2.9206,2.9185,2.9141,2.9007,2.8803,2.8529,2.8228,2.8002,2.766,2.7317,2.7049,2.6673,2.6144,2.5529,2.5035,2.0966,2.1568,2.2128,2.232,2.2386,2.2947,2.323,2.3243,2.3317,2.3421,2.3391,2.3363,2.3216,2.3216,2.3319,2.3779,2.4318,2.4648,2.5631,2.6559,2.6487,2.8615,3.0356,3.1173,3.1185,3.1291,3.1432,3.166,3.164,3.2074,3.255,3.2809,3.2903,3.335,3.3652,3.3652,3.3625,3.3606,3.3606,3.3625,3.3652,3.3753,3.378,3.3807,3.3807,3.416,3.4442,3.4591,3.4926,3.519,3.5304,3.5289,3.5273,3.5258,3.5239,3.519,3.5124,3.5174,3.5273,3.5223,3.5354,3.5446,3.5507,3.5507,3.5507,3.5507,3.5507,3.5507,3.5507,3.5507,3.5507,3.5507,3.5526,3.5559,3.5528,3.5663,3.5384,3.4853,3.4474,3.4218,3.3926,3.3613,3.3281,3.3066,3.2969,3.2444,3.2235,3.2165,3.2013,3.1763,3.1468,3.1225,3.0956,3.0375,3.0136,3.0182,3.0122,2.9896,2.9696,2.9436,2.9206,2.9044,2.8975,2.8952,2.8658,2.835,2.8057,2.7794,2.7378,2.7051,2.6873,2.6556,2.6068,2.5615,2.5128]},{"header":{"parameterUnit":"m.s-1","parameterCategory":1,"la1":31.0,"la2":29.5877,"lo1":-88.7671,"lo2":-86.6584,"dy":0.0162,"dx":0.0185,"nx":115,"ny":88,"refTime":"2024-09-14T06:00:00:Z","depth":0,"parameterNumber":3,"parameterNumberName":"V-component_of_WINDS"},"data":[0.0,0.0,0.0,0.0,0.0,0.0,0.0,0.0,0.0,0.0,0.0,0.0,0.0,0.0,0.0,0.0,0.0,0.0,0.0,0.0,0.0,0.0,0.0,0.0,0.0,0.0,0.0,0.0,0.0,0.0,0.0,0.0,0.0,0.0,0.0,0.0,0.0,0.0,0.0,0.0,0.0,0.0,0.0,0.0,0.0,0.0,0.0,0.0,0.0,0.0,0.0,0.0,0.0,0.0,0.0,0.0,0.0,0.0,0.0,0.0,0.0,0.0,0.0,0.0,0.0,0.0,0.0,0.0,0.0,0.0,0.0,0.0,0.0,0.0,0.0,0.0,0.0,0.0,0.0,0.0,0.0,0.0,0.0,0.0,0.0,0.0,0.0,0.0,0.0,0.0,0.0,0.0,0.0,0.0,0.0,0.0,0.0,0.0,0.0,0.0,0.0,0.0,0.0,0.0,0.0,0.0,0.0,0.0,0.0,0.0,0.0,0.0,0.0,0.0,0.0,0.0,0.0,0.0,0.0,0.0,0.0,0.0,0.0,0.0,0.0,0.0,0.0,0.0,0.0,0.0,0.0,0.0,0.0,0.0,0.0,0.0,0.0,0.0,0.0,0.0,0.0,0.0,0.0,0.0,0.0,0.0,0.0,0.0,0.0,0.0,0.0,0.0,0.0,0.0,0.0,0.0,0.0,0.0,0.0,0.0,0.0,0.0,0.0,0.0,0.0,0.0,0.0,0.0,0.0,0.0,0.0,0.0,0.0,0.0,0.0,0.0,0.0,0.0,0.0,0.0,0.0,0.0,0.0,0.0,0.0,0.0,0.0,0.0,0.0,0.0,0.0,0.0,0.0,0.0,0.0,0.0,0.0,0.0,0.0,0.0,0.0,0.0,0.0,0.0,0.0,0.0,0.0,0.0,0.0,0.0,0.0,0.0,0.0,0.0,0.0,0.0,0.0,0.0,0.0,0.0,0.0,0.0,0.0,0.0,0.0,0.0,0.0,0.0,0.0,0.0,0.0,0.0,0.0,0.0,0.0,0.0,0.0,0.0,0.0,0.0,0.0,0.0,0.0,0.0,0.0,0.0,0.0,0.0,0.0,0.0,0.0,0.0,0.0,0.0,0.0,0.0,0.0,0.0,0.0,0.0,0.0,0.0,0.0,0.0,0.0,0.0,0.0,0.0,0.0,0.0,0.0,0.0,0.0,0.0,0.0,0.0,0.0,0.0,0.0,0.0,0.0,0.0,0.0,0.0,0.0,0.0,0.0,0.0,0.0,0.0,0.0,0.0,0.0,0.0,0.0,0.0,0.0,0.0,0.0,0.0,0.0,0.0,0.0,0.0,0.0,0.0,0.0,0.0,0.0,0.0,0.0,0.0,0.0,0.0,0.0,0.0,0.0,0.0,0.0,0.0,0.0,0.0,0.0,0.0,0.0,0.0,0.0,0.0,0.0,0.0,0.0,0.0,0.0,0.0,0.0,0.0,0.0,0.0,0.0,0.0,0.0,0.0,0.0,0.0,0.0,0.0,0.0,0.0,0.0,0.0,0.0,0.0,0.0,0.0,0.0,0.0,0.0,0.0,0.0,0.0,0.0,0.0,0.0,0.0,0.0,0.0,0.0,0.0,0.0,0.0,0.0,0.0,0.0,0.0,0.0,0.0,0.0,0.0,0.0,0.0,0.0,0.0,0.0,0.0,0.0,0.0,0.0,0.0,0.0,0.0,0.0,0.0,0.0,0.0,0.0,0.0,0.0,0.0,0.0,0.0,0.0,0.0,0.0,0.0,0.0,0.0,0.0,0.0,0.0,0.0,0.0,0.0,0.0,0.0,0.0,0.0,0.0,0.0,0.0,0.0,0.0,0.0,0.0,0.0,0.0,0.0,0.0,0.0,0.0,0.0,0.0,0.0,0.0,0.0,0.0,0.0,0.0,0.0,0.0,0.0,0.0,0.0,0.0,0.0,0.0,0.0,0.0,0.0,0.0,0.0,0.0,0.0,0.0,0.0,0.0,0.0,0.0,0.0,0.0,0.0,0.0,0.0,0.0,0.0,0.0,0.0,0.0,0.0,0.0,0.0,0.0,0.0,0.0,0.0,0.0,0.0,0.0,0.0,0.0,0.0,0.0,0.0,0.0,0.0,0.0,0.0,0.0,0.0,0.0,0.0,0.0,0.0,0.0,0.0,0.0,0.0,0.0,0.0,0.0,0.0,0.0,0.0,0.0,0.0,0.0,0.0,0.0,0.0,0.0,0.0,0.0,0.0,0.0,0.0,0.0,0.0,0.0,0.0,0.0,0.0,0.0,0.0,0.0,0.0,0.0,0.0,0.0,0.0,0.0,0.0,0.0,0.0,0.0,0.0,0.0,0.0,0.0,0.0,0.0,0.0,0.0,0.0,0.0,0.0,0.0,0.0,0.0,0.0,0.0,0.0,0.0,0.0,0.0,0.0,0.0,0.0,0.0,0.0,0.0,0.0,0.0,0.0,0.0,0.0,0.0,0.0,0.0,0.0,0.0,0.0,0.0,0.0,0.0,0.0,0.0,0.0,0.0,0.0,0.0,0.0,0.0,0.0,0.0,0.0,0.0,0.0,0.0,0.0,0.0,0.0,0.0,0.0,0.0,0.0,0.0,0.0,0.0,0.0,0.0,0.0,0.0,0.0,0.0,0.0,0.0,0.0,0.0,0.0,0.0,0.0,0.0,0.0,0.0,0.0,0.0,0.0,0.0,0.0,0.0,0.0,0.0,0.0,0.0,0.0,0.0,0.0,0.0,0.0,0.0,0.0,0.0,0.0,0.0,0.0,0.0,0.0,0.0,0.0,0.0,0.0,0.0,0.0,0.0,0.0,0.0,0.0,0.0,0.0,0.0,0.0,0.0,0.0,0.0,0.0,0.0,0.0,0.0,0.0,0.0,0.0,0.0,0.0,0.0,0.0,0.0,0.0,0.0,0.0,0.0,0.0,0.0,0.0,0.0,0.0,0.0,0.0,0.0,0.0,0.0,0.0,0.0,0.0,0.0,0.0,0.0,0.0,0.0,0.0,0.0,0.0,0.0,0.0,0.0,0.0,0.0,0.0,0.0,0.0,0.0,0.0,0.0,0.0,0.0,0.0,0.0,0.0,0.0,0.0,0.0,0.0,0.0,0.0,0.0,0.0,0.0,0.0,0.0,0.0,0.0,0.0,0.0,0.0,0.0,0.0,0.0,0.0,0.0,0.0,0.0,0.0,0.0,0.0,0.0,0.0,0.0,0.0,0.0,0.0,0.0,0.0,0.0,0.0,0.0,0.0,0.0,0.0,0.0,0.0,0.0,0.0,0.0,0.0,0.0,0.0,0.0,0.0,0.0,0.0,0.0,0.0,0.0,0.0,0.0,0.0,0.0,0.0,0.0,0.0,0.0,0.0,0.0,0.0,0.0,0.0,0.0,0.0,0.0,0.0,0.0,0.0,0.0,0.0,0.0,0.0,0.0,0.0,0.0,0.0,0.0,0.0,0.0,0.0,0.0,0.0,0.0,0.0,0.0,0.0,0.0,0.0,0.0,0.0,0.0,0.0,0.0,0.0,0.0,0.0,0.0,0.0,0.0,0.0,0.0,0.0,0.0,0.0,0.0,0.0,0.0,0.0,0.0,0.0,0.0,0.0,0.0,0.0,0.0,0.0,0.0,0.0,0.0,0.0,0.0,0.0,0.0,0.0,0.0,0.0,0.0,0.0,0.0,0.0,0.0,0.0,0.0,0.0,0.0,0.0,0.0,0.0,0.0,0.0,0.0,0.0,0.0,0.0,0.0,0.0,0.0,0.0,0.0,0.0,0.0,0.0,0.0,0.0,0.0,0.0,0.0,0.0,0.0,0.0,0.0,0.0,0.0,0.0,0.0,0.0,0.0,0.0,0.0,0.0,0.0,0.0,0.0,0.0,0.0,0.0,0.0,0.0,0.0,0.0,0.0,0.0,0.0,0.0,0.0,0.0,0.0,0.0,0.0,0.0,0.0,0.0,0.0,0.0,0.0,0.0,0.0,0.0,0.0,0.0,0.0,0.0,0.0,0.0,0.0,0.0,0.0,0.0,0.0,0.0,0.0,0.0,0.0,0.0,0.0,0.0,0.0,0.0,0.0,0.0,0.0,0.0,0.0,0.0,0.0,0.0,0.0,0.0,0.0,0.0,0.0,0.0,0.0,0.0,0.0,0.0,0.0,0.0,0.0,0.0,0.0,0.0,0.0,0.0,0.0,0.0,0.0,0.0,0.0,0.0,0.0,0.0,0.0,0.0,1.8898,0.0,0.0,0.0,0.0,0.0,0.0,0.0,0.0,0.0,0.0,0.0,0.0,0.0,0.0,0.0,0.0,0.0,0.0,0.0,0.0,0.0,0.0,0.0,0.0,0.0,0.0,0.0,0.0,0.0,0.0,0.0,0.0,0.0,0.0,0.0,0.0,0.0,0.0,0.0,0.0,0.0,0.0,0.0,0.0,0.0,0.0,0.0,0.0,0.0,0.0,0.0,0.0,0.0,0.0,0.0,0.0,0.0,0.0,0.0,0.0,0.0,0.0,0.0,0.0,0.0,0.0,0.0,0.0,0.0,0.0,0.0,0.0,0.0,0.0,0.0,0.0,0.0,0.0,0.0,0.0,0.0,0.0,0.0,0.0,0.0,0.0,0.0,0.0,0.0,0.0,0.0,0.0,0.0,0.0,0.0,0.0,0.0,0.0,0.0,0.0,0.0,0.0,0.0,0.0,0.0,0.0,0.0,0.0,0.0,0.0,2.0004,2.0601,2.1039,2.0319,1.8377,0.0,0.0,0.0,0.0,0.0,0.0,0.0,0.0,0.0,0.0,0.0,0.0,0.0,0.0,0.0,0.0,0.0,0.0,0.0,0.0,0.0,0.0,0.0,0.0,0.0,0.0,0.0,0.0,0.0,0.0,0.0,0.0,0.0,0.0,0.0,0.0,0.0,0.0,0.0,0.0,0.0,0.0,0.0,0.0,0.0,0.0,0.0,0.0,0.0,0.0,0.0,0.0,0.0,0.0,0.0,0.0,0.0,0.0,0.0,0.0,0.0,0.0,0.0,0.0,0.0,0.0,0.0,0.0,0.0,0.0,0.0,0.0,0.0,0.0,0.0,0.0,0.0,0.0,0.0,0.0,0.0,0.0,0.0,0.0,0.0,0.0,0.0,0.0,0.0,0.0,0.0,0.0,0.0,0.0,0.0,0.0,0.0,0.0,0.0,0.0,0.0,0.0,0.0,0.0,0.0,0.0,0.0,0.0,0.0,0.0,0.0,0.0,2.1117,2.0352,1.818,0.0,0.0,0.0,0.0,0.0,0.0,0.0,0.0,0.0,0.0,0.0,0.0,0.0,0.0,0.0,0.0,0.0,0.0,0.0,0.0,0.0,0.0,0.0,0.0,0.0,0.0,0.0,0.0,0.0,0.0,0.0,0.0,0.0,0.0,0.0,0.0,0.0,0.0,0.0,0.0,0.0,0.0,0.0,0.0,0.0,0.0,0.0,0.0,0.0,0.0,0.0,0.0,0.0,0.0,0.0,0.0,0.0,0.0,0.0,0.0,0.0,0.0,0.0,0.0,0.0,0.0,0.0,0.0,0.0,0.0,0.0,0.0,0.0,0.0,0.0,0.0,0.0,0.0,0.0,0.0,0.0,0.0,0.0,0.0,0.0,0.0,0.0,0.0,0.0,0.0,0.0,0.0,0.0,0.0,0.0,0.0,0.0,0.0,0.0,0.0,0.0,0.0,0.0,0.0,0.0,0.0,0.0,0.0,0.0,0.0,2.0277,2.1804,2.2216,0.0,1.9355,0.0,0.0,0.0,0.0,0.0,0.0,0.0,0.0,0.0,0.0,0.0,0.0,0.0,0.0,0.0,0.0,0.0,0.0,0.0,0.0,0.0,0.0,0.0,0.0,0.0,0.0,0.0,0.0,0.0,0.0,0.0,0.0,0.0,0.0,0.0,0.0,0.0,0.0,0.0,0.0,0.0,0.0,0.0,0.0,0.0,0.0,0.0,0.0,0.0,0.0,0.0,0.0,0.0,0.0,0.0,0.0,0.0,0.0,0.0,0.0,0.0,0.0,0.0,0.0,0.0,0.0,0.0,0.0,0.0,0.0,0.0,0.0,0.0,0.0,0.0,0.0,0.0,0.0,0.0,0.0,0.0,0.0,0.0,0.0,0.0,0.0,0.0,0.0,0.0,0.0,0.0,0.0,0.0,0.0,0.0,0.0,0.0,0.0,0.0,0.0,0.0,0.0,0.0,0.0,0.0,0.0,0.0,0.0,0.0,0.0,2.0665,2.1744,2.1308,2.0558,0.0,0.0,0.0,0.0,0.0,0.0,0.0,0.0,0.0,0.0,0.0,0.0,0.0,0.0,0.0,0.0,0.0,0.0,0.0,0.0,0.0,0.0,0.0,0.0,0.0,0.0,0.0,0.0,0.0,0.0,0.0,0.0,0.0,0.0,0.0,0.0,0.0,0.0,0.0,0.0,0.0,0.0,0.0,0.0,0.0,0.0,0.0,0.0,0.0,0.0,0.0,0.0,0.0,0.0,0.0,0.0,0.0,0.0,0.0,0.0,0.0,0.0,0.0,0.0,0.0,0.0,0.0,0.0,0.0,0.0,0.0,0.0,0.0,0.0,0.0,0.0,0.0,0.0,0.0,0.0,0.0,0.0,0.0,0.0,0.0,0.0,0.0,0.0,0.0,0.0,0.0,0.0,0.0,0.0,0.0,0.0,0.0,0.0,0.0,0.0,0.0,0.0,0.0,0.0,0.0,0.0,0.0,0.0,0.0,0.0,2.0085,2.1118,2.1782,2.1213,2.0226,1.8921,0.0,0.0,0.0,0.0,0.0,0.0,0.0,0.0,0.0,0.0,0.0,0.0,0.0,0.0,0.0,0.0,0.0,0.0,0.0,0.0,0.0,0.0,0.0,0.0,0.0,0.0,0.0,0.0,0.0,0.0,0.0,0.0,0.0,0.0,0.0,0.0,0.0,0.0,0.0,0.0,0.0,0.0,0.0,0.0,0.0,0.0,0.0,0.0,0.0,0.0,0.0,0.0,0.0,0.0,0.0,0.0,0.0,0.0,0.0,0.0,0.0,0.0,0.0,0.0,0.0,0.0,0.0,0.0,0.0,0.0,0.0,0.0,0.0,0.0,0.0,0.0,0.0,0.0,0.0,0.0,0.0,0.0,0.0,0.0,0.0,0.0,0.0,0.0,0.0,0.0,0.0,0.0,0.0,0.0,0.0,0.0,0.0,0.0,0.0,0.0,0.0,0.0,0.0,0.0,0.0,0.0,0.0,0.0,2.067,2.1026,2.1613,2.2554,2.276,2.1142,0.0,0.0,0.0,0.0,0.0,0.0,0.0,0.0,0.0,0.0,0.0,0.0,0.0,0.0,0.0,0.0,0.0,0.0,0.0,0.0,0.0,0.0,0.0,0.0,0.0,0.0,0.0,0.0,0.0,0.0,0.0,0.0,0.0,0.0,0.0,0.0,0.0,0.0,0.0,0.0,0.0,0.0,0.0,0.0,0.0,0.0,0.0,0.0,0.0,0.0,0.0,0.0,0.0,0.0,0.0,0.0,0.0,0.0,0.0,0.0,0.0,0.0,0.0,0.0,0.0,0.0,0.0,0.0,0.0,0.0,0.0,0.0,0.0,0.0,0.0,0.0,0.0,0.0,0.0,0.0,0.0,0.0,0.0,0.0,0.0,0.0,0.0,0.0,0.0,0.0,0.0,0.0,0.0,0.0,0.0,0.0,0.0,0.0,0.0,0.0,0.0,0.0,0.0,0.0,0.0,0.0,0.0,0.0,0.0,1.8643,2.0483,2.2443,2.4374,2.2962,2.1238,0.0,0.0,0.0,0.0,0.0,0.0,0.0,0.0,0.0,0.0,0.0,0.0,0.0,0.0,0.0,0.0,0.0,0.0,0.0,0.0,0.0,0.0,0.0,0.0,0.0,0.0,0.0,0.0,0.0,0.0,0.0,0.0,0.0,0.0,0.0,0.0,0.0,0.0,0.0,0.0,0.0,0.0,0.0,0.0,0.0,0.0,0.0,0.0,0.0,0.0,0.0,0.0,0.0,0.0,0.0,0.0,0.0,0.0,0.0,0.0,0.0,0.0,0.0,0.0,0.0,0.0,0.0,0.0,0.0,0.0,0.0,0.0,0.0,0.0,0.0,0.0,0.0,0.0,0.0,0.0,0.0,0.0,0.0,0.0,0.0,0.0,0.0,0.0,0.0,0.0,0.0,0.0,0.0,0.0,0.0,0.0,0.0,0.0,0.0,0.0,0.0,0.0,0.0,0.0,0.0,0.0,0.0,0.0,0.0,1.9216,0.0,2.3789,2.4858,2.3335,2.1392,0.0,0.0,0.0,0.0,0.0,0.0,0.0,0.0,0.0,0.0,0.0,0.0,0.0,0.0,0.0,0.0,0.0,0.0,0.0,0.0,0.0,0.0,0.0,0.0,0.0,0.0,0.0,0.0,0.0,0.0,0.0,0.0,0.0,0.0,0.0,0.0,0.0,0.0,0.0,0.0,0.0,0.0,0.0,0.0,0.0,0.0,0.0,0.0,0.0,0.0,0.0,0.0,0.0,0.0,0.0,0.0,0.0,0.0,0.0,0.0,0.0,0.0,0.0,0.0,0.0,0.0,0.0,0.0,0.0,0.0,0.0,0.0,0.0,0.0,0.0,0.0,0.0,0.0,0.0,0.0,0.0,0.0,0.0,0.0,0.0,0.0,0.0,0.0,0.0,0.0,0.0,0.0,0.0,0.0,0.0,0.0,0.0,0.0,0.0,0.0,0.0,0.0,0.0,0.0,0.0,0.0,0.0,0.0,1.9246,2.299,2.5184,2.5518,2.3968,2.3991,2.1621,0.0,0.0,0.0,0.0,0.0,0.0,0.0,0.0,0.0,0.0,0.0,0.0,0.0,0.0,0.0,0.0,0.0,0.0,0.0,0.0,0.0,0.0,0.0,0.0,0.0,0.0,0.0,0.0,0.0,0.0,0.0,0.0,0.0,0.0,0.0,0.0,0.0,0.0,0.0,0.0,0.0,0.0,0.0,0.0,0.0,0.0,0.0,0.0,0.0,0.0,0.0,0.0,0.0,0.0,0.0,0.0,0.0,0.0,0.0,0.0,0.0,0.0,0.0,0.0,0.0,0.0,0.0,0.0,0.0,0.0,0.0,0.0,0.0,0.0,0.0,0.0,0.0,0.0,0.0,0.0,0.0,0.0,0.0,0.0,0.0,0.0,0.0,0.0,0.0,0.0,0.0,0.0,0.0,0.0,0.0,0.0,0.0,0.0,0.0,0.0,0.0,0.0,0.0,0.0,0.0,0.0,0.0,0.0,0.0,2.2705,2.4284,2.5557,2.6321,2.4586,2.2667,0.0,0.0,0.0,0.0,0.0,0.0,0.0,0.0,0.0,0.0,0.0,0.0,0.0,0.0,0.0,0.0,0.0,0.0,0.0,0.0,0.0,0.0,0.0,0.0,0.0,0.0,0.0,0.0,0.0,0.0,0.0,0.0,0.0,0.0,0.0,0.0,0.0,0.0,0.0,0.0,0.0,0.0,0.0,0.0,0.0,0.0,0.0,0.0,0.0,0.0,0.0,0.0,0.0,0.0,0.0,0.0,0.0,0.0,0.0,0.0,0.0,0.0,0.0,0.0,0.0,0.0,0.0,0.0,0.0,0.0,0.0,0.0,0.0,0.0,0.0,0.0,0.0,0.0,0.0,0.0,0.0,0.0,0.0,0.0,0.0,0.0,0.0,0.0,0.0,0.0,0.0,0.0,0.0,0.0,0.0,0.0,0.0,0.0,0.0,0.0,0.0,0.0,0.0,0.0,0.0,0.0,0.0,0.0,0.0,2.3525,2.5014,2.6169,2.6998,2.5008,2.3166,2.1607,0.0,0.0,0.0,0.0,0.0,0.0,0.0,0.0,0.0,0.0,0.0,0.0,0.0,0.0,0.0,0.0,0.0,0.0,0.0,0.0,0.0,0.0,0.0,0.0,0.0,0.0,0.0,0.0,0.0,0.0,0.0,0.0,0.0,0.0,0.0,0.0,0.0,0.0,0.0,0.0,0.0,0.0,0.0,0.0,0.0,0.0,0.0,0.0,0.0,0.0,0.0,0.0,0.0,0.0,0.0,0.0,0.0,0.0,0.0,0.0,0.0,0.0,0.0,0.0,0.0,0.0,0.0,0.0,0.0,0.0,0.0,0.0,0.0,0.0,0.0,0.0,0.0,0.0,0.0,0.0,0.0,0.0,0.0,0.0,0.0,0.0,0.0,0.0,0.0,0.0,0.0,0.0,0.0,0.0,0.0,0.0,0.0,0.0,0.0,0.0,0.0,0.0,0.0,0.0,0.0,0.0,0.0,0.0,2.4992,2.6719,2.7031,2.6054,2.5238,2.3311,0.0,0.0,0.0,0.0,0.0,0.0,0.0,0.0,0.0,0.0,0.0,0.0,0.0,0.0,0.0,0.0,0.0,0.0,0.0,0.0,0.0,0.0,0.0,0.0,0.0,0.0,0.0,0.0,0.0,0.0,0.0,0.0,0.0,0.0,0.0,0.0,0.0,0.0,0.0,0.0,0.0,0.0,0.0,0.0,0.0,0.0,0.0,0.0,0.0,0.0,0.0,0.0,0.0,0.0,0.0,0.0,0.0,0.0,0.0,0.0,0.0,0.0,0.0,0.0,0.0,0.0,0.0,0.0,0.0,0.0,0.0,0.0,0.0,0.0,0.0,0.0,0.0,0.0,0.0,0.0,0.0,0.0,0.0,0.0,0.0,0.0,0.0,0.0,0.0,0.0,0.0,0.0,0.0,0.0,0.0,0.0,0.0,0.0,0.0,0.0,0.0,0.0,0.0,0.0,0.0,0.0,0.0,0.0,0.0,2.2917,2.2887,2.3877,2.5961,2.5393,2.369,0.0,0.0,0.0,0.0,0.0,0.0,0.0,0.0,0.0,0.0,0.0,0.0,0.0,0.0,0.0,0.0,0.0,0.0,0.0,0.0,0.0,0.0,0.0,0.0,0.0,0.0,0.0,0.0,0.0,0.0,0.0,0.0,0.0,0.0,0.0,0.0,0.0,0.0,0.0,0.0,0.0,0.0,0.0,0.0,0.0,0.0,0.0,0.0,0.0,0.0,0.0,0.0,0.0,0.0,0.0,0.0,0.0,0.0,0.0,0.0,0.0,0.0,0.0,0.0,0.0,0.0,0.0,0.0,0.0,0.0,0.0,0.0,0.0,0.0,0.0,0.0,0.0,0.0,0.0,0.0,0.0,0.0,0.0,0.0,0.0,0.0,0.0,0.0,0.0,0.0,0.0,0.0,0.0,0.0,0.0,0.0,0.0,0.0,0.0,0.0,0.0,0.0,0.0,0.0,0.0,0.0,0.0,0.0,2.0297,2.0942,2.0655,2.0815,2.1473,2.1755,2.1216,0.0,0.0,0.0,0.0,0.0,0.0,0.0,0.0,0.0,0.0,0.0,0.0,0.0,0.0,0.0,0.0,0.0,0.0,0.0,0.0,0.0,0.0,0.0,0.0,0.0,0.0,0.0,0.0,0.0,0.0,0.0,0.0,0.0,0.0,0.0,0.0,0.0,0.0,0.0,0.0,0.0,0.0,0.0,0.0,0.0,0.0,0.0,0.0,0.0,0.0,0.0,0.0,0.0,0.0,0.0,0.0,0.0,0.0,0.0,0.0,0.0,0.0,0.0,0.0,0.0,0.0,0.0,0.0,0.0,0.0,0.0,0.0,0.0,0.0,0.0,0.0,0.0,0.0,0.0,0.0,0.0,0.0,0.0,0.0,0.0,0.0,0.0,0.0,0.0,0.0,0.0,0.0,0.0,0.0,0.0,0.0,0.0,0.0,0.0,0.0,0.0,0.0,0.0,0.0,0.0,0.0,0.0,0.0,1.8248,1.8309,1.8577,1.7367,1.4722,1.6376,1.7335,0.0,0.0,0.0,0.0,0.0,0.0,0.0,0.0,0.0,0.0,0.0,0.0,0.0,0.0,0.0,0.0,0.0,0.0,0.0,0.0,0.0,0.0,0.0,0.0,0.0,0.0,0.0,0.0,0.0,0.0,0.0,0.0,0.0,0.0,0.0,0.0,0.0,0.0,0.0,0.0,0.0,0.0,0.0,0.0,0.0,0.0,0.0,0.0,0.0,0.0,0.0,0.0,0.0,0.0,0.0,0.0,0.0,0.0,0.0,0.0,0.0,0.0,0.0,0.0,0.0,0.0,0.0,0.0,0.0,0.0,0.0,0.0,0.0,0.0,0.0,0.0,0.0,0.0,0.0,0.0,0.0,0.0,0.0,0.0,0.0,0.0,0.0,0.0,0.0,0.0,0.0,0.0,0.0,0.0,0.0,0.0,0.0,0.0,0.0,0.0,0.0,0.0,0.0,0.0,0.0,0.0,0.0,0.0,1.2901,1.2573,1.2024,1.1478,1.0805,1.4696,1.5724,0.0,0.0,0.0,0.0,0.0,0.0,0.0,0.0,0.0,0.0,0.0,0.0,0.0,0.0,0.0,0.0,0.0,0.0,0.0,0.0,0.0,0.0,0.0,0.0,0.0,0.0,0.0,0.0,0.0,0.0,0.0,0.0,0.0,0.0,0.0,0.0,0.0,0.0,0.0,0.0,0.0,0.0,0.0,0.0,0.0,0.0,0.0,0.0,1.231,0.0,0.0,0.0,0.0,0.0,0.0,0.0,0.0,0.0,0.0,0.0,0.0,0.0,0.0,0.0,0.0,0.0,0.0,0.0,0.0,0.0,0.0,0.0,0.0,0.0,0.0,0.0,0.0,0.0,0.0,0.0,0.0,0.0,0.0,0.0,0.0,0.0,0.0,0.0,0.0,0.0,0.0,0.0,0.0,0.0,0.0,0.0,0.0,0.0,0.0,0.0,0.0,0.0,0.0,0.0,0.0,0.0,0.0,0.0,0.9555,0.8757,0.8327,0.7759,0.7246,0.9547,1.072,0.0,0.0,0.0,0.0,0.0,0.0,0.0,0.0,0.0,0.0,0.0,0.0,0.0,0.0,0.0,0.0,0.0,0.0,0.0,0.0,0.0,0.0,0.0,0.0,0.0,0.0,0.0,0.0,0.0,0.0,0.0,0.0,0.0,0.0,0.0,0.0,0.0,0.0,0.0,0.0,0.0,0.0,0.0,0.0,0.0,0.0,0.0,0.0,0.0,0.0,0.0,0.0,0.0,0.0,0.0,0.0,0.0,0.0,0.0,0.0,0.0,0.0,0.0,0.0,0.0,0.0,0.0,0.0,0.0,0.0,0.0,0.0,0.0,0.0,0.0,0.0,0.0,0.0,0.0,0.0,0.0,0.0,0.0,0.0,0.0,0.0,0.0,0.0,0.0,0.0,0.0,0.0,0.0,0.0,0.0,0.0,0.0,0.0,0.0,0.0,0.0,0.0,0.0,0.0,0.0,0.0,0.0,0.7661,0.6784,0.5628,0.5479,0.4858,0.3715,0.3553,0.4669,0.7186,0.0,0.0,0.0,0.0,0.0,0.0,0.0,0.0,0.0,0.0,0.0,0.0,0.0,0.0,0.0,0.0,0.0,0.0,0.0,0.0,0.0,0.0,0.0,0.0,0.0,0.0,0.0,0.0,0.0,0.0,0.0,0.0,0.0,0.0,0.0,0.0,0.0,0.0,1.631,1.5165,0.0,0.0,0.0,0.0,0.0,0.0,0.0,0.0,0.7915,0.0,0.0,0.0,0.0,0.0,0.0,0.0,0.0,0.0,0.0,0.0,0.0,0.0,0.0,0.0,0.0,0.0,0.0,0.0,0.0,0.0,0.0,0.0,0.0,0.0,0.0,0.0,0.0,0.0,0.0,0.0,0.0,0.0,0.0,0.0,0.0,0.0,0.0,0.0,0.0,0.0,0.0,0.0,0.0,0.0,0.0,0.0,0.0,0.0,0.0,0.0,0.0,0.0,0.0,0.0,0.0,0.5353,0.3802,0.27,0.1978,0.1371,0.0933,0.0716,0.011,0.0533,0.2084,0.0,0.0,0.0,0.0,0.0,0.0,0.0,0.0,0.0,0.0,0.0,0.0,0.0,0.0,0.0,0.0,0.0,0.0,0.0,0.0,0.0,0.0,0.0,0.0,0.0,0.0,0.0,0.0,0.0,0.0,0.0,0.0,0.0,0.0,0.0,0.0,0.0,0.0,0.0,1.3057,1.2295,0.0,0.0,0.0,0.0,0.0,0.0,0.0,0.0,0.4889,0.0,0.0,0.0,0.0,0.0,0.0,0.0,0.0,0.0,0.0,0.0,0.0,0.0,0.0,0.0,0.0,0.0,0.0,0.0,0.0,0.0,0.0,0.0,0.0,0.0,0.0,0.0,0.0,0.0,0.0,0.0,0.0,0.0,0.0,0.0,0.0,0.0,0.0,0.0,0.0,0.0,0.0,0.0,0.0,0.0,0.0,0.0,0.0,0.0,0.0,0.0,0.0,0.0,0.0,0.0,0.2887,0.139,0.0259,-0.0369,-0.0737,-0.0947,-0.0948,-0.1578,-0.1489,0.0,0.0,0.0,0.0,0.0,0.0,0.0,0.0,0.0,0.0,0.0,0.0,0.0,0.0,0.0,0.0,0.0,0.0,0.0,0.0,0.0,0.0,0.0,0.0,0.0,0.0,0.0,0.0,0.0,0.0,0.0,0.0,0.0,0.0,0.0,0.0,0.0,0.0,0.0,0.0,1.1272,1.0093,0.8921,0.0,0.0,0.0,0.0,0.0,0.0,0.461,0.3848,0.0,0.0,0.0,0.0,0.0,0.0,0.0,0.0,0.0,0.0,0.0,0.0,0.0,0.0,0.0,0.0,0.0,0.0,0.0,0.0,0.0,0.0,0.0,0.0,0.0,0.0,0.0,0.0,0.0,0.0,0.0,0.0,0.0,0.0,0.0,0.0,0.0,0.0,0.0,0.0,0.0,0.0,0.0,0.0,0.0,0.0,0.0,0.0,0.0,0.0,0.0,0.0,0.0,0.0,0.0,0.1091,-0.0287,-0.1351,-0.2009,-0.2161,-0.2261,-0.2263,-0.2707,-0.2647,0.0,0.0,0.0,0.0,0.0,0.0,0.0,0.0,0.0,0.0,0.0,0.0,0.0,0.0,0.0,0.0,0.0,0.0,0.0,0.0,0.0,0.0,0.0,0.0,0.0,0.0,0.0,0.0,0.0,0.0,0.0,0.0,0.0,0.0,0.0,0.0,0.0,0.0,0.0,0.0,0.0,0.8089,0.6814,0.6229,0.0,0.0,0.0,0.0,0.4014,0.3246,0.0,0.0,0.0,0.0,0.0,0.0,0.0,0.0,0.0,0.0,0.0,0.0,0.0,0.0,0.0,0.0,0.0,0.0,0.0,0.0,0.0,0.0,0.0,0.0,0.0,0.0,0.0,0.0,0.0,0.0,0.0,0.0,0.0,0.0,0.0,0.0,0.0,0.0,0.0,0.0,0.0,0.0,0.0,0.0,0.0,0.0,0.0,0.0,0.0,0.0,0.0,0.0,0.0,0.0,0.0,0.0,0.0503,-0.1178,-0.2251,-0.2763,-0.3415,-0.377,-0.3767,-0.3817,-0.3447,0.0,0.0,0.0,0.0,0.0,0.0,0.0,0.0,0.0,0.0,0.0,0.0,0.0,0.0,0.0,0.0,0.0,0.0,0.0,0.0,0.0,0.0,0.0,0.0,0.0,0.0,0.0,0.0,0.0,0.0,0.0,0.0,0.0,0.0,0.0,0.0,0.0,0.0,0.0,0.0,0.0,0.6796,0.662,0.5679,0.4847,0.0,0.0,0.216,0.064,-0.0383,0.0,0.0,0.0,0.0,0.0,0.0,0.0,0.0,0.0,0.0,0.0,0.0,0.0,0.0,0.0,0.0,0.0,0.0,0.0,0.0,0.0,0.0,0.0,0.0,0.0,0.0,0.0,0.0,0.0,0.0,0.0,0.0,0.0,0.0,0.0,0.0,0.0,0.0,0.0,0.0,0.0,0.0,0.0,0.0,0.0,0.0,0.0,0.0,0.0,0.0,0.0,0.0,0.0,0.0,0.0,0.0,-0.0375,-0.2074,-0.3102,-0.3298,-0.3628,-0.3904,-0.4218,-0.4541,-0.4373,0.0,0.0,0.0,0.0,0.0,0.0,0.0,0.0,0.0,0.0,0.0,0.0,0.0,0.0,0.0,0.0,0.0,0.0,0.0,0.0,0.0,0.0,0.0,0.0,0.0,0.0,0.0,0.0,0.0,0.0,0.0,0.0,0.0,0.0,0.0,0.0,0.0,0.0,0.0,0.0,0.0,0.0,0.4489,0.3969,0.0,0.0,0.0,0.1304,0.0065,0.0,0.0,0.0,0.0,0.0,0.0,0.0,0.0,0.0,0.0,0.0,0.0,0.0,0.0,0.0,0.0,0.0,0.0,0.0,0.0,0.0,0.0,0.0,0.0,0.0,0.0,0.0,0.0,0.0,0.0,0.0,0.0,0.0,0.0,0.0,0.0,0.0,0.0,0.0,0.0,0.0,0.0,0.0,0.0,0.0,0.0,0.0,0.0,0.0,0.0,0.0,0.0,0.0,0.0,0.0,0.0,0.0,-0.1558,-0.3274,-0.4141,-0.4016,-0.4016,-0.4224,-0.4609,-0.5043,0.0,0.0,0.0,0.0,0.0,0.0,0.0,0.0,0.0,0.0,0.0,0.0,0.0,0.0,0.0,0.0,0.0,0.0,0.0,0.0,0.0,0.0,0.0,0.0,0.0,0.0,0.0,0.4125,0.0,0.0,0.0,0.0,0.0,0.0,0.0,0.0,0.0,0.0,0.0,0.0,0.0,0.0,0.4515,0.2244,0.1779,0.0833,0.0,0.0,0.0,-0.0863,-0.2333,-0.3017,0.0,0.0,0.0,0.0,0.0,0.0,0.0,0.0,0.0,0.0,0.0,0.0,0.0,0.0,0.0,0.0,0.0,0.0,0.0,0.0,0.0,0.0,0.0,0.0,0.0,0.0,0.0,0.0,0.0,0.0,0.0,0.0,0.0,0.0,0.0,0.0,0.0,0.0,0.0,0.0,0.0,0.0,0.0,0.0,0.0,0.0,0.0,0.0,0.0,0.0,0.0,0.0,0.0,0.0,-0.2688,-0.319,-0.4907,-0.5582,-0.5193,-0.5178,-0.5216,-0.526,-0.5265,-0.4897,0.0,0.0,0.0,0.0,0.0,0.0,0.0,0.0,0.0,0.0,0.0,0.0,0.0,0.0,0.0,0.0,0.0,0.0,0.0,0.0,0.0,0.0,0.0,0.0,0.0,0.0,0.0,0.0,0.0,0.0,0.0,0.0,0.0,0.0,0.0,0.0,0.0,0.0,0.0,0.0,0.0,0.2986,0.053,-0.0694,-0.1629,0.0,-0.2533,-0.2729,-0.3609,-0.455,-0.4863,-0.3784,0.0,0.0,0.0,0.0,0.0,0.0,0.0,0.0,0.0,0.0,0.0,0.0,0.0,0.0,0.0,0.0,0.0,0.0,0.0,0.0,0.0,0.0,0.0,0.0,0.0,0.0,0.0,0.0,0.0,0.0,0.0,0.0,0.0,0.0,0.0,0.0,0.0,0.0,0.0,0.0,0.0,0.0,0.0,0.0,0.0,0.0,0.0,0.0,0.0,0.0,0.0,0.0,0.0,-0.3341,-0.3309,-0.4935,-0.5728,-0.5555,-0.5374,-0.5548,-0.6097,-0.5957,-0.5627,0.0,0.0,0.0,0.0,0.0,0.0,0.0,0.0,0.0,0.0,0.0,0.0,0.0,0.0,0.0,0.0,0.0,0.0,0.0,0.0,0.0,0.0,0.0,0.0,0.0,0.0,0.0,0.0,0.3624,0.4301,0.5218,0.0,0.0,0.0,0.0,0.0,0.0,0.0,0.0,0.0,0.0,0.0572,-0.0815,-0.1334,0.0,0.0,-0.34,-0.3195,-0.4616,-0.4688,-0.4561,-0.4571,-0.4165,0.0,0.0,0.0,0.0,0.0,0.0,0.0,0.0,0.0,0.0,0.0,0.0,0.0,0.0,0.0,0.0,0.0,0.0,0.0,0.0,0.0,0.0,0.0,0.0,0.0,0.0,0.0,0.0,0.0,0.0,0.0,0.0,0.0,0.0,0.0,0.0,0.0,0.0,0.0,0.0,0.0,0.0,0.0,0.0,0.0,0.0,0.0,0.0,0.0,0.0,0.0,0.0,-0.3942,-0.3844,-0.5525,-0.627,-0.6074,-0.5908,-0.6159,-0.6814,-0.6693,-0.6465,0.0,0.0,0.0,0.0,0.0,0.0,0.0,0.0,0.0,0.0,0.0,0.0,0.0,0.0,0.0,0.0,0.0,0.0,0.0,0.0,0.0,0.0,0.0,0.0,0.0,0.0,0.0,0.0,0.3112,0.4014,0.5131,0.0,0.0,0.0,0.0,0.0,0.0,0.0,0.0,0.0,0.0,-0.1382,-0.2631,-0.2617,-0.3052,-0.4724,-0.3939,-0.3533,-0.4818,-0.4688,-0.4641,-0.5339,0.0,0.0,0.0,0.0,0.0,0.0,0.0,0.0,0.0,0.0,0.0,0.0,0.0,0.0,0.0,0.0,0.0,0.0,0.0,0.0,0.0,0.0,0.0,0.0,0.0,0.0,0.0,0.1851,0.0,0.0,0.2812,0.0,0.0,0.0,0.0,0.0,0.0,0.0,0.0,0.0,0.0,0.0,0.0,0.0,0.0,0.0,0.0,0.0,0.0,0.0,0.0,0.0,0.0,-0.4613,-0.5055,-0.6814,-0.7544,-0.6989,-0.6985,-0.7118,-0.7462,-0.7462,-0.7263,-0.6789,0.0,0.0,0.0,0.0,0.0,0.0,0.0,0.0,0.0,0.0,0.0,0.0,0.0,0.0,0.0,0.0,0.0,0.0,0.0,0.0,0.0,0.0,0.0,0.0,0.0,0.0,0.3049,0.4097,0.4629,0.0,0.0,0.0,0.0,0.0,0.0,0.0,0.0,0.0,0.0,-0.1309,-0.2913,-0.5123,-0.485,-0.4333,-0.4113,-0.4015,-0.4013,-0.4082,-0.4821,-0.557,0.0,0.0,0.0,0.0,0.0,0.0,0.0,0.0,0.0,0.0,0.0,0.0,0.0,0.0,0.0,0.0,0.0,0.0,0.0,0.0,0.0,0.0,0.0,0.0,0.0,0.0,0.0,0.1281,0.1276,0.0,0.0,0.0,0.0,0.0,0.0,0.0,0.0,0.0,0.0,0.0,-0.125,-0.2627,0.0,0.0,0.0,0.0,0.0,0.0,0.0,0.0,0.0,0.0,0.0,0.0,-0.4521,-0.5392,-0.6533,-0.7292,-0.7576,-0.7228,-0.7261,-0.7756,-0.7575,-0.7282,-0.682,0.0,0.0,0.0,0.0,0.0,0.0,0.0,0.0,0.0,0.0,0.0,0.0,0.0,0.0,0.0,0.0,0.0,0.0,0.0,0.0,0.0,0.0,0.0,0.0,0.0,0.0688,0.0,0.0,0.0,0.0,0.0,0.0,0.0,0.0,0.0,0.0,0.0,-0.0426,-0.1935,-0.3601,-0.493,-0.5554,-0.5418,-0.5168,0.0,0.0,0.0,0.0,0.0,0.0,0.0,0.0,0.0,0.0,0.0,0.0,0.0,0.0,-0.9547,-0.9568,-0.908,-0.8739,-0.8728,0.0,0.0,0.0,0.0,0.0,0.0,0.0,0.0,0.0,0.0,0.0,0.0,0.0,0.0,0.0651,0.0,0.1309,0.0,0.0,0.0,0.0,0.0,0.0,0.0,0.0,-0.3193,-0.3812,-0.2789,-0.3913,-0.4168,0.0,-0.4038,-0.3532,0.0,0.0,0.0,0.0,0.0,0.0,0.0,0.0,-0.4576,-0.5489,-0.6335,-0.7037,-0.7563,-0.7328,-0.7415,-0.7862,-0.7936,-0.7788,-0.7355,-0.7348,-0.7018,0.0,0.0,0.0,0.0,0.0,0.0,0.0,0.0,0.0,0.0,0.0,0.0,0.0,0.0,0.0,0.0,0.0,0.0,0.0,0.0,0.0,0.0,0.0,-0.0445,0.0,0.0,0.0,0.0,0.0,0.0,0.0,0.0,0.0,0.2651,-0.0289,-0.2819,-0.3558,-0.5052,-0.602,-0.5776,0.0,0.0,0.0,0.0,0.0,0.0,0.0,-0.6811,-0.848,-0.776,-0.7359,-0.8506,-0.9309,-1.0078,-1.1093,0.0,0.0,-1.1019,-1.0429,-0.9903,-0.9907,-1.0091,-1.0168,-1.0111,-0.9906,-0.9893,0.0,0.0,0.0,0.0,0.0,0.0,0.0,0.0,0.0,0.0,0.0,0.059,0.0,0.0,0.0,0.0,0.0,0.1309,0.0,0.0,-0.2885,-0.373,-0.5219,-0.5352,-0.5359,-0.5428,-0.5352,-0.4941,-0.4083,-0.416,0.0,0.0,0.0,0.0,0.0,0.0,-0.4735,-0.5506,-0.6345,-0.6846,-0.7036,-0.7341,-0.7635,-0.7902,-0.849,-0.8657,-0.8397,-0.8377,-0.8002,-0.7152,-0.6428,0.0,0.0,0.0,0.0,0.0,0.0,0.0,0.0,0.0,0.0,0.0,0.0,0.0,0.0,0.0,0.0,0.0,0.0,0.0,0.0,-0.252,0.0,0.0,0.0,0.0,0.0,0.0,0.0,0.0,0.0,0.0,0.0579,-0.1623,-0.3707,-0.4575,0.0,0.0,0.0,0.0,-0.4788,-0.5477,-0.548,-0.5778,-0.6612,-0.7414,-0.8355,-0.9221,0.0,0.0,-0.9414,-1.0053,-1.0604,-1.062,-1.1253,-1.2012,-1.274,-1.1256,-1.0174,-1.0778,-1.0562,-1.0424,-1.0797,-1.0915,-1.1101,0.0,0.0,0.0,0.0,0.0,0.0,0.0,0.0,0.0,0.0,0.0,-0.0502,0.0,0.0,0.0,0.0,0.0,0.0,-0.1925,-0.2838,-0.4066,-0.4553,-0.4417,-0.509,-0.5428,-0.5428,-0.5428,-0.5272,-0.5019,-0.4889,-0.4244,-0.303,0.0,0.0,0.0,0.0,-0.4182,-0.5329,-0.6016,-0.6635,-0.72,-0.7573,-0.7943,-0.8243,-0.8611,-0.8771,-0.8691,-0.8684,-0.8423,-0.7878,-0.7366,0.0,0.0,0.0,0.0,0.0,0.0,0.0,0.0,0.0,0.0,0.0,0.0,0.0,0.0,0.0,0.0,0.0,0.0,0.0,-0.3062,-0.3169,-0.315,0.0,0.0,0.0,0.0,0.0,0.0,0.0,0.0,0.0,-0.2223,-0.402,-0.5199,0.0,0.0,-0.562,-0.4674,-0.5423,-0.6119,-0.6332,-0.74,0.0,-0.8468,-0.8737,-0.9327,-1.0373,-1.0536,-1.0725,-1.1281,-1.093,-1.0989,-1.2004,-1.1531,-1.117,-1.1965,-1.215,-1.1981,-1.1919,-1.2018,-1.2108,-1.1883,-1.1696,-1.1585,0.0,0.0,0.0,0.0,0.0,0.0,0.0,0.0,0.0,0.0,0.0,-0.0917,-0.1289,-0.1379,-0.2253,0.0,0.0,0.0,-0.3091,-0.3816,-0.4897,-0.5096,-0.4619,-0.516,-0.5428,-0.5428,-0.5428,-0.5428,-0.5428,-0.5267,-0.4675,-0.3546,0.0,0.0,-0.3699,-0.3773,-0.4234,-0.5172,-0.5578,-0.6049,-0.6679,-0.7333,-0.7791,-0.8114,-0.8554,-0.8804,-0.8804,-0.8804,-0.8671,-0.8446,-0.8032,-0.7565,0.0,0.0,0.0,0.0,0.0,0.0,0.0,0.0,0.0,0.0,0.0,-0.5443,-0.2889,0.0,0.0,0.0,-0.5084,-0.546,-0.5606,-0.5938,0.0,0.0,0.0,0.0,0.0,0.0,0.0,-0.2077,-0.3644,-0.4617,-0.45,-0.557,-0.6036,-0.5327,-0.5918,-0.6101,-0.5414,0.0,-0.7428,-0.7753,-0.8674,-0.9402,-0.9728,-0.9849,-1.0034,-1.0724,-1.0828,-1.1009,-1.1432,-1.0973,-1.1003,-1.1663,-1.1233,-1.0744,-1.1226,-1.1725,-1.2009,-1.1811,-1.2092,-1.2205,-1.1812,-1.1603,-1.1439,0.0,0.0,0.0,0.0,0.0,0.0,0.0,0.0,0.0,0.0,0.0,-0.0939,-0.1388,-0.1551,-0.2447,0.0,-0.4057,-0.33,-0.3806,-0.5428,-0.5428,-0.5428,-0.5428,-0.5428,-0.5428,-0.5428,-0.5428,-0.5428,-0.5428,-0.5425,-0.5287,-0.5145,-0.4853,-0.4704,-0.4684,-0.4591,-0.466,-0.5036,-0.5084,-0.5357,-0.5878,-0.684,-0.7436,-0.7717,-0.8427,-0.8804,-0.8804,-0.8804,-0.8818,-0.8844,-0.8465,-0.8094,-0.7641,0.0,0.0,0.0,0.0,0.0,0.0,0.0,0.0,0.0,0.0,0.0,0.0,0.0,0.0,0.0,-0.863,0.0,-1.0037,-0.9532,0.0,0.0,0.0,-0.374,-0.363,-0.3693,-0.4046,-0.4921,0.0,0.0,-0.6274,-0.6261,-0.6261,-0.6261,-0.6859,-0.7237,-0.7147,-0.7743,-0.8606,-0.9241,-0.9415,-0.9658,-1.0364,-1.0498,-1.0498,-1.0581,-1.0618,-1.0638,-1.0638,-1.0631,-1.0624,-1.0681,-1.0618,-1.0618,-1.0618,-1.0681,-1.0648,-1.096,-1.1202,-1.1236,-1.1055,-1.0987,-1.0958,0.0,0.0,0.0,0.0,0.0,0.0,0.0,0.0,0.0,0.0,0.0,-0.094,-0.2068,-0.3381,-0.3579,-0.4175,-0.5042,-0.4869,-0.502,-0.5362,-0.5428,-0.5428,-0.5428,-0.5428,-0.5428,-0.5428,-0.5428,-0.5428,-0.5428,-0.5428,-0.5345,-0.5294,-0.5009,-0.4806,-0.4691,-0.4594,-0.4553,-0.4624,-0.5159,-0.5726,-0.638,-0.7172,-0.7611,-0.7717,-0.8421,-0.8804,-0.8804,-0.8804,-0.8911,-0.9064,-0.8829,-0.867,-0.8802,-0.7868,0.0,0.0,0.0,0.0,0.0,0.0,0.0,0.0,0.0,-0.7958,-0.6882,0.0,-0.6737,0.0,-1.0129,-1.0827,-0.9586,-0.9552,0.0,0.0,-0.6133,-0.5038,-0.571,-0.4953,-0.4838,-0.5864,-0.621,-0.6298,-0.6268,-0.6261,-0.6261,-0.6331,-0.6763,-0.6869,-0.6088,-0.7736,-0.9097,-0.9356,-0.9893,-1.0364,-1.0561,-1.0618,-1.0618,-1.0618,-1.0618,-1.0618,-1.0618,-1.0618,-1.0618,-1.0618,-1.0618,-1.0618,-1.0618,-1.0618,-1.0581,-1.0712,-1.0786,-1.0755,-1.0739,-1.0661,-1.0648,0.0,0.0,0.0,0.0,0.0,0.0,0.0,0.0,0.0,0.0,0.0,-0.094,-0.2075,-0.3413,-0.3413,-0.3882,-0.4758,-0.5233,-0.5432,-0.5428,-0.5428,-0.5428,-0.5428,-0.5428,-0.5428,-0.5428,-0.5428,-0.5428,-0.5428,-0.5428,-0.5428,-0.5422,-0.5064,-0.4877,-0.4789,-0.4575,-0.4463,-0.4519,-0.4842,-0.5258,-0.5785,-0.6844,-0.723,-0.6894,-0.8398,-0.8902,-0.8328,-0.8764,-0.8849,-0.8536,-0.8517,-0.8574,-0.8719,-0.8276,-0.8082,0.0,0.0,0.0,0.0,0.0,0.0,0.0,0.0,0.0,0.0,0.0,-0.8554,-0.8961,-1.101,-1.1787,-1.0534,-1.1058,-1.0824,-0.9288,-0.8053,-0.7134,-0.6544,-0.5918,-0.5714,-0.6352,-0.6434,-0.6329,-0.6271,-0.6261,-0.623,-0.6166,-0.7041,-0.7447,-0.7099,-0.8623,-0.9849,-0.9913,-1.0301,-1.0618,-1.0618,-1.0618,-1.0618,-1.0618,-1.0618,-1.0618,-1.0618,-1.0618,-1.0618,-1.0618,-1.0618,-1.0618,-1.0618,-1.0618,-1.0618,-1.0618,-1.0618,-1.0618,-1.0618,-1.0618,-1.0618,0.0,0.0,0.0,0.0,0.0,0.0,0.0,0.0,0.0,0.0,0.0,-0.0806,-0.1676,-0.2544,-0.2544,-0.3011,-0.3882,-0.497,-0.5372,-0.5226,-0.5359,-0.5428,-0.5428,-0.5428,-0.5428,-0.5428,-0.5428,-0.5428,-0.5428,-0.5428,-0.5418,-0.5321,-0.5057,-0.4908,-0.488,-0.4623,-0.4536,-0.4519,-0.4536,-0.4555,-0.4745,-0.6257,-0.6783,-0.6156,-0.834,-0.9097,-0.7961,-0.8715,-0.879,-0.7961,-0.825,-0.8389,-0.8395,-0.8601,-0.8862,0.0,-0.8776,0.0,0.0,0.0,0.0,0.0,0.0,0.0,0.0,-0.9119,-1.0722,-0.9656,-1.1589,-1.2726,-1.2172,-1.3027,-1.2745,-1.0513,-1.0222,-0.9223,-0.6809,-0.6458,-0.6444,-0.6444,-0.6444,-0.6476,-0.6281,-0.6247,-0.6176,-0.6122,-0.7377,-0.82,-0.8458,-0.9544,-1.0555,-1.0618,-1.0618,-1.0618,-1.0618,-1.0618,-1.0618,-1.0618,-1.0618,-1.0618,-1.0618,-1.0618,-1.0618,-1.0618,-1.0618,-1.0618,-1.0618,-1.0618,-1.0618,-1.0618,-1.0618,-1.0618,-1.0618,-1.0618,-1.0618,0.0,0.0,0.0,0.0,0.0,0.0,0.0,0.0,0.0,0.0,0.0,-0.0202,-0.0739,-0.1541,-0.1541,-0.2075,-0.3011,-0.4631,-0.4967,-0.4284,-0.5024,-0.5428,-0.5428,-0.5428,-0.5428,-0.5428,-0.5428,-0.5428,-0.5428,-0.5428,-0.5294,-0.5172,-0.5003,-0.4857,-0.4738,0.0,0.0,0.0,-0.4582,-0.466,-0.4752,-0.6379,-0.717,-0.7047,-0.8486,0.0,-0.8938,-0.9095,-0.9108,-0.8951,-0.9212,0.0,0.0,0.0,0.0,0.0,0.0,0.0,0.0,0.0,0.0,0.0,-1.2262,-1.1818,-1.0904,-1.1999,-1.2318,-1.1252,-1.2561,-1.3413,-1.331,-1.3738,-1.3027,-1.0653,-1.0223,-0.9223,-0.6885,-0.6373,-0.6298,-0.6379,-0.6302,-0.6295,-0.6261,-0.6152,-0.6064,-0.6091,-0.7274,-0.8171,-0.822,-0.9587,-1.0561,-1.0618,-1.0618,-1.0618,-1.0618,-1.0618,-1.0618,-1.0618,-1.0618,-1.0618,-1.0618,-1.0618,-1.0618,-1.0618,-1.0618,-1.0618,-1.0618,-1.0618,-1.0618,-1.0618,-1.0618,-1.0618,-1.0618,-1.0618,-1.0618,0.0,0.0,0.0,0.0,0.0,0.0,0.0,0.0,0.0,0.0,0.0,0.0,-0.0269,-0.0672,-0.0672,-0.1141,-0.2009,-0.2542,-0.2945,-0.3413,-0.4761,-0.5166,-0.4755,-0.516,-0.5428,-0.5428,-0.5428,-0.5428,-0.5428,-0.5428,-0.5321,-0.5243,-0.5098,-0.4986,-0.4908,-0.484,-0.4765,-0.4687,-0.4765,-0.5072,-0.5566,-0.6796,-0.7512,-0.7572,-0.9034,0.0,0.0,0.0,0.0,0.0,0.0,0.0,0.0,0.0,0.0,-0.9602,-0.9925,-1.0184,-1.0264,-1.0941,-1.1855,-1.29,-1.3585,-1.3539,-1.2646,-1.3244,-1.3271,-1.242,-1.3139,-1.3647,-1.3647,-1.3654,-1.2701,-1.0384,-1.0013,-0.8993,-0.686,-0.6308,-0.6261,-0.6261,-0.6261,-0.6261,-0.6261,-0.6125,-0.6003,-0.5995,-0.6842,-0.7716,-0.8149,-0.9538,-1.0561,-1.0618,-1.0618,-1.0618,-1.0618,-1.0618,-1.0618,-1.0618,-1.0618,-1.0618,-1.0618,-1.0618,-1.0618,-1.0618,-1.0618,-1.0618,-1.0618,-1.0618,-1.0618,-1.0618,-1.0618,-1.0618,-1.0618,-1.0618,-1.0618,0.0,0.0,0.0,0.0,0.0,0.0,0.0,0.0,0.0,0.0,0.0,0.0,0.0,0.0,0.0,-0.0404,-0.1006,-0.0335,-0.087,-0.2477,-0.3818,-0.4289,-0.4015,-0.4821,-0.5226,-0.5428,-0.5428,-0.5428,-0.5428,-0.5428,-0.5411,-0.5311,-0.5192,-0.5068,-0.5125,-0.5016,-0.4969,-0.4996,-0.4969,-0.5319,-0.6195,-0.7033,-0.7549,-0.7549,-0.916,-0.9556,-0.8462,-0.9367,-0.9506,-0.8687,-0.8842,-0.9023,-0.9235,-0.9254,-0.9668,-1.0534,-1.0618,-1.0681,-1.0969,-1.1673,-1.2365,-1.3094,-1.406,-1.4232,-1.3106,-1.3506,-1.3601,-1.3206,-1.3427,-1.3567,-1.3486,-1.3353,-1.2365,-1.0199,-0.9781,-0.8838,-0.6898,-0.6416,-0.6261,-0.6261,-0.6261,-0.6247,-0.6213,-0.6078,-0.5935,-0.5854,-0.6448,-0.7176,-0.8007,-0.953,-1.0618,-1.0618,-1.0618,-1.0618,-1.0618,-1.0618,-1.0618,-1.0618,-1.0618,-1.0618,-1.0618,-1.0618,-1.0618,-1.0618,-1.0618,-1.0618,-1.0618,-1.0618,-1.0618,-1.0618,-1.0618,-1.0618,-1.0618,-1.0618,-1.0618,0.0,0.0,0.0,0.0,0.0,0.0,0.0,0.0,0.0,0.0,0.0,0.0,0.0,0.0,0.0,-0.0067,-0.0202,-0.0067,-0.0536,-0.1473,-0.1002,-0.1935,-0.3946,-0.4148,-0.4619,-0.5359,-0.5362,-0.5428,-0.5428,-0.5362,-0.5294,-0.5179,-0.5142,-0.5071,-0.5065,-0.5111,-0.5165,-0.5291,-0.5169,-0.5171,-0.5255,-0.6278,-0.6872,-0.6867,-0.7565,-0.7897,-0.7711,-0.8533,-0.8906,-0.881,-0.9786,-1.0329,-1.0362,-1.0362,-1.0451,-1.0555,-1.0618,-1.0688,-1.0982,-1.1357,-1.1749,-1.239,-1.2586,-1.2695,-1.2832,-1.2636,-1.2744,-1.3166,-1.3247,-1.3273,-1.3267,-1.322,-1.2569,-1.1146,-1.0167,-0.9145,-0.7654,-0.6795,-0.6261,-0.6261,-0.6261,-0.6207,-0.6084,-0.5939,-0.5796,-0.578,-0.6312,-0.7016,-0.7907,-0.9518,-1.0491,-1.0618,-1.0618,-1.0618,-1.0618,-1.0618,-1.0618,-1.0618,-1.0618,-1.0618,-1.0618,-1.0618,-1.0618,-1.0618,-1.0618,-1.0618,-1.0618,-1.0618,-1.0618,-1.0618,-1.0618,-1.0618,-1.0618,-1.0618,-1.0618,0.1477,0.1477,0.1476,0.1477,0.1409,0.094,0.0403,0.0,0.0,0.0,0.0,0.0,0.0,0.0,0.0,0.0,0.0,0.0,-0.0202,-0.0538,-0.0201,-0.0936,-0.2476,-0.308,-0.3478,-0.3949,-0.3949,-0.4151,-0.4619,-0.4619,-0.4857,-0.526,-0.5254,-0.5257,-0.5257,-0.5257,-0.5291,-0.5425,-0.5291,-0.551,-0.5952,-0.6481,-0.6915,-0.7372,-0.7663,-0.7746,-0.7805,-0.8122,-0.8375,-0.8375,-0.933,-0.9919,-0.9919,-1.0364,-1.0618,-1.0618,-1.0618,-1.0752,-1.0975,-1.141,-1.1844,-1.2265,-1.2305,-1.2358,-1.2492,-1.2391,-1.2459,-1.2939,-1.2959,-1.2959,-1.2953,-1.2819,-1.2272,-1.1059,-1.0056,-0.9024,-0.7953,-0.6949,-0.6335,-0.6261,-0.6261,-0.62,-0.6051,-0.5898,-0.5752,-0.5676,-0.625,-0.685,-0.7242,-0.835,-0.939,-0.9849,-1.0301,-1.0555,-1.0561,-1.0618,-1.0618,-1.0618,-1.0618,-1.0618,-1.0618,-1.0618,-1.0618,-1.0618,-1.0618,-1.0618,-1.0618,-1.0618,-1.0618,-1.0618,-1.0618,-1.0618,-1.0618,-1.0618,-1.0618,0.2678,0.2678,0.2678,0.2678,0.2611,0.1941,0.1208,0.0605,0.0,0.0605,0.0538,0.0202,0.0,0.0,0.0,0.0,0.0,0.0,0.0,0.0,0.0,-0.0469,-0.134,-0.2076,-0.2476,-0.2678,-0.2678,-0.3078,-0.3682,-0.3882,-0.4486,-0.5296,-0.5428,-0.5428,-0.5428,-0.5428,-0.5428,-0.5428,-0.5428,-0.5752,-0.6396,-0.6396,-0.6724,-0.7312,-0.7377,-0.7442,-0.7442,-0.7572,-0.7697,-0.7762,-0.8748,-0.9332,-0.9332,-1.011,-1.0618,-1.0618,-1.0618,-1.0715,-1.1076,-1.1503,-1.1924,-1.2278,-1.2305,-1.2305,-1.2318,-1.2335,-1.2391,-1.2645,-1.2645,-1.2645,-1.2625,-1.2227,-1.1613,-1.0864,-0.9669,-0.8623,-0.7859,-0.6868,-0.6261,-0.6261,-0.6261,-0.6193,-0.601,-0.5874,-0.5728,-0.5693,-0.6089,-0.6404,-0.6461,-0.7177,-0.7962,-0.8613,-0.946,-0.9977,-1.0238,-1.0308,-1.0364,-1.0491,-1.0618,-1.0618,-1.0618,-1.0618,-1.0618,-1.0618,-1.0618,-1.0618,-1.0618,-1.0618,-1.0618,-1.0618,-1.0618,-1.0618,-1.0618,-1.0618,-1.0618,0.2744,0.2678,0.2744,0.2678,0.2744,0.2611,0.2477,0.241,0.2477,0.2477,0.221,0.074,0.0,0.0,0.0,0.0,0.0,0.0,0.0,0.0,0.0,-0.0471,-0.1207,-0.1407,-0.1874,-0.2544,-0.2611,-0.2676,-0.2945,-0.368,-0.4483,-0.5292,-0.5428,-0.5428,-0.5428,-0.5428,-0.5428,-0.5428,-0.5428,-0.5428,-0.5491,-0.5491,-0.5557,-0.5624,-0.569,-0.5624,-0.5752,-0.64,-0.6785,-0.6915,-0.8355,-0.9268,-0.9396,-1.011,-1.0618,-1.0555,-1.0561,-1.0802,-1.1316,-1.1436,-1.1717,-1.2231,-1.2311,-1.2305,-1.2231,-1.2251,-1.2264,-1.2358,-1.2351,-1.2371,-1.2264,-1.1558,-1.0938,-1.0634,-0.9135,-0.7859,-0.7706,-0.6868,-0.6261,-0.6261,-0.6261,-0.6156,-0.5901,-0.5796,-0.5674,-0.544,-0.5582,-0.5686,-0.5752,-0.6268,-0.685,-0.7111,-0.7697,-0.8549,-0.9204,-0.9466,-0.9786,-1.0364,-1.0561,-1.0491,-1.0428,-1.0428,-1.0555,-1.0104,-1.0358,-1.0295,-1.0364,-1.0555,-1.0498,-1.0238,-1.0301,-1.0561,-1.0555,-1.0498,-1.0498,0.4284,0.4284,0.4284,0.3949,0.348,0.348,0.3213,0.2678,0.2678,0.2678,0.2611,0.1878,0.1276,0.0739,0.0269,0.0,0.0,0.0,0.0,0.0,0.0,-0.0202,-0.0471,-0.0538,-0.074,-0.1142,-0.1609,-0.2143,-0.2878,-0.4151,-0.5024,-0.5359,-0.5428,-0.5428,-0.5428,-0.5428,-0.5428,-0.5428,-0.5428,-0.5428,-0.5428,-0.5428,-0.5428,-0.5428,-0.5428,-0.5428,-0.5425,-0.5749,-0.5947,-0.6009,-0.7107,-0.8016,-0.8484,-0.9354,-0.9863,-0.9843,-0.9856,-1.0288,-1.1315,-1.143,-1.139,-1.1434,-1.1968,-1.2055,-1.1471,-1.1968,-1.2284,-1.2311,-1.2305,-1.2077,-1.1539,-1.1013,-1.0565,-0.989,-0.8613,-0.7783,-0.7783,-0.6872,-0.6261,-0.6261,-0.6257,-0.6142,-0.5854,-0.5647,-0.5504,-0.5446,-0.5428,-0.5428,-0.5428,-0.5686,-0.5881,-0.5943,-0.6272,-0.7055,-0.8226,-0.9005,-0.9396,-0.9722,-0.9856,-0.9856,-0.9786,-0.9326,-0.9064,-0.9128,-0.9192,-0.9192,-0.9,-0.9064,-0.9064,-0.9198,-0.9594,-0.9856,-0.9856,-0.9856,-0.9856,0.5951,0.5749,0.5495,0.5024,0.4417,0.4417,0.4015,0.3544,0.3673,0.3806,0.3737,0.354,0.3072,0.2272,0.1276,0.074,0.0673,0.0202,0.0269,0.0673,0.074,0.074,0.074,0.0471,0.0337,0.0202,-0.0538,-0.1408,-0.241,-0.388,-0.4755,-0.5024,-0.5296,-0.5428,-0.5428,-0.5428,-0.5428,-0.5428,-0.5428,-0.5428,-0.5428,-0.5428,-0.5428,-0.5428,-0.5428,-0.5428,-0.5428,-0.5428,-0.5428,-0.5425,-0.6461,-0.7367,-0.7957,-0.9018,-0.966,-0.9652,-0.9658,-1.0158,-1.1315,-1.143,-1.132,-1.1236,-1.1484,-1.1409,-1.1409,-1.19,-1.2291,-1.2318,-1.2305,-1.1922,-1.1013,-1.0335,-0.9664,-0.8917,-0.8008,-0.7403,-0.733,-0.6718,-0.6261,-0.6261,-0.6261,-0.6146,-0.5844,-0.5566,-0.5502,-0.5756,-0.5557,-0.5686,-0.5881,-0.5818,-0.5557,-0.5947,-0.5818,-0.6013,-0.7377,-0.8027,-0.8549,-0.8941,-0.8941,-0.8947,-0.8941,-0.8355,-0.8027,-0.8479,-0.8156,-0.8091,-0.835,-0.8221,-0.8091,-0.8156,-0.8549,-0.9139,-0.9402,-0.9338,-0.9338,0.7377,0.6593,0.5749,0.5425,0.5359,0.5355,0.5362,0.5282,0.6063,0.6453,0.6252,0.5592,0.5127,0.4923,0.3405,0.2542,0.2277,0.0869,0.1003,0.2344,0.2479,0.2544,0.2477,0.1674,0.1207,0.1208,0.0336,-0.0537,-0.1473,-0.241,-0.3278,-0.4018,-0.4821,-0.5292,-0.5226,-0.5226,-0.5359,-0.5226,-0.5292,-0.5359,-0.5359,-0.5359,-0.5428,-0.5428,-0.5428,-0.5428,-0.5428,-0.5428,-0.5428,-0.5428,-0.6951,-0.7932,-0.8161,-0.9582,-1.0421,-1.0491,-1.0498,-1.075,-1.1261,-1.143,-1.1537,-1.1872,-1.0763,-1.0268,-1.1761,-1.217,-1.2325,-1.2305,-1.2231,-1.1768,-1.0714,-0.9508,-0.8385,-0.8012,-0.7099,-0.6567,-0.6412,-0.6412,-0.6338,-0.6257,-0.6234,-0.6098,-0.583,-0.5614,-0.5848,-0.6203,-0.5943,-0.5947,-0.7055,-0.6404,-0.6141,-0.6854,-0.6531,-0.5752,-0.6588,-0.7372,-0.7572,-0.7832,-0.8156,-0.8091,-0.8027,-0.8027,-0.7957,-0.7957,-0.7957,-0.7957,-0.7957,-0.8027,-0.8027,-0.8091,-0.8221,-0.8613,-0.921,-0.9274,-0.9332,0.7832,0.7502,0.7181,0.685,0.6572,0.6915,0.6846,0.6567,0.7233,0.7507,0.7502,0.7167,0.7037,0.6967,0.5785,0.4334,0.2744,0.2409,0.2476,0.2746,0.3082,0.3084,0.2683,0.2344,0.2211,0.2079,0.1272,0.0067,-0.1269,-0.2272,-0.2878,-0.3145,-0.348,-0.368,-0.368,-0.368,-0.368,-0.3747,-0.4217,-0.4486,-0.4553,-0.509,-0.5428,-0.5428,-0.5428,-0.5428,-0.5428,-0.5428,-0.5686,-0.6203,-0.6898,-0.769,-0.8753,-0.9396,-1.0047,-1.0498,-1.0047,-1.0223,-1.1255,-1.143,-1.139,-1.1316,-1.131,-1.1143,-1.1403,-1.1893,-1.2284,-1.2244,-1.1694,-1.0944,-1.0121,-0.9739,-0.921,-0.8008,-0.7476,-0.6945,-0.649,-0.6261,-0.6261,-0.623,-0.6108,-0.5911,-0.594,-0.6014,-0.6342,-0.6588,-0.6396,-0.6789,-0.7377,-0.6531,-0.6013,-0.7251,-0.6601,-0.5885,-0.7372,-0.7572,-0.7637,-0.7437,-0.7432,-0.7437,-0.7437,-0.7177,-0.7111,-0.7177,-0.7372,-0.7762,-0.7697,-0.7827,-0.7827,-0.8027,-0.8156,-0.842,-0.921,-0.9274,-0.9332,0.9215,0.9151,0.8639,0.8115,0.7698,0.7872,0.7887,0.7742,0.8215,0.8415,0.842,0.842,0.842,0.8291,0.7497,0.6248,0.4463,0.4281,0.3954,0.3616,0.402,0.3956,0.3553,0.3282,0.3147,0.3013,0.2204,0.0999,-0.04,-0.1403,-0.1939,-0.221,-0.2544,-0.2678,-0.2678,-0.2678,-0.2678,-0.2811,-0.3278,-0.3613,-0.368,-0.4217,-0.4688,-0.4888,-0.4957,-0.5093,-0.5359,-0.5428,-0.562,-0.6207,-0.6548,-0.7456,-0.9116,-0.9661,-1.0109,-1.0573,-1.0269,-1.0438,-1.1339,-1.1563,-1.1494,-1.1341,-1.1819,-1.1981,-1.1403,-1.19,-1.2203,-1.209,-1.1391,-1.049,-1.0045,-1.0121,-0.9513,-0.7783,-0.7326,-0.7022,-0.6412,-0.6261,-0.6261,-0.622,-0.6003,-0.5837,-0.5834,-0.6335,-0.663,-0.6719,-0.6719,-0.7046,-0.7567,-0.6597,-0.6013,-0.7442,-0.647,-0.6207,-0.6915,-0.7242,-0.7242,-0.7111,-0.6724,-0.6719,-0.6719,-0.6461,-0.6461,-0.6461,-0.6719,-0.7177,-0.7437,-0.7567,-0.7762,-0.7962,-0.7897,-0.7897,-0.8613,-0.9268,-0.9466,1.1628,1.1374,0.9932,0.9093,0.8753,0.8564,0.8495,0.8894,0.928,0.9524,0.9518,0.9396,0.9588,0.9262,0.8597,0.7952,0.7558,0.6199,0.5422,0.5355,0.5289,0.5223,0.5093,0.435,0.401,0.3941,0.3143,0.2209,0.1338,0.0468,-0.0334,-0.1205,-0.1941,-0.2142,-0.2544,-0.2344,-0.2544,-0.2544,-0.2544,-0.2676,-0.2678,-0.2878,-0.3347,-0.4015,-0.4082,-0.455,-0.5359,-0.5428,-0.5495,-0.562,-0.6306,-0.75,-0.9198,-1.0257,-1.0982,-1.0963,-1.1175,-1.1467,-1.1797,-1.1766,-1.1801,-1.2098,-1.2305,-1.2238,-1.2157,-1.2083,-1.2077,-1.1996,-1.1242,-1.0634,-1.034,-0.9739,-0.8613,-0.6795,-0.6641,-0.6563,-0.6335,-0.6261,-0.6261,-0.622,-0.5993,-0.5817,-0.5951,-0.6351,-0.6671,-0.6719,-0.6719,-0.6981,-0.7637,-0.6535,-0.6338,-0.7181,-0.6662,-0.6013,-0.64,-0.6719,-0.6719,-0.6654,-0.6203,-0.6009,-0.6009,-0.5877,-0.6137,-0.6268,-0.6662,-0.7051,-0.7437,-0.7567,-0.7637,-0.7767,-0.7572,-0.7762,-0.8613,-0.9402,-0.9786,1.2602,1.2541,1.2043,1.1069,1.0226,1.1043,1.0975,1.0197,1.1281,1.1567,1.1219,1.163,1.1809,1.1509,1.0355,0.973,0.9539,0.8011,0.699,0.6531,0.5785,0.5467,0.5355,0.509,0.4957,0.4815,0.4013,0.3478,0.3011,0.2272,0.1672,0.1338,0.0468,0.0067,-0.0067,-0.0537,-0.0874,-0.0941,-0.1475,-0.1742,-0.1808,-0.2344,-0.3078,-0.388,-0.4013,-0.4417,-0.5292,-0.5428,-0.5686,-0.6203,-0.6548,-0.7555,-0.9331,-1.046,-1.1022,-1.1202,-1.0666,-1.0842,-1.1669,-1.1299,-1.1335,-1.2004,-1.2305,-1.2305,-1.215,-1.1446,-1.1075,-1.1162,-1.034,-0.9518,-0.8836,-0.8461,-0.7931,-0.7403,-0.7326,-0.6945,-0.6412,-0.6261,-0.6261,-0.63,-0.5989,-0.582,-0.5891,-0.6351,-0.6666,-0.6654,-0.6654,-0.7046,-0.7442,-0.6404,-0.6145,-0.7442,-0.6404,-0.5818,-0.64,-0.6531,-0.6203,-0.633,-0.6075,-0.5686,-0.5554,-0.562,-0.5877,-0.6203,-0.6531,-0.692,-0.7307,-0.7502,-0.7572,-0.7702,-0.7762,-0.8285,-0.9069,-0.953,-0.9786,1.4681,1.4632,1.41,1.328,1.2421,1.2926,1.2834,1.2474,1.3079,1.3108,1.281,1.3172,1.3415,1.3158,1.1981,1.1487,1.1238,0.9737,0.877,0.8222,0.6959,0.64,0.6378,0.635,0.6338,0.6207,0.5404,0.4806,0.4408,0.3611,0.3011,0.2609,0.2076,0.1808,0.1742,0.094,0.0605,0.0739,-0.0201,-0.0671,-0.0603,-0.1206,-0.2144,-0.2878,-0.3011,-0.3478,-0.435,-0.4686,-0.5282,-0.6075,-0.6494,-0.7559,-0.9105,-1.0411,-1.1465,-1.1799,-1.1453,-1.1449,-1.2685,-1.1288,-1.0674,-1.179,-1.1613,-1.1174,-1.1019,-1.0248,-1.0099,-1.0034,-0.9372,-0.8466,-0.7936,-0.7403,-0.7249,-0.7253,-0.7176,-0.6945,-0.6412,-0.6261,-0.6261,-0.62,-0.5989,-0.584,-0.5884,-0.6291,-0.6474,-0.6334,-0.6527,-0.6593,-0.6854,-0.6079,-0.647,-0.6666,-0.6079,-0.6013,-0.6601,-0.6338,-0.5752,-0.5881,-0.6009,-0.5686,-0.5491,-0.562,-0.5815,-0.6009,-0.6334,-0.6724,-0.7107,-0.7177,-0.7307,-0.7567,-0.7702,-0.8156,-0.8683,-0.9204,-0.9652,1.7578,1.7401,1.6058,1.5331,1.5013,1.3972,1.4279,1.5158,1.4714,1.4385,1.4296,1.4418,1.4455,1.4241,1.3614,1.327,1.2882,1.145,1.0716,1.0369,0.9548,0.8981,0.8244,0.7982,0.7882,0.7817,0.7107,0.6252,0.5394,0.4671,0.3744,0.3145,0.2945,0.2744,0.2611,0.1874,0.1742,0.2076,0.0941,0.0605,0.1072,0.0403,-0.0538,-0.1407,-0.1541,-0.1942,-0.2945,-0.3747,-0.4553,-0.5355,-0.6272,-0.7185,-0.8449,-1.0312,-1.1614,-1.2382,-1.2236,-1.2594,-1.331,-1.1089,-0.9938,-1.1347,-1.0404,-0.9296,-0.9523,-0.9372,-0.914,-0.914,-0.8313,-0.7706,-0.7476,-0.6945,-0.6493,-0.6338,-0.649,-0.6412,-0.6338,-0.6261,-0.6247,-0.619,-0.5993,-0.5793,-0.5769,-0.6256,-0.6113,-0.5881,-0.6071,-0.6141,-0.5885,-0.5557,-0.5425,-0.5491,-0.5557,-0.5686,-0.6145,-0.6079,-0.5557,-0.5624,-0.5815,-0.5686,-0.5491,-0.5557,-0.562,-0.5815,-0.6075,-0.6461,-0.6654,-0.6658,-0.6789,-0.6985,-0.7312,-0.7702,-0.8409,-0.9238,-0.9888,1.7578,1.7578,1.7158,1.6364,1.5599,1.6002,1.6555,1.6979,1.6798,1.6328,1.6038,1.6427,1.6579,1.6557,1.581,1.5524,1.4965,1.3357,1.2397,1.2731,1.4442,1.2781,1.0236,0.9191,0.8925,0.8879,0.8195,0.7177,0.6384,0.6183,0.5595,0.4686,0.4207,0.3811,0.3547,0.2876,0.2477,0.2678,0.2345,0.1676,0.1407,0.1206,0.0201,-0.114,-0.1206,-0.1674,-0.2678,-0.3547,-0.442,-0.5359,-0.6268,-0.697,-0.7794,-0.8964,-1.0119,-1.0589,-0.9825,-0.9648,-1.0392,-0.9357,-0.8988,-0.9809,-0.9739,-0.9296,-0.9296,-0.8618,-0.8313,-0.8012,-0.7326,-0.6791,-0.6718,-0.649,-0.6335,-0.6261,-0.6335,-0.6257,-0.6261,-0.6257,-0.6224,-0.6095,-0.5922,-0.5783,-0.5713,-0.5702,-0.569,-0.5557,-0.5686,-0.5752,-0.5491,-0.5686,-0.5818,-0.5491,-0.5495,-0.5428,-0.5491,-0.5491,-0.5428,-0.5428,-0.5557,-0.5624,-0.5491,-0.5425,-0.5491,-0.5491,-0.5686,-0.6009,-0.5881,-0.5752,-0.6079,-0.647,-0.7107,-0.7678,-0.9,-0.9951,-1.0418,1.8943,1.8903,1.8328,1.7739,1.7278,1.75,1.8221,1.9038,1.8681,1.8265,1.7932,1.823,1.8341,1.7981,1.7247,1.6903,1.6693,1.5777,1.5216,1.5302,1.7283,1.5868,1.2691,1.1153,1.0766,1.0698,0.9951,0.9319,0.8862,0.8484,0.7976,0.7584,0.6988,0.6343,0.5639,0.4776,0.4125,0.3875,0.3476,0.307,0.3002,0.2994,0.1997,0.0733,0.0267,-0.0334,-0.1873,-0.2611,-0.3613,-0.5084,-0.6218,-0.7248,-0.8423,-0.934,-1.0237,-1.0953,-1.0248,-1.0312,-1.1057,-0.9873,-0.9135,-1.0029,-0.9884,-0.9372,-0.9221,-0.8689,-0.8466,-0.8394,-0.7859,-0.7629,-0.7399,-0.6857,-0.6777,-0.7395,-0.678,-0.6321,-0.6257,-0.6261,-0.6186,-0.6047,-0.5895,-0.5745,-0.5606,-0.5521,-0.5449,-0.5491,-0.5815,-0.5752,-0.5557,-0.5947,-0.6145,-0.5885,-0.6079,-0.6338,-0.6338,-0.6338,-0.6527,-0.6461,-0.6396,-0.6268,-0.5943,-0.5811,-0.5557,-0.5557,-0.5491,-0.5491,-0.5624,-0.5624,-0.5557,-0.6071,-0.6833,-0.7792,-0.8995,-1.0746,-1.121,2.0894,2.0795,1.953,1.9364,1.9621,1.8721,1.9645,2.1303,2.0628,2.0154,2.0089,2.0064,1.99,1.9036,1.8859,1.8258,1.827,1.8578,1.8531,1.8667,1.9227,1.8046,1.5359,1.3829,1.3362,1.3134,1.2477,1.1844,1.133,1.0767,1.0463,0.9901,0.9963,0.9466,0.8073,0.7159,0.6534,0.604,0.537,0.5291,0.5545,0.5589,0.486,0.349,0.2515,0.1198,-0.0535,-0.1475,-0.2477,-0.4891,-0.6017,-0.736,-0.9308,-1.0485,-1.1523,-1.2236,-1.1838,-1.257,-1.3822,-1.1255,-1.0237,-1.1403,-1.0456,-0.9583,-0.9718,-0.9648,-0.9432,-0.9432,-0.9442,-0.9125,-0.8585,-0.7507,-0.758,-0.8348,-0.7423,-0.7049,-0.6451,-0.6538,-0.6478,-0.6318,-0.6154,-0.6005,-0.5855,-0.5791,-0.5752,-0.6404,-0.6597,-0.6601,-0.6535,-0.6859,-0.6728,-0.6272,-0.6793,-0.7507,-0.7442,-0.7377,-0.7692,-0.7817,-0.7807,-0.7613,-0.7093,-0.6776,-0.6141,-0.5951,-0.6342,-0.6338,-0.621,-0.6017,-0.5947,-0.6523,-0.7797,-0.8189,-0.8703,-1.0954,-1.2158,2.152,2.1472,2.1156,2.097,2.089,2.1261,2.2016,2.2973,2.2682,2.2392,2.2497,2.2482,2.2118,2.1592,2.1315,2.1423,2.1226,2.1226,2.1572,2.2088,2.1389,2.0669,1.8782,1.7028,1.5807,1.5528,1.4859,1.3879,1.2965,1.271,1.1715,1.0815,1.1117,1.0283,0.9957,0.9316,0.8897,0.9029,0.8446,0.8042,0.8138,0.8312,0.7711,0.6285,0.4567,0.2315,0.0134,-0.0939,-0.1879,-0.3305,-0.4916,-0.6207,-0.7165,-0.9357,-1.0354,-1.0194,-1.1474,-1.2435,-1.2508,-1.1999,-1.156,-1.1786,-1.1267,-1.1487,-1.142,-1.0564,-1.0358,-1.0364,-1.0364,-0.937,-0.8218,-0.913,-0.8675,-0.8285,-0.9075,-0.9227,-0.795,-0.7886,-0.8203,-0.7865,-0.7743,-0.7609,-0.7485,-0.7503,-0.7437,-0.7507,-0.7567,-0.7637,-0.7827,-0.8016,-0.7882,-0.7613,-0.8259,-0.9029,-0.8768,-0.8832,-0.9279,-0.9527,-0.9521,-0.9452,-0.8873,-0.8366,-0.7996,-0.7687,-0.7512,-0.7442,-0.7423,-0.7432,-0.7553,-0.8189,-0.8873,-0.9731,-1.0726,-1.2242,-1.3536,2.2878,2.2864,2.2776,2.2644,2.2673,2.3185,2.3937,2.4601,2.4215,2.3907,2.3727,2.3733,2.3409,2.2922,2.3065,2.3121,2.3059,2.2843,2.3085,2.3603,2.3406,2.3087,2.2488,2.0898,1.9593,1.835,1.6906,1.6279,1.6363,1.5629,1.5098,1.4563,1.4023,1.349,1.2701,1.2137,1.1555,1.0965,1.0918,1.0733,1.0416,1.1074,0.9878,0.7819,0.5485,0.3075,0.0269,-0.0404,-0.1347,-0.2514,-0.3787,-0.4909,-0.5999,-0.8529,-0.9596,-0.9764,-1.182,-1.2494,-1.2045,-1.1449,-1.1376,-1.137,-1.0256,-1.137,-1.1528,-1.0813,-0.9553,-0.9931,-0.9404,-0.8045,-0.7056,-0.6453,-0.6753,-0.7262,-0.748,-0.7539,-0.7402,-0.8707,-0.9319,-0.8572,-0.8581,-0.9002,-0.9174,-0.9249,-0.9295,-0.9397,-0.992,-0.9989,-0.9699,-0.9819,-0.9825,-0.9756,-1.0216,-1.0474,-1.0216,-1.0405,-1.0982,-1.1231,-1.1356,-1.141,-1.1272,-1.0711,-1.0153,-0.9825,-0.9421,-0.9128,-0.9116,-0.9134,-0.9358,-0.9605,-1.0394,-1.1608,-1.2846,-1.4059,-1.5296,2.4516,2.4516,2.4328,2.4351,2.4553,2.4756,2.5444,2.6266,2.568,2.5253,2.4828,2.4766,2.4732,2.4153,2.4388,2.4477,2.4457,2.4356,2.4758,2.5108,2.5821,2.5506,2.496,2.4098,2.3239,2.132,1.9904,1.9974,2.0239,1.9584,1.8627,1.9233,1.8586,1.7252,1.6263,1.5811,1.5209,1.4081,1.4359,1.4421,1.4172,1.5036,1.3849,1.0903,0.9294,0.7012,0.4454,0.2873,0.1375,-0.0597,-0.1898,-0.3372,-0.5158,-0.7938,-0.9563,-0.978,-1.1781,-1.2157,-1.0809,-1.0443,-1.0369,-1.0307,-0.8449,-0.9119,-1.1497,-0.9944,-0.8613,-0.8393,-0.8169,-0.6453,-0.5844,-0.5762,-0.5296,-0.556,-0.4654,-0.4814,-0.6071,-0.8912,-0.9044,-0.7681,-0.8799,-1.0147,-1.0808,-1.1199,-1.1289,-1.1473,-1.2035,-1.2368,-1.2137,-1.2202,-1.2496,-1.2576,-1.3126,-1.3371,-1.3109,-1.3143,-1.3567,-1.3942,-1.3918,-1.4105,-1.4205,-1.4271,-1.3781,-1.195,-1.1394,-1.1394,-1.1715,-1.2314,-1.2262,-1.1609,-1.2603,-1.4601,-1.5517,-1.5967,-1.7247,2.5965,2.5948,2.5914,2.5914,2.6034,2.6449,2.6825,2.7029,2.7257,2.7365,2.7209,2.7257,2.6825,2.6578,2.6674,2.693,2.6904,2.6845,2.6968,2.7326,2.8039,2.8049,2.6845,2.6261,2.5997,2.6065,2.4514,2.3507,2.3038,2.2261,2.1672,2.1348,2.0845,2.0214,1.9919,1.952,1.9249,1.8716,1.8935,1.9128,1.9572,1.9943,1.9277,1.6348,1.5351,1.4048,1.1952,0.9757,0.8459,0.7665,0.2553,0.0,-0.2038,-0.5486,-0.6685,-0.6679,-0.8843,-1.0316,-0.9655,-0.9364,-0.9288,-0.917,-0.8098,-0.8204,-0.9405,-0.8306,-0.692,-0.6933,-0.6634,-0.5609,-0.4882,-0.4953,-0.5607,-0.5656,-0.5847,-0.6256,-0.5557,-0.6444,-0.7652,-0.5776,-0.827,-1.1726,-1.29,-1.3981,-1.4589,-1.4857,-1.5193,-1.5489,-1.5393,-1.5726,-1.6265,-1.6262,-1.6277,-1.6342,-1.6331,-1.6406,-1.6721,-1.7268,-1.7455,-1.7696,-1.7943,-1.8372,-1.7619,-1.6223,-1.4974,-1.464,-1.5054,-1.5416,-1.5542,-1.5255,-1.6515,-1.7871,-1.8304,-1.8746,-1.9948,2.751,2.7493,2.7683,2.7762,2.7833,2.8245,2.833,2.8189,2.8403,2.8415,2.829,2.824,2.8134,2.8008,2.825,2.8561,2.8783,2.8834,2.8852,2.91,2.9663,2.9718,2.8598,2.8093,2.8364,2.8536,2.7869,2.6871,2.6053,2.4702,2.4298,2.4379,2.3762,2.333,2.3263,2.2964,2.2702,2.2821,2.2699,2.2622,2.2653,2.2903,2.1392,1.9564,1.9147,1.7813,1.4785,1.264,1.0645,0.8567,0.3452,0.0,0.0,-0.1557,-0.3129,-0.2866,-0.6138,-0.8887,-0.895,-0.8863,-0.7779,-0.4571,0.0,-0.615,-0.6987,-0.6141,0.0,0.0,0.0,-0.2781,-0.2192,0.0,-0.301,-0.2719,0.0,0.0,0.0,0.0,0.0,0.0,-0.7168,-1.1239,-1.6165,-1.7141,-1.8002,-1.834,-1.8144,-1.7885,-1.7577,-1.8457,-1.8722,-1.9817,-1.9743,-1.9807,-1.9801,-1.9832,-1.9619,-2.0086,-2.0347,-2.0623,-2.0647,-2.0622,-2.1247,-2.1155,-1.997,-1.7636,-1.7809,-1.7955,-1.8418,-1.8906,-1.9359,-1.9979,-2.0785,-2.1645,-2.2743,2.8839,2.886,2.9139,2.927,2.9307,2.9597,2.9542,2.9307,2.9251,2.9101,2.8886,2.8886,2.8868,2.895,2.9269,2.9634,2.9999,2.9853,2.9873,2.996,3.0299,3.04,3.0155,2.9843,2.9529,2.9484,2.9296,2.9455,2.8346,2.699,2.6726,2.658,2.6195,2.5826,2.5646,2.5408,2.5277,2.4887,2.4791,2.4494,2.4116,2.3846,2.2784,2.0341,2.0965,2.0113,1.783,1.7151,1.4349,1.0835,0.603,0.0,0.0,0.2792,0.2786,0.1747,-0.3512,-0.6456,-0.7,-0.6766,-0.4586,0.0,0.0,0.0,-0.4392,0.0,0.0,0.0,0.0,0.0,0.0,0.0,0.0,0.0,0.0,0.0,0.0,0.0,0.0,0.0,0.0,0.0,0.0,-1.5635,-1.5521,-1.5603,-1.5401,-1.5603,-1.5833,-1.9115,-2.0352,-2.2476,-2.3267,-2.3381,-2.34,-2.3312,-2.2865,-2.2436,-2.2436,-2.2449,-2.2363,-2.2212,-2.2762,-2.2817,-2.166,-1.9637,-2.0069,-2.1019,-2.2097,-2.255,-2.1999,-2.2469,-2.3991,-2.4639,-2.5281,2.9661,2.9658,2.9748,2.9794,2.9806,2.9862,2.985,2.9819,2.98,2.9775,2.9685,2.9724,2.9685,2.9725,2.9879,3.0151,3.0274,3.0365,3.0326,3.0281,3.0403,3.0435,3.0273,2.9758,2.9502,2.9469,2.907,2.9094,2.8803,2.8285,2.8171,2.8065,2.7705,2.7413,2.7031,2.6926,2.6642,2.6051,2.6347,2.6776,2.7144,2.7873,2.7618,2.6839,2.6191,2.4981,2.3302,2.3023,2.1782,1.5611,1.0692,0.9531,1.1528,1.2175,1.2222,0.969,0.4806,-0.1072,-0.1444,0.0,0.0,0.0,0.0,0.0,0.1137,0.0,0.0,0.0,0.0,0.0,0.0,0.0,0.0,0.0,0.0,0.0,0.0,0.0,0.0,0.0,0.0,0.0,0.0,0.0,-1.2548,-1.263,0.0,0.0,-1.4921,-1.8622,-1.9735,-2.1163,-2.4091,-2.4617,-2.5043,-2.5244,-2.4754,-2.4283,-2.4111,-2.3869,-2.3595,-2.3201,-2.2491,-2.2293,-2.1591,-2.243,-2.3634,-2.4787,-2.606,-2.5465,-2.4013,-2.5462,-2.7853,-2.8015,-2.7178,3.0175,3.014,3.0175,3.0185,3.0185,3.0185,3.0185,3.0185,3.0185,3.0185,3.0185,3.0166,3.0143,3.0066,3.0033,3.0006,3.0166,3.0426,3.038,3.01,3.0088,3.0061,2.9958,2.9594,2.9297,2.8829,2.8428,2.7951,2.8127,2.8512,2.871,2.8559,2.8439,2.8311,2.7802,2.7778,2.7526,2.7313,2.7447,2.7453,2.744,2.7787,2.754,2.5709,2.5946,2.4981,2.4002,2.4896,2.4699,1.9927,1.5629,1.3719,1.6026,1.7638,1.8831,1.8504,1.5592,0.9109,0.0,0.0,0.0,0.0,0.0,0.0,0.9825,0.0,0.0,0.0,0.0,0.0,0.0,0.0,0.0,0.0,0.0,0.0,0.0,0.0,0.0,0.0,0.0,0.0,0.0,0.0,0.0,0.0,0.0,0.0,0.0,-1.9737,-1.9657,-1.8355,-2.1866,-2.5034,-2.5565,-2.5936,-2.5132,-2.4695,-2.468,-2.4487,-2.4415,-2.3978,-2.2667,-2.2999,-2.3595,-2.4893,-2.6587,-2.5958,-2.4831,-2.5113,-2.5596,-2.6825,-2.7911,-2.7671,-2.7031,3.0331,3.0232,3.0392,3.0442,3.0442,3.0442,3.0461,3.0442,3.0398,3.0355,3.0353,3.0286,3.0195,3.0106,2.9882,2.9781,2.9735,3.0174,2.998,2.9692,2.9398,2.9332,2.9228,2.9061,2.8596,2.8155,2.7549,2.7134,2.7025,2.7294,2.7739,2.8165,2.7857,2.7904,2.7853,2.7415,2.694,2.6214,2.6568,2.6152,2.5448,2.5895,2.4927,2.3858,2.3183,2.269,2.0614,2.1452,2.2589,2.0398,1.8002,1.621,1.7665,1.9003,2.0435,2.0578,1.9519,1.6008,0.8537,0.0,0.0,0.1826,0.1164,0.5333,1.6058,0.9539,0.0,0.0,0.0,0.0,0.0,0.0,0.0,0.0,0.0,0.0,0.0,0.0,0.0,0.0,0.0,0.0,0.0,0.0,0.0,0.0,0.0,0.0,0.0,0.0,-1.8534,-1.6701,-1.9331,-2.2555,-2.3149,-2.3875,-2.3983,-2.4211,-2.4163,-2.3519,-2.2484,-2.2222,-2.1459,-2.2588,-2.3774,-2.3198,-2.2429,-2.2815,-2.3442,-2.5493,-2.7017,-2.6629,-2.69,-2.6788,-2.7036,3.0036,2.9798,3.0341,3.0553,3.0553,3.0598,3.0559,3.0477,3.035,3.028,3.0225,3.0018,2.9836,2.9759,2.9607,2.9404,2.9175,2.9587,2.9282,2.8759,2.8297,2.8353,2.8333,2.8108,2.7674,2.7344,2.6612,2.6115,2.5917,2.5634,2.6051,2.6381,2.6492,2.6282,2.6219,2.6152,2.5313,2.4605,2.4574,2.3978,2.3308,2.3372,2.3387,2.2594,2.1762,2.0734,1.9147,1.9212,1.863,1.6915,1.6294,1.626,1.6775,1.7288,1.8134,1.9008,1.9348,1.6915,1.3491,1.0498,0.8739,0.683,0.552,0.5469,1.3535,1.677,1.3337,0.9076,0.8575,0.6249,0.0,0.0,0.0,0.0,0.0,0.0,0.0,0.0,0.0,0.0,0.0,0.0,0.0,0.0,0.0,0.0,0.0,0.0,0.0,-0.9778,-1.4276,-1.5557,-1.7336,-1.8953,-1.9129,-1.9795,-2.0905,-2.0948,-2.0669,-1.9841,-1.8727,-1.8854,-1.9679,-1.9377,-1.9836,-1.9066,-1.9202,-2.1291,-2.3744,-2.6995,-2.806,-2.6262,-2.6047,-2.6399,-2.6913,2.9826,2.9729,2.9947,3.0036,3.0056,3.0036,3.0036,3.0056,2.997,2.9942,2.9875,2.9448,2.9214,2.9096,2.8758,2.8547,2.8395,2.8522,2.8358,2.8044,2.7619,2.7438,2.7384,2.7129,2.6638,2.6045,2.5336,2.4776,2.444,2.4282,2.4319,2.4601,2.4808,2.5217,2.5203,2.4891,2.4048,2.3505,2.3262,2.2964,2.2908,2.257,2.2226,2.04,2.0183,1.8702,1.6943,1.6016,1.5146,1.4387,1.3828,1.4073,1.4323,1.405,1.4415,1.5292,1.5488,1.5324,1.5939,1.4585,1.4761,1.3002,1.1753,1.1534,1.2999,1.4735,1.5716,1.446,1.4184,1.132,0.0,0.0,0.0,0.0,0.0,0.0,0.0,0.0,0.0,0.0,0.0,0.0,0.0,0.0,0.0,0.0,0.0,0.0,0.0,0.0,-0.8244,-1.1454,-1.2971,-1.4256,-1.4514,-1.608,-1.801,-1.7807,-1.7402,-1.6789,-1.6239,-1.689,-1.7445,-1.6847,-1.6871,-1.7489,-1.8855,-2.1158,-2.3247,-2.4906,-2.506,-2.4184,-2.4634,-2.5738,-2.6027,2.9323,2.9163,2.9182,2.9381,2.966,2.9568,2.9532,2.9495,2.9306,2.9225,2.9122,2.8573,2.8308,2.8128,2.7713,2.733,2.7422,2.7648,2.7456,2.7013,2.6519,2.6416,2.6387,2.6167,2.567,2.4831,2.4321,2.3903,2.336,2.3052,2.2916,2.2918,2.2918,2.3267,2.388,2.3745,2.3095,2.2395,2.2324,2.1922,2.163,2.0915,2.0329,1.835,1.7972,1.6624,1.4907,1.3841,1.3259,1.2556,1.1898,1.1378,1.1304,1.123,1.1015,1.115,1.1279,1.1273,1.2417,1.4497,1.6607,1.4355,1.5375,1.5642,1.5749,1.3821,1.391,1.5585,1.607,1.6269,1.5526,0.0,0.0,0.0,0.0,0.0,0.0,0.0,0.0,0.0,0.0,0.0,0.0,0.0,0.0,0.0,0.0,0.0,0.0,0.0,-0.34,-0.589,-0.7261,-0.8537,-0.9687,-1.2257,-1.4621,-1.537,-1.498,-1.4787,-1.4557,-1.5138,-1.5331,-1.4945,-1.5359,-1.6531,-1.7486,-1.8454,-2.0001,-2.1685,-2.2104,-2.2878,-2.3516,-2.443,-2.4133,2.8481,2.7946,2.7992,2.8651,2.9495,2.9249,2.9093,2.8971,2.8565,2.825,2.8058,2.7508,2.7248,2.7091,2.6698,2.632,2.6333,2.7075,2.6966,2.5829,2.5376,2.5264,2.5341,2.5208,2.4901,2.4266,2.3758,2.323,2.2622,2.2255,2.187,2.138,2.1263,2.1087,2.2044,2.2031,2.1078,1.9901,2.0404,1.9823,1.9065,1.8225,1.7445,1.7045,1.6287,1.4956,1.3886,1.2802,1.2291,1.1643,1.0983,1.0691,1.0691,1.0691,1.0323,0.9728,0.9658,0.9513,0.9669,1.2278,1.3281,1.3521,1.4305,1.4649,1.3768,1.2604,1.1916,1.3201,1.325,1.1948,1.0358,0.876,0.693,0.5956,0.4125,0.2873,0.2949,0.2724,0.4666,0.6144,0.6572,0.0,0.0,0.0,0.0,0.0,0.0,0.0,0.0,0.0,0.0,-0.233,-0.3757,-0.5045,-0.6788,-0.9156,-1.11,-1.2028,-1.2448,-1.2165,-1.2348,-1.2712,-1.2857,-1.2907,-1.3322,-1.4028,-1.451,-1.5061,-1.745,-1.986,-2.1486,-2.2363,-2.2892,-2.2848,-2.229,2.8084,2.7897,2.7897,2.8121,2.8456,2.8363,2.8312,2.826,2.8085,2.7956,2.773,2.7085,2.6719,2.6505,2.5922,2.5484,2.554,2.5605,2.5432,2.5227,2.4468,2.4465,2.4505,2.4438,2.41,2.3422,2.295,2.2847,2.2608,2.1958,2.1904,2.1536,2.0236,1.9918,2.0639,2.1127,2.1275,2.0299,1.9943,1.9323,1.87,1.7463,1.6567,1.6498,1.5579,1.4649,1.3693,1.267,1.187,1.136,1.0771,1.004,0.9965,0.997,0.9744,0.9296,0.9221,0.8922,0.8841,0.9938,1.0679,1.126,1.2168,1.2445,1.1013,0.9175,0.9185,0.9905,1.0375,0.9412,0.8699,0.7638,0.6678,0.7986,0.6986,0.5815,0.5296,0.4825,0.5403,0.6356,0.6985,0.4861,0.0,0.0,0.0,0.0,0.0,0.0,0.0,0.0,-0.0604,-0.0604,-0.1467,-0.2517,-0.4145,-0.7177,-0.8965,-0.9901,-0.9907,-0.9394,-0.9711,-1.053,-1.0405,-1.0398,-1.0878,-1.1414,-1.2567,-1.3983,-1.6186,-1.8289,-1.966,-2.0306,-2.0234,-2.0135,-1.9862,2.7589,2.747,2.7299,2.722,2.7299,2.7542,2.7542,2.7299,2.722,2.7141,2.6819,2.6095,2.576,2.5521,2.5041,2.4632,2.4657,2.4672,2.4399,2.4265,2.3391,2.3205,2.3299,2.3511,2.2951,2.2461,2.2317,2.2275,2.2086,2.1731,2.1104,2.0255,1.9802,1.934,1.9544,1.9813,2.0084,1.9378,1.8967,1.8777,1.8307,1.7472,1.6419,1.593,1.5155,1.4227,1.3491,1.2604,1.1723,1.1354,1.0697,0.982,0.982,0.982,0.9442,0.9064,0.8689,0.8542,0.8765,0.8461,0.9059,0.9074,1.0383,1.0296,0.8993,0.7614,0.7479,0.7821,0.8025,0.7961,0.7581,0.6514,0.7285,0.8602,0.8218,0.6919,0.6583,0.5993,0.4748,0.5769,0.5322,0.3094,0.0,0.0,0.0,0.0,0.0,0.0,0.0,0.0,0.0,-0.1413,-0.1814,-0.3405,-0.4596,-0.587,-0.7326,-0.7897,-0.7832,-0.7572,-0.8215,-0.9157,-0.8522,-0.8146,-0.9012,-1.0052,-1.1431,-1.3127,-1.528,-1.656,-1.7368,-1.7664,-1.7523,-1.7981,-1.8419,2.7019,2.6607,2.6156,2.6033,2.6139,2.6822,2.6723,2.6033,2.6016,2.5746,2.5243,2.4839,2.4585,2.4358,2.3864,2.3565,2.364,2.364,2.3363,2.2731,2.2048,2.1936,2.1955,2.2096,2.2122,2.1854,2.1654,2.1694,2.1369,2.07,1.9569,1.8858,1.9048,1.8716,1.8526,1.8479,1.8519,1.824,1.7833,1.7628,1.7285,1.6706,1.579,1.5013,1.4235,1.307,1.2191,1.1372,1.123,1.1081,1.0938,1.0864,1.0864,1.0858,0.9583,0.8685,0.8385,0.8689,0.8846,0.8542,0.7855,0.7936,0.8623,0.847,0.7914,0.6881,0.6816,0.6919,0.718,0.6949,0.657,0.6953,0.7411,0.7728,0.7793,0.7302,0.7124,0.6146,0.4475,0.3941,0.3163,0.2149,0.2491,0.0,0.0,0.0,0.0,0.0,0.0,0.0,0.0,-0.3981,-0.4517,-0.5252,-0.5992,-0.5911,-0.616,-0.6924,-0.6854,-0.6789,-0.7372,-0.7697,-0.7372,-0.7307,-0.7697,-0.8815,-1.0664,-1.2514,-1.4378,-1.5303,-1.5881,-1.6698,-1.7024,-1.7895,-1.8454,2.5713,2.5598,2.5486,2.5411,2.5449,2.5713,2.5656,2.5449,2.5411,2.5297,2.5182,2.4617,2.4168,2.3719,2.3216,2.2756,2.2778,2.2936,2.2718,2.2041,2.102,2.1131,2.1466,2.1887,2.1904,2.1628,2.1396,2.1163,2.0949,2.0006,1.9339,1.9145,1.8307,1.8056,1.793,1.794,1.7501,1.707,1.6585,1.6446,1.6018,1.5367,1.4736,1.4099,1.3455,1.2432,1.199,1.1768,1.1774,1.1774,1.1848,1.1848,1.1848,1.1848,1.1316,1.1093,1.049,0.9884,0.9296,0.8389,0.7629,0.7099,0.7253,0.7022,0.6707,0.6542,0.6304,0.6475,0.6641,0.649,0.6412,0.6718,0.6945,0.6977,0.7036,0.6822,0.6584,0.5708,0.4032,0.2573,0.1811,0.0,0.0,0.0,0.0,0.0,0.0,0.0,0.0,0.0,0.0,0.0,-0.547,-0.5729,-0.5656,-0.5575,-0.5697,-0.5885,-0.6075,-0.6141,-0.64,-0.6531,-0.6272,-0.6724,-0.7562,-0.8837,-1.0342,-1.2081,-1.364,-1.4118,-1.47,-1.5688,-1.6676,-1.7611,-1.8519,2.5221,2.5182,2.4989,2.4776,2.4592,2.4552,2.4592,2.4592,2.4792,2.4792,2.4552,2.4184,2.3906,2.355,2.2995,2.2558,2.2282,2.2433,2.2189,2.1295,2.0247,2.0304,2.0848,2.1199,2.0981,2.0831,2.0795,2.0582,2.0375,1.9404,1.8649,1.7997,1.7345,1.7001,1.6802,1.6655,1.6507,1.6219,1.586,1.5517,1.5021,1.4522,1.4243,1.36,1.2952,1.2666,1.2298,1.2231,1.2231,1.2305,1.2305,1.2305,1.215,1.1996,1.1996,1.1694,1.1162,1.0484,0.9965,0.9069,0.8012,0.7099,0.649,0.6335,0.6412,0.6328,0.6251,0.6335,0.6335,0.6261,0.6261,0.6335,0.6335,0.6331,0.6222,0.6112,0.5603,0.4965,0.3494,0.1829,0.0,0.0,0.0,0.0,0.0,0.0,0.0,0.0,0.0,0.0,0.0,0.0,-0.4779,-0.5456,-0.5379,-0.5372,-0.5498,-0.5752,-0.6141,-0.6137,-0.5947,-0.6338,-0.6924,-0.7367,-0.7812,-0.9145,-1.0551,-1.1425,-1.261,-1.327,-1.4227,-1.539,-1.661,-1.7677,-1.8549,2.5067,2.4989,2.4496,2.4021,2.364,2.3508,2.345,2.3493,2.3861,2.3933,2.358,2.345,2.3304,2.2891,2.2452,2.2175,2.1785,2.163,2.1304,2.0686,1.996,1.9724,1.9666,1.9499,2.003,1.9857,1.9732,1.9876,1.9749,1.8926,1.7716,1.6636,1.6079,1.5799,1.5728,1.5658,1.5517,1.5155,1.5367,1.5446,1.5021,1.4807,1.4585,1.3665,1.331,1.3098,1.2365,1.215,1.2157,1.2077,1.2003,1.1855,1.1545,1.1168,1.1323,1.1323,1.0789,1.0335,0.9809,0.9064,0.8385,0.748,0.6868,0.6412,0.6261,0.6261,0.6261,0.6261,0.6261,0.6261,0.6261,0.6261,0.6261,0.6261,0.6207,0.6084,0.5802,0.5219,0.4297,0.2534,0.0,0.0,0.0,0.0,0.0,0.0,0.0,0.0,-0.3234,-0.4453,-0.4241,-0.3692,-0.45,-0.5382,-0.5372,-0.5432,-0.5432,-0.5686,-0.6141,-0.6396,-0.6334,-0.7051,-0.7962,-0.8215,-0.8533,-0.9603,-1.0808,-1.1564,-1.2435,-1.3399,-1.4405,-1.539,-1.6476,-1.7544,-1.8424,2.3991,2.3948,2.3348,2.3275,2.3466,2.2569,2.2165,2.2179,2.2289,2.2577,2.277,2.2377,2.1993,2.1738,2.1547,2.121,2.0657,2.0709,2.0219,1.9889,1.9409,1.9275,1.9372,1.938,1.9522,1.9583,1.9468,1.9131,1.8726,1.8172,1.7541,1.6706,1.6,1.5579,1.5092,1.5021,1.4807,1.4307,1.445,1.4665,1.4314,1.3448,1.2799,1.2659,1.2592,1.2211,1.1613,1.1242,1.072,1.0196,1.0045,0.997,0.997,0.9744,0.982,0.9895,0.997,0.9518,0.8912,0.8537,0.7855,0.7096,0.649,0.6335,0.6261,0.6261,0.6261,0.6261,0.6261,0.6261,0.6261,0.6261,0.6261,0.6264,0.6264,0.6132,0.5922,0.5328,0.4754,0.3063,0.1229,0.0,0.0,0.0,0.0,0.0,0.0,-0.4523,-0.4448,-0.5125,-0.5049,-0.47,-0.4837,-0.5376,-0.5432,-0.5425,-0.5491,-0.5815,-0.64,-0.6593,-0.685,-0.7762,-0.8678,-0.8941,-0.9384,-1.0319,-1.1066,-1.1571,-1.2435,-1.3528,-1.4296,-1.5216,-1.6182,-1.7258,-1.8047,2.3465,2.3143,2.283,2.2709,2.2618,2.1993,2.1403,2.0941,2.1158,2.1486,2.188,2.1724,2.1486,2.1113,2.093,2.0383,1.985,1.982,1.9523,1.9155,1.9054,1.8965,1.9102,1.911,1.8951,1.8958,1.8767,1.8385,1.793,1.7432,1.6991,1.6419,1.6,1.5155,1.4522,1.445,1.4307,1.3738,1.3673,1.3673,1.3528,1.2879,1.2298,1.2305,1.215,1.1694,1.1162,1.0714,1.019,0.9669,0.9448,0.9448,0.9448,0.9448,0.9372,0.9372,0.9296,0.8846,0.8161,0.7629,0.7326,0.6641,0.6261,0.6261,0.6261,0.6261,0.6261,0.6261,0.6261,0.6261,0.6261,0.6261,0.6261,0.6261,0.6093,0.5864,0.5044,0.4033,0.3029,0.1643,0.0,0.0,0.0,0.0,0.0,0.0,0.0,-0.5289,-0.5349,-0.5423,-0.5403,-0.5379,-0.5382,-0.5376,-0.5428,-0.5491,-0.562,-0.6075,-0.6658,-0.7697,-0.8409,-0.8865,-0.939,-0.9652,-1.0085,-1.0829,-1.1516,-1.2012,-1.2687,-1.3777,-1.4355,-1.4983,-1.6012,-1.7036,-1.7872,2.3098,2.2603,2.2466,2.2186,2.1699,2.1505,2.0866,2.0053,2.0411,2.0646,2.0795,2.1183,2.1411,2.128,2.0917,2.0244,1.9645,1.9226,1.8795,1.8677,1.867,1.8696,1.8626,1.8494,1.8405,1.8162,1.791,1.7852,1.7647,1.6932,1.6219,1.5922,1.4871,1.3673,1.3528,1.3528,1.3382,1.331,1.331,1.3382,1.3171,1.2739,1.2452,1.2305,1.2231,1.1694,1.1013,1.0415,1.0045,0.9216,0.8618,0.8542,0.8542,0.8466,0.8542,0.8542,0.877,0.8313,0.7783,0.7633,0.7099,0.6567,0.6412,0.6261,0.6261,0.6261,0.6261,0.6261,0.6261,0.6261,0.6261,0.6261,0.6261,0.6261,0.6005,0.5844,0.4563,0.3117,0.1619,0.0366,0.0,0.0,0.0,0.0,0.0,0.0,-0.5386,-0.5447,-0.5521,-0.5471,-0.5471,-0.5426,-0.5399,-0.5386,-0.5561,-0.5686,-0.5881,-0.6662,-0.7437,-0.8865,-0.9843,-0.9907,-1.0034,-1.0415,-1.0912,-1.1454,-1.2128,-1.2687,-1.3416,-1.4145,-1.461,-1.5245,-1.6099,-1.7058,-1.7775,2.2483,2.1852,2.1369,2.1367,2.1524,2.0662,2.0016,1.9851,1.9915,2.0003,1.9978,2.0042,2.0181,2.0181,2.0093,1.9515,1.8744,1.8405,1.8452,1.8425,1.8289,1.8406,1.842,1.8271,1.8095,1.7794,1.7423,1.6922,1.7001,1.6079,1.5092,1.4522,1.4307,1.339,1.2666,1.2666,1.2739,1.2732,1.2732,1.2739,1.2666,1.2452,1.2378,1.2305,1.2305,1.1099,1.0121,0.9674,0.8466,0.748,0.7022,0.7099,0.7176,0.7253,0.7249,0.748,0.7787,0.7557,0.7176,0.7326,0.6872,0.649,0.6261,0.6261,0.6261,0.6261,0.6261,0.6261,0.6261,0.6261,0.6261,0.6261,0.6264,0.619,0.6025,0.6048,0.5446,0.3203,0.1129,0.0224,0.0,0.0,0.0,0.0,0.0,-0.5284,-0.5467,-0.5527,-0.5717,-0.5672,-0.5549,-0.5576,-0.5528,-0.5973,-0.6268,-0.6141,-0.6334,-0.7246,-0.8027,-0.9,-0.9843,-1.0428,-1.0618,-1.0681,-1.1288,-1.1888,-1.2565,-1.3183,-1.4025,-1.4688,-1.505,-1.5565,-1.6368,-1.7034,-1.7677]}]]